<?xml version="1.0" encoding="UTF-8" standalone="no" ?>
<gpx xmlns="http://www.topografix.com/GPX/1/1" xmlns:xsi="http://www.w3.org/2001/XMLSchema-instance" xsi:schemaLocation="http://www.topografix.com/GPX/1/1 http://www.topografix.com/GPX/1/1/gpx.xsd" version="1.1" creator="VisuGPX - https://www.visugpx.com">
  <metadata>
    <name>Grasse-Doublier</name>
    <desc><![CDATA[Boucle au départ de Grasse.]]></desc>
  </metadata>
  <trk>
    <name><![CDATA[Montagne du Doublier]]></name>
    <trkseg>
      <trkpt lat="43.66788" lon="6.92211">
        <ele>547</ele>
        <time>2009-02-11T11:25:14Z</time>
      </trkpt>
      <trkpt lat="43.66778" lon="6.92194">
        <ele>546</ele>
        <time>2009-02-11T11:25:20Z</time>
      </trkpt>
      <trkpt lat="43.66762" lon="6.92163">
        <ele>546</ele>
        <time>2009-02-11T11:25:27Z</time>
      </trkpt>
      <trkpt lat="43.66754" lon="6.92153">
        <ele>545</ele>
        <time>2009-02-11T11:25:29Z</time>
      </trkpt>
      <trkpt lat="43.6674" lon="6.92125">
        <ele>544</ele>
        <time>2009-02-11T11:25:34Z</time>
      </trkpt>
      <trkpt lat="43.66727" lon="6.92084">
        <ele>544</ele>
        <time>2009-02-11T11:25:41Z</time>
      </trkpt>
      <trkpt lat="43.66713" lon="6.92018">
        <ele>546</ele>
        <time>2009-02-11T11:25:52Z</time>
      </trkpt>
      <trkpt lat="43.66706" lon="6.91954">
        <ele>549</ele>
        <time>2009-02-11T11:26:03Z</time>
      </trkpt>
      <trkpt lat="43.66705" lon="6.91908">
        <ele>550</ele>
        <time>2009-02-11T11:26:11Z</time>
      </trkpt>
      <trkpt lat="43.6671" lon="6.91855">
        <ele>552</ele>
        <time>2009-02-11T11:26:20Z</time>
      </trkpt>
      <trkpt lat="43.66711" lon="6.91849">
        <ele>552</ele>
        <time>2009-02-11T11:26:21Z</time>
      </trkpt>
      <trkpt lat="43.6672" lon="6.91796">
        <ele>554</ele>
        <time>2009-02-11T11:26:31Z</time>
      </trkpt>
      <trkpt lat="43.6673" lon="6.91749">
        <ele>555</ele>
        <time>2009-02-11T11:26:40Z</time>
      </trkpt>
      <trkpt lat="43.66739" lon="6.91708">
        <ele>555</ele>
        <time>2009-02-11T11:26:49Z</time>
      </trkpt>
      <trkpt lat="43.66751" lon="6.91671">
        <ele>556</ele>
        <time>2009-02-11T11:26:58Z</time>
      </trkpt>
      <trkpt lat="43.66763" lon="6.91637">
        <ele>557</ele>
        <time>2009-02-11T11:27:06Z</time>
      </trkpt>
      <trkpt lat="43.66781" lon="6.91589">
        <ele>558</ele>
        <time>2009-02-11T11:27:18Z</time>
      </trkpt>
      <trkpt lat="43.66798" lon="6.91549">
        <ele>560</ele>
        <time>2009-02-11T11:27:28Z</time>
      </trkpt>
      <trkpt lat="43.66815" lon="6.91508">
        <ele>562</ele>
        <time>2009-02-11T11:27:39Z</time>
      </trkpt>
      <trkpt lat="43.66829" lon="6.91471">
        <ele>567</ele>
        <time>2009-02-11T11:27:49Z</time>
      </trkpt>
      <trkpt lat="43.66839" lon="6.91436">
        <ele>571</ele>
        <time>2009-02-11T11:27:57Z</time>
      </trkpt>
      <trkpt lat="43.66849" lon="6.91398">
        <ele>573</ele>
        <time>2009-02-11T11:28:06Z</time>
      </trkpt>
      <trkpt lat="43.66858" lon="6.91361">
        <ele>576</ele>
        <time>2009-02-11T11:28:15Z</time>
      </trkpt>
      <trkpt lat="43.66867" lon="6.91329">
        <ele>579</ele>
        <time>2009-02-11T11:28:23Z</time>
      </trkpt>
      <trkpt lat="43.66877" lon="6.91292">
        <ele>580</ele>
        <time>2009-02-11T11:28:32Z</time>
      </trkpt>
      <trkpt lat="43.6689" lon="6.91247">
        <ele>581</ele>
        <time>2009-02-11T11:28:43Z</time>
      </trkpt>
      <trkpt lat="43.66902" lon="6.91219">
        <ele>581</ele>
        <time>2009-02-11T11:28:51Z</time>
      </trkpt>
      <trkpt lat="43.66913" lon="6.91205">
        <ele>581</ele>
        <time>2009-02-11T11:28:58Z</time>
      </trkpt>
      <trkpt lat="43.66913" lon="6.91206">
        <ele>581</ele>
        <time>2009-02-11T11:29:04Z</time>
      </trkpt>
      <trkpt lat="43.66914" lon="6.91206">
        <ele>581</ele>
        <time>2009-02-11T11:29:14Z</time>
      </trkpt>
      <trkpt lat="43.66919" lon="6.91207">
        <ele>581</ele>
        <time>2009-02-11T11:29:19Z</time>
      </trkpt>
      <trkpt lat="43.66925" lon="6.91205">
        <ele>581</ele>
        <time>2009-02-11T11:29:25Z</time>
      </trkpt>
      <trkpt lat="43.66935" lon="6.91201">
        <ele>582</ele>
        <time>2009-02-11T11:29:34Z</time>
      </trkpt>
      <trkpt lat="43.66935" lon="6.91201">
        <ele>582</ele>
        <time>2009-02-11T11:29:40Z</time>
      </trkpt>
      <trkpt lat="43.66941" lon="6.912">
        <ele>582</ele>
        <time>2009-02-11T11:29:44Z</time>
      </trkpt>
      <trkpt lat="43.66951" lon="6.91203">
        <ele>583</ele>
        <time>2009-02-11T11:29:49Z</time>
      </trkpt>
      <trkpt lat="43.66971" lon="6.91208">
        <ele>586</ele>
        <time>2009-02-11T11:29:58Z</time>
      </trkpt>
      <trkpt lat="43.6698" lon="6.91213">
        <ele>589</ele>
        <time>2009-02-11T11:30:03Z</time>
      </trkpt>
      <trkpt lat="43.66978" lon="6.91223">
        <ele>589</ele>
        <time>2009-02-11T11:30:08Z</time>
      </trkpt>
      <trkpt lat="43.66967" lon="6.91228">
        <ele>588</ele>
        <time>2009-02-11T11:30:13Z</time>
      </trkpt>
      <trkpt lat="43.66953" lon="6.91247">
        <ele>587</ele>
        <time>2009-02-11T11:30:21Z</time>
      </trkpt>
      <trkpt lat="43.66948" lon="6.91273">
        <ele>587</ele>
        <time>2009-02-11T11:30:29Z</time>
      </trkpt>
      <trkpt lat="43.66946" lon="6.91296">
        <ele>588</ele>
        <time>2009-02-11T11:30:36Z</time>
      </trkpt>
      <trkpt lat="43.66944" lon="6.91314">
        <ele>589</ele>
        <time>2009-02-11T11:30:42Z</time>
      </trkpt>
      <trkpt lat="43.66943" lon="6.91338">
        <ele>591</ele>
        <time>2009-02-11T11:30:50Z</time>
      </trkpt>
      <trkpt lat="43.66943" lon="6.91355">
        <ele>592</ele>
        <time>2009-02-11T11:30:56Z</time>
      </trkpt>
      <trkpt lat="43.66944" lon="6.9138">
        <ele>594</ele>
        <time>2009-02-11T11:31:04Z</time>
      </trkpt>
      <trkpt lat="43.66945" lon="6.9141">
        <ele>596</ele>
        <time>2009-02-11T11:31:14Z</time>
      </trkpt>
      <trkpt lat="43.66945" lon="6.91432">
        <ele>597</ele>
        <time>2009-02-11T11:31:21Z</time>
      </trkpt>
      <trkpt lat="43.66945" lon="6.91457">
        <ele>599</ele>
        <time>2009-02-11T11:31:29Z</time>
      </trkpt>
      <trkpt lat="43.66945" lon="6.91482">
        <ele>599</ele>
        <time>2009-02-11T11:31:37Z</time>
      </trkpt>
      <trkpt lat="43.66946" lon="6.91504">
        <ele>598</ele>
        <time>2009-02-11T11:31:44Z</time>
      </trkpt>
      <trkpt lat="43.6695" lon="6.91532">
        <ele>601</ele>
        <time>2009-02-11T11:31:53Z</time>
      </trkpt>
      <trkpt lat="43.66956" lon="6.91552">
        <ele>604</ele>
        <time>2009-02-11T11:32:00Z</time>
      </trkpt>
      <trkpt lat="43.66962" lon="6.91571">
        <ele>608</ele>
        <time>2009-02-11T11:32:07Z</time>
      </trkpt>
      <trkpt lat="43.66972" lon="6.91598">
        <ele>615</ele>
        <time>2009-02-11T11:32:17Z</time>
      </trkpt>
      <trkpt lat="43.66984" lon="6.91618">
        <ele>619</ele>
        <time>2009-02-11T11:32:25Z</time>
      </trkpt>
      <trkpt lat="43.67" lon="6.91641">
        <ele>623</ele>
        <time>2009-02-11T11:32:35Z</time>
      </trkpt>
      <trkpt lat="43.67014" lon="6.91667">
        <ele>626</ele>
        <time>2009-02-11T11:32:45Z</time>
      </trkpt>
      <trkpt lat="43.67024" lon="6.91686">
        <ele>628</ele>
        <time>2009-02-11T11:32:52Z</time>
      </trkpt>
      <trkpt lat="43.67029" lon="6.91712">
        <ele>629</ele>
        <time>2009-02-11T11:33:00Z</time>
      </trkpt>
      <trkpt lat="43.6703" lon="6.91743">
        <ele>630</ele>
        <time>2009-02-11T11:33:09Z</time>
      </trkpt>
      <trkpt lat="43.67029" lon="6.91768">
        <ele>631</ele>
        <time>2009-02-11T11:33:16Z</time>
      </trkpt>
      <trkpt lat="43.67027" lon="6.91797">
        <ele>631</ele>
        <time>2009-02-11T11:33:25Z</time>
      </trkpt>
      <trkpt lat="43.67025" lon="6.91827">
        <ele>631</ele>
        <time>2009-02-11T11:33:34Z</time>
      </trkpt>
      <trkpt lat="43.67025" lon="6.91849">
        <ele>631</ele>
        <time>2009-02-11T11:33:41Z</time>
      </trkpt>
      <trkpt lat="43.67025" lon="6.91871">
        <ele>632</ele>
        <time>2009-02-11T11:33:48Z</time>
      </trkpt>
      <trkpt lat="43.67025" lon="6.919">
        <ele>633</ele>
        <time>2009-02-11T11:33:57Z</time>
      </trkpt>
      <trkpt lat="43.67028" lon="6.91923">
        <ele>633</ele>
        <time>2009-02-11T11:34:05Z</time>
      </trkpt>
      <trkpt lat="43.67033" lon="6.91952">
        <ele>634</ele>
        <time>2009-02-11T11:34:14Z</time>
      </trkpt>
      <trkpt lat="43.67038" lon="6.91983">
        <ele>634</ele>
        <time>2009-02-11T11:34:25Z</time>
      </trkpt>
      <trkpt lat="43.67043" lon="6.92005">
        <ele>634</ele>
        <time>2009-02-11T11:34:33Z</time>
      </trkpt>
      <trkpt lat="43.67048" lon="6.92032">
        <ele>635</ele>
        <time>2009-02-11T11:34:43Z</time>
      </trkpt>
      <trkpt lat="43.67056" lon="6.92056">
        <ele>637</ele>
        <time>2009-02-11T11:34:52Z</time>
      </trkpt>
      <trkpt lat="43.67067" lon="6.92078">
        <ele>637</ele>
        <time>2009-02-11T11:35:01Z</time>
      </trkpt>
      <trkpt lat="43.67072" lon="6.92087">
        <ele>637</ele>
        <time>2009-02-11T11:35:05Z</time>
      </trkpt>
      <trkpt lat="43.67079" lon="6.92088">
        <ele>639</ele>
        <time>2009-02-11T11:35:10Z</time>
      </trkpt>
      <trkpt lat="43.6708" lon="6.92081">
        <ele>640</ele>
        <time>2009-02-11T11:35:13Z</time>
      </trkpt>
      <trkpt lat="43.67078" lon="6.92065">
        <ele>641</ele>
        <time>2009-02-11T11:35:20Z</time>
      </trkpt>
      <trkpt lat="43.6708" lon="6.92047">
        <ele>643</ele>
        <time>2009-02-11T11:35:27Z</time>
      </trkpt>
      <trkpt lat="43.67083" lon="6.92026">
        <ele>646</ele>
        <time>2009-02-11T11:35:35Z</time>
      </trkpt>
      <trkpt lat="43.67089" lon="6.92006">
        <ele>650</ele>
        <time>2009-02-11T11:35:44Z</time>
      </trkpt>
      <trkpt lat="43.67093" lon="6.91993">
        <ele>653</ele>
        <time>2009-02-11T11:35:50Z</time>
      </trkpt>
      <trkpt lat="43.67093" lon="6.91991">
        <ele>653</ele>
        <time>2009-02-11T11:35:51Z</time>
      </trkpt>
      <trkpt lat="43.67094" lon="6.91982">
        <ele>654</ele>
        <time>2009-02-11T11:35:55Z</time>
      </trkpt>
      <trkpt lat="43.67098" lon="6.91966">
        <ele>657</ele>
        <time>2009-02-11T11:36:02Z</time>
      </trkpt>
      <trkpt lat="43.67103" lon="6.91951">
        <ele>659</ele>
        <time>2009-02-11T11:36:09Z</time>
      </trkpt>
      <trkpt lat="43.67107" lon="6.91938">
        <ele>660</ele>
        <time>2009-02-11T11:36:15Z</time>
      </trkpt>
      <trkpt lat="43.67113" lon="6.9192">
        <ele>662</ele>
        <time>2009-02-11T11:36:24Z</time>
      </trkpt>
      <trkpt lat="43.67118" lon="6.91909">
        <ele>664</ele>
        <time>2009-02-11T11:36:30Z</time>
      </trkpt>
      <trkpt lat="43.67125" lon="6.91897">
        <ele>666</ele>
        <time>2009-02-11T11:36:37Z</time>
      </trkpt>
      <trkpt lat="43.67134" lon="6.91881">
        <ele>670</ele>
        <time>2009-02-11T11:36:46Z</time>
      </trkpt>
      <trkpt lat="43.67144" lon="6.91862">
        <ele>674</ele>
        <time>2009-02-11T11:36:56Z</time>
      </trkpt>
      <trkpt lat="43.6715" lon="6.91851">
        <ele>677</ele>
        <time>2009-02-11T11:37:03Z</time>
      </trkpt>
      <trkpt lat="43.67158" lon="6.91839">
        <ele>679</ele>
        <time>2009-02-11T11:37:10Z</time>
      </trkpt>
      <trkpt lat="43.67166" lon="6.91823">
        <ele>682</ele>
        <time>2009-02-11T11:37:19Z</time>
      </trkpt>
      <trkpt lat="43.6717" lon="6.9182">
        <ele>684</ele>
        <time>2009-02-11T11:37:22Z</time>
      </trkpt>
      <trkpt lat="43.67173" lon="6.91826">
        <ele>686</ele>
        <time>2009-02-11T11:37:27Z</time>
      </trkpt>
      <trkpt lat="43.67168" lon="6.91845">
        <ele>684</ele>
        <time>2009-02-11T11:37:36Z</time>
      </trkpt>
      <trkpt lat="43.67167" lon="6.91858">
        <ele>684</ele>
        <time>2009-02-11T11:37:42Z</time>
      </trkpt>
      <trkpt lat="43.67167" lon="6.91877">
        <ele>684</ele>
        <time>2009-02-11T11:37:50Z</time>
      </trkpt>
      <trkpt lat="43.67166" lon="6.91895">
        <ele>683</ele>
        <time>2009-02-11T11:37:58Z</time>
      </trkpt>
      <trkpt lat="43.67166" lon="6.91922">
        <ele>683</ele>
        <time>2009-02-11T11:38:09Z</time>
      </trkpt>
      <trkpt lat="43.67166" lon="6.91938">
        <ele>683</ele>
        <time>2009-02-11T11:38:16Z</time>
      </trkpt>
      <trkpt lat="43.67167" lon="6.91955">
        <ele>683</ele>
        <time>2009-02-11T11:38:23Z</time>
      </trkpt>
      <trkpt lat="43.67168" lon="6.91974">
        <ele>683</ele>
        <time>2009-02-11T11:38:31Z</time>
      </trkpt>
      <trkpt lat="43.67175" lon="6.91993">
        <ele>684</ele>
        <time>2009-02-11T11:38:40Z</time>
      </trkpt>
      <trkpt lat="43.67184" lon="6.92">
        <ele>688</ele>
        <time>2009-02-11T11:38:47Z</time>
      </trkpt>
      <trkpt lat="43.67196" lon="6.92008">
        <ele>694</ele>
        <time>2009-02-11T11:38:55Z</time>
      </trkpt>
      <trkpt lat="43.67209" lon="6.92015">
        <ele>700</ele>
        <time>2009-02-11T11:39:03Z</time>
      </trkpt>
      <trkpt lat="43.6722" lon="6.92022">
        <ele>705</ele>
        <time>2009-02-11T11:39:09Z</time>
      </trkpt>
      <trkpt lat="43.67232" lon="6.92032">
        <ele>708</ele>
        <time>2009-02-11T11:39:17Z</time>
      </trkpt>
      <trkpt lat="43.67241" lon="6.92041">
        <ele>709</ele>
        <time>2009-02-11T11:39:23Z</time>
      </trkpt>
      <trkpt lat="43.6725" lon="6.92051">
        <ele>711</ele>
        <time>2009-02-11T11:39:30Z</time>
      </trkpt>
      <trkpt lat="43.67258" lon="6.92063">
        <ele>713</ele>
        <time>2009-02-11T11:39:37Z</time>
      </trkpt>
      <trkpt lat="43.67266" lon="6.92077">
        <ele>715</ele>
        <time>2009-02-11T11:39:44Z</time>
      </trkpt>
      <trkpt lat="43.67274" lon="6.92092">
        <ele>717</ele>
        <time>2009-02-11T11:39:52Z</time>
      </trkpt>
      <trkpt lat="43.67281" lon="6.9211">
        <ele>717</ele>
        <time>2009-02-11T11:40:01Z</time>
      </trkpt>
      <trkpt lat="43.67288" lon="6.92128">
        <ele>718</ele>
        <time>2009-02-11T11:40:09Z</time>
      </trkpt>
      <trkpt lat="43.67296" lon="6.92145">
        <ele>719</ele>
        <time>2009-02-11T11:40:17Z</time>
      </trkpt>
      <trkpt lat="43.67303" lon="6.92165">
        <ele>719</ele>
        <time>2009-02-11T11:40:26Z</time>
      </trkpt>
      <trkpt lat="43.67309" lon="6.92182">
        <ele>720</ele>
        <time>2009-02-11T11:40:34Z</time>
      </trkpt>
      <trkpt lat="43.67315" lon="6.92198">
        <ele>721</ele>
        <time>2009-02-11T11:40:42Z</time>
      </trkpt>
      <trkpt lat="43.67321" lon="6.92216">
        <ele>721</ele>
        <time>2009-02-11T11:40:50Z</time>
      </trkpt>
      <trkpt lat="43.67327" lon="6.92234">
        <ele>721</ele>
        <time>2009-02-11T11:40:58Z</time>
      </trkpt>
      <trkpt lat="43.67332" lon="6.92251">
        <ele>721</ele>
        <time>2009-02-11T11:41:05Z</time>
      </trkpt>
      <trkpt lat="43.67339" lon="6.92271">
        <ele>722</ele>
        <time>2009-02-11T11:41:14Z</time>
      </trkpt>
      <trkpt lat="43.67345" lon="6.92287">
        <ele>723</ele>
        <time>2009-02-11T11:41:21Z</time>
      </trkpt>
      <trkpt lat="43.67351" lon="6.92302">
        <ele>724</ele>
        <time>2009-02-11T11:41:28Z</time>
      </trkpt>
      <trkpt lat="43.67358" lon="6.9232">
        <ele>724</ele>
        <time>2009-02-11T11:41:36Z</time>
      </trkpt>
      <trkpt lat="43.67364" lon="6.92338">
        <ele>724</ele>
        <time>2009-02-11T11:41:44Z</time>
      </trkpt>
      <trkpt lat="43.67373" lon="6.92365">
        <ele>726</ele>
        <time>2009-02-11T11:41:55Z</time>
      </trkpt>
      <trkpt lat="43.67379" lon="6.92388">
        <ele>727</ele>
        <time>2009-02-11T11:42:04Z</time>
      </trkpt>
      <trkpt lat="43.67383" lon="6.92411">
        <ele>728</ele>
        <time>2009-02-11T11:42:13Z</time>
      </trkpt>
      <trkpt lat="43.67386" lon="6.92435">
        <ele>728</ele>
        <time>2009-02-11T11:42:22Z</time>
      </trkpt>
      <trkpt lat="43.6739" lon="6.92454">
        <ele>728</ele>
        <time>2009-02-11T11:42:30Z</time>
      </trkpt>
      <trkpt lat="43.67395" lon="6.92472">
        <ele>728</ele>
        <time>2009-02-11T11:42:37Z</time>
      </trkpt>
      <trkpt lat="43.67403" lon="6.925">
        <ele>727</ele>
        <time>2009-02-11T11:42:48Z</time>
      </trkpt>
      <trkpt lat="43.67411" lon="6.92518">
        <ele>728</ele>
        <time>2009-02-11T11:42:56Z</time>
      </trkpt>
      <trkpt lat="43.67419" lon="6.92533">
        <ele>729</ele>
        <time>2009-02-11T11:43:03Z</time>
      </trkpt>
      <trkpt lat="43.67429" lon="6.92549">
        <ele>730</ele>
        <time>2009-02-11T11:43:11Z</time>
      </trkpt>
      <trkpt lat="43.67442" lon="6.92566">
        <ele>733</ele>
        <time>2009-02-11T11:43:21Z</time>
      </trkpt>
      <trkpt lat="43.67453" lon="6.92579">
        <ele>734</ele>
        <time>2009-02-11T11:43:29Z</time>
      </trkpt>
      <trkpt lat="43.67462" lon="6.92587">
        <ele>734</ele>
        <time>2009-02-11T11:43:35Z</time>
      </trkpt>
      <trkpt lat="43.67474" lon="6.92594">
        <ele>736</ele>
        <time>2009-02-11T11:43:42Z</time>
      </trkpt>
      <trkpt lat="43.67486" lon="6.926">
        <ele>737</ele>
        <time>2009-02-11T11:43:49Z</time>
      </trkpt>
      <trkpt lat="43.675" lon="6.9261">
        <ele>739</ele>
        <time>2009-02-11T11:43:58Z</time>
      </trkpt>
      <trkpt lat="43.67515" lon="6.92614">
        <ele>740</ele>
        <time>2009-02-11T11:44:06Z</time>
      </trkpt>
      <trkpt lat="43.67529" lon="6.9262">
        <ele>742</ele>
        <time>2009-02-11T11:44:14Z</time>
      </trkpt>
      <trkpt lat="43.67543" lon="6.92623">
        <ele>743</ele>
        <time>2009-02-11T11:44:22Z</time>
      </trkpt>
      <trkpt lat="43.67556" lon="6.92625">
        <ele>745</ele>
        <time>2009-02-11T11:44:29Z</time>
      </trkpt>
      <trkpt lat="43.67567" lon="6.92624">
        <ele>746</ele>
        <time>2009-02-11T11:44:35Z</time>
      </trkpt>
      <trkpt lat="43.67579" lon="6.92622">
        <ele>749</ele>
        <time>2009-02-11T11:44:41Z</time>
      </trkpt>
      <trkpt lat="43.67592" lon="6.92617">
        <ele>752</ele>
        <time>2009-02-11T11:44:48Z</time>
      </trkpt>
      <trkpt lat="43.67605" lon="6.92613">
        <ele>754</ele>
        <time>2009-02-11T11:44:55Z</time>
      </trkpt>
      <trkpt lat="43.67618" lon="6.92608">
        <ele>756</ele>
        <time>2009-02-11T11:45:02Z</time>
      </trkpt>
      <trkpt lat="43.67634" lon="6.92602">
        <ele>759</ele>
        <time>2009-02-11T11:45:10Z</time>
      </trkpt>
      <trkpt lat="43.67649" lon="6.92595">
        <ele>761</ele>
        <time>2009-02-11T11:45:18Z</time>
      </trkpt>
      <trkpt lat="43.67661" lon="6.9259">
        <ele>763</ele>
        <time>2009-02-11T11:45:25Z</time>
      </trkpt>
      <trkpt lat="43.67673" lon="6.92583">
        <ele>766</ele>
        <time>2009-02-11T11:45:32Z</time>
      </trkpt>
      <trkpt lat="43.67685" lon="6.92577">
        <ele>769</ele>
        <time>2009-02-11T11:45:39Z</time>
      </trkpt>
      <trkpt lat="43.67696" lon="6.92571">
        <ele>773</ele>
        <time>2009-02-11T11:45:46Z</time>
      </trkpt>
      <trkpt lat="43.67706" lon="6.92566">
        <ele>775</ele>
        <time>2009-02-11T11:45:52Z</time>
      </trkpt>
      <trkpt lat="43.67715" lon="6.92562">
        <ele>777</ele>
        <time>2009-02-11T11:45:58Z</time>
      </trkpt>
      <trkpt lat="43.67727" lon="6.92557">
        <ele>779</ele>
        <time>2009-02-11T11:46:06Z</time>
      </trkpt>
      <trkpt lat="43.67738" lon="6.92554">
        <ele>780</ele>
        <time>2009-02-11T11:46:13Z</time>
      </trkpt>
      <trkpt lat="43.67749" lon="6.92548">
        <ele>783</ele>
        <time>2009-02-11T11:46:21Z</time>
      </trkpt>
      <trkpt lat="43.67757" lon="6.92541">
        <ele>787</ele>
        <time>2009-02-11T11:46:27Z</time>
      </trkpt>
      <trkpt lat="43.67767" lon="6.92533">
        <ele>791</ele>
        <time>2009-02-11T11:46:34Z</time>
      </trkpt>
      <trkpt lat="43.67778" lon="6.92525">
        <ele>794</ele>
        <time>2009-02-11T11:46:42Z</time>
      </trkpt>
      <trkpt lat="43.67788" lon="6.9252">
        <ele>795</ele>
        <time>2009-02-11T11:46:48Z</time>
      </trkpt>
      <trkpt lat="43.67799" lon="6.92514">
        <ele>796</ele>
        <time>2009-02-11T11:46:55Z</time>
      </trkpt>
      <trkpt lat="43.67812" lon="6.92509">
        <ele>797</ele>
        <time>2009-02-11T11:47:03Z</time>
      </trkpt>
      <trkpt lat="43.67823" lon="6.92504">
        <ele>797</ele>
        <time>2009-02-11T11:47:10Z</time>
      </trkpt>
      <trkpt lat="43.67825" lon="6.92503">
        <ele>797</ele>
        <time>2009-02-11T11:47:11Z</time>
      </trkpt>
      <trkpt lat="43.67833" lon="6.92499">
        <ele>798</ele>
        <time>2009-02-11T11:47:17Z</time>
      </trkpt>
      <trkpt lat="43.67843" lon="6.92494">
        <ele>798</ele>
        <time>2009-02-11T11:47:24Z</time>
      </trkpt>
      <trkpt lat="43.67851" lon="6.9249">
        <ele>798</ele>
        <time>2009-02-11T11:47:30Z</time>
      </trkpt>
      <trkpt lat="43.67862" lon="6.92486">
        <ele>799</ele>
        <time>2009-02-11T11:47:37Z</time>
      </trkpt>
      <trkpt lat="43.6787" lon="6.92482">
        <ele>800</ele>
        <time>2009-02-11T11:47:43Z</time>
      </trkpt>
      <trkpt lat="43.67876" lon="6.9248">
        <ele>800</ele>
        <time>2009-02-11T11:47:47Z</time>
      </trkpt>
      <trkpt lat="43.67886" lon="6.92474">
        <ele>802</ele>
        <time>2009-02-11T11:47:54Z</time>
      </trkpt>
      <trkpt lat="43.67893" lon="6.92469">
        <ele>803</ele>
        <time>2009-02-11T11:48:00Z</time>
      </trkpt>
      <trkpt lat="43.67904" lon="6.92462">
        <ele>804</ele>
        <time>2009-02-11T11:48:08Z</time>
      </trkpt>
      <trkpt lat="43.67911" lon="6.92457">
        <ele>805</ele>
        <time>2009-02-11T11:48:13Z</time>
      </trkpt>
      <trkpt lat="43.6792" lon="6.92451">
        <ele>807</ele>
        <time>2009-02-11T11:48:20Z</time>
      </trkpt>
      <trkpt lat="43.67929" lon="6.92446">
        <ele>809</ele>
        <time>2009-02-11T11:48:26Z</time>
      </trkpt>
      <trkpt lat="43.67936" lon="6.92438">
        <ele>811</ele>
        <time>2009-02-11T11:48:33Z</time>
      </trkpt>
      <trkpt lat="43.67943" lon="6.92431">
        <ele>813</ele>
        <time>2009-02-11T11:48:39Z</time>
      </trkpt>
      <trkpt lat="43.67952" lon="6.9242">
        <ele>816</ele>
        <time>2009-02-11T11:48:47Z</time>
      </trkpt>
      <trkpt lat="43.67959" lon="6.92412">
        <ele>820</ele>
        <time>2009-02-11T11:48:55Z</time>
      </trkpt>
      <trkpt lat="43.67964" lon="6.92405">
        <ele>824</ele>
        <time>2009-02-11T11:49:01Z</time>
      </trkpt>
      <trkpt lat="43.67965" lon="6.92403">
        <ele>825</ele>
        <time>2009-02-11T11:49:02Z</time>
      </trkpt>
      <trkpt lat="43.67971" lon="6.92391">
        <ele>832</ele>
        <time>2009-02-11T11:49:10Z</time>
      </trkpt>
      <trkpt lat="43.67977" lon="6.9238">
        <ele>836</ele>
        <time>2009-02-11T11:49:18Z</time>
      </trkpt>
      <trkpt lat="43.67985" lon="6.92366">
        <ele>840</ele>
        <time>2009-02-11T11:49:27Z</time>
      </trkpt>
      <trkpt lat="43.6799" lon="6.92353">
        <ele>844</ele>
        <time>2009-02-11T11:49:35Z</time>
      </trkpt>
      <trkpt lat="43.67999" lon="6.92345">
        <ele>847</ele>
        <time>2009-02-11T11:49:42Z</time>
      </trkpt>
      <trkpt lat="43.68" lon="6.92342">
        <ele>848</ele>
        <time>2009-02-11T11:49:44Z</time>
      </trkpt>
      <trkpt lat="43.68005" lon="6.92339">
        <ele>849</ele>
        <time>2009-02-11T11:49:48Z</time>
      </trkpt>
      <trkpt lat="43.68012" lon="6.9233">
        <ele>853</ele>
        <time>2009-02-11T11:49:55Z</time>
      </trkpt>
      <trkpt lat="43.6802" lon="6.92323">
        <ele>855</ele>
        <time>2009-02-11T11:50:02Z</time>
      </trkpt>
      <trkpt lat="43.68027" lon="6.92318">
        <ele>858</ele>
        <time>2009-02-11T11:50:09Z</time>
      </trkpt>
      <trkpt lat="43.68032" lon="6.92314">
        <ele>859</ele>
        <time>2009-02-11T11:50:15Z</time>
      </trkpt>
      <trkpt lat="43.68036" lon="6.92312">
        <ele>859</ele>
        <time>2009-02-11T11:50:24Z</time>
      </trkpt>
      <trkpt lat="43.68041" lon="6.92311">
        <ele>859</ele>
        <time>2009-02-11T11:50:32Z</time>
      </trkpt>
      <trkpt lat="43.68044" lon="6.92311">
        <ele>859</ele>
        <time>2009-02-11T11:50:36Z</time>
      </trkpt>
      <trkpt lat="43.68052" lon="6.92317">
        <ele>856</ele>
        <time>2009-02-11T11:50:42Z</time>
      </trkpt>
      <trkpt lat="43.68053" lon="6.9232">
        <ele>855</ele>
        <time>2009-02-11T11:50:44Z</time>
      </trkpt>
      <trkpt lat="43.68051" lon="6.92327">
        <ele>852</ele>
        <time>2009-02-11T11:50:48Z</time>
      </trkpt>
      <trkpt lat="43.68042" lon="6.92348">
        <ele>845</ele>
        <time>2009-02-11T11:50:57Z</time>
      </trkpt>
      <trkpt lat="43.68043" lon="6.92365">
        <ele>839</ele>
        <time>2009-02-11T11:51:04Z</time>
      </trkpt>
      <trkpt lat="43.68044" lon="6.92387">
        <ele>833</ele>
        <time>2009-02-11T11:51:13Z</time>
      </trkpt>
      <trkpt lat="43.68044" lon="6.92408">
        <ele>825</ele>
        <time>2009-02-11T11:51:22Z</time>
      </trkpt>
      <trkpt lat="43.68043" lon="6.92429">
        <ele>821</ele>
        <time>2009-02-11T11:51:31Z</time>
      </trkpt>
      <trkpt lat="43.68042" lon="6.92442">
        <ele>820</ele>
        <time>2009-02-11T11:51:37Z</time>
      </trkpt>
      <trkpt lat="43.68042" lon="6.9246">
        <ele>818</ele>
        <time>2009-02-11T11:51:45Z</time>
      </trkpt>
      <trkpt lat="43.68041" lon="6.92475">
        <ele>816</ele>
        <time>2009-02-11T11:51:52Z</time>
      </trkpt>
      <trkpt lat="43.68041" lon="6.9249">
        <ele>815</ele>
        <time>2009-02-11T11:51:59Z</time>
      </trkpt>
      <trkpt lat="43.68041" lon="6.92492">
        <ele>815</ele>
        <time>2009-02-11T11:52:00Z</time>
      </trkpt>
      <trkpt lat="43.68048" lon="6.92493">
        <ele>817</ele>
        <time>2009-02-11T11:52:06Z</time>
      </trkpt>
      <trkpt lat="43.6805" lon="6.9249">
        <ele>818</ele>
        <time>2009-02-11T11:52:08Z</time>
      </trkpt>
      <trkpt lat="43.68055" lon="6.92472">
        <ele>819</ele>
        <time>2009-02-11T11:52:16Z</time>
      </trkpt>
      <trkpt lat="43.6806" lon="6.92456">
        <ele>823</ele>
        <time>2009-02-11T11:52:23Z</time>
      </trkpt>
      <trkpt lat="43.68066" lon="6.92443">
        <ele>827</ele>
        <time>2009-02-11T11:52:29Z</time>
      </trkpt>
      <trkpt lat="43.6807" lon="6.92426">
        <ele>829</ele>
        <time>2009-02-11T11:52:36Z</time>
      </trkpt>
      <trkpt lat="43.68077" lon="6.92413">
        <ele>832</ele>
        <time>2009-02-11T11:52:43Z</time>
      </trkpt>
      <trkpt lat="43.68088" lon="6.92403">
        <ele>835</ele>
        <time>2009-02-11T11:52:50Z</time>
      </trkpt>
      <trkpt lat="43.68099" lon="6.92388">
        <ele>838</ele>
        <time>2009-02-11T11:52:59Z</time>
      </trkpt>
      <trkpt lat="43.68109" lon="6.92377">
        <ele>841</ele>
        <time>2009-02-11T11:53:07Z</time>
      </trkpt>
      <trkpt lat="43.68117" lon="6.92365">
        <ele>843</ele>
        <time>2009-02-11T11:53:14Z</time>
      </trkpt>
      <trkpt lat="43.68127" lon="6.92356">
        <ele>846</ele>
        <time>2009-02-11T11:53:21Z</time>
      </trkpt>
      <trkpt lat="43.68139" lon="6.92343">
        <ele>851</ele>
        <time>2009-02-11T11:53:30Z</time>
      </trkpt>
      <trkpt lat="43.68148" lon="6.92331">
        <ele>854</ele>
        <time>2009-02-11T11:53:38Z</time>
      </trkpt>
      <trkpt lat="43.68162" lon="6.92323">
        <ele>857</ele>
        <time>2009-02-11T11:53:47Z</time>
      </trkpt>
      <trkpt lat="43.68174" lon="6.9232">
        <ele>859</ele>
        <time>2009-02-11T11:53:54Z</time>
      </trkpt>
      <trkpt lat="43.68187" lon="6.92323">
        <ele>860</ele>
        <time>2009-02-11T11:54:02Z</time>
      </trkpt>
      <trkpt lat="43.68199" lon="6.92323">
        <ele>861</ele>
        <time>2009-02-11T11:54:09Z</time>
      </trkpt>
      <trkpt lat="43.68209" lon="6.92322">
        <ele>863</ele>
        <time>2009-02-11T11:54:15Z</time>
      </trkpt>
      <trkpt lat="43.6822" lon="6.92319">
        <ele>866</ele>
        <time>2009-02-11T11:54:21Z</time>
      </trkpt>
      <trkpt lat="43.68231" lon="6.92309">
        <ele>869</ele>
        <time>2009-02-11T11:54:29Z</time>
      </trkpt>
      <trkpt lat="43.68233" lon="6.92307">
        <ele>870</ele>
        <time>2009-02-11T11:54:30Z</time>
      </trkpt>
      <trkpt lat="43.68246" lon="6.92299">
        <ele>873</ele>
        <time>2009-02-11T11:54:39Z</time>
      </trkpt>
      <trkpt lat="43.68259" lon="6.92301">
        <ele>875</ele>
        <time>2009-02-11T11:54:47Z</time>
      </trkpt>
      <trkpt lat="43.6827" lon="6.92307">
        <ele>876</ele>
        <time>2009-02-11T11:54:55Z</time>
      </trkpt>
      <trkpt lat="43.68281" lon="6.92313">
        <ele>877</ele>
        <time>2009-02-11T11:55:02Z</time>
      </trkpt>
      <trkpt lat="43.68291" lon="6.92318">
        <ele>878</ele>
        <time>2009-02-11T11:55:09Z</time>
      </trkpt>
      <trkpt lat="43.68301" lon="6.92326">
        <ele>879</ele>
        <time>2009-02-11T11:55:16Z</time>
      </trkpt>
      <trkpt lat="43.68302" lon="6.92327">
        <ele>880</ele>
        <time>2009-02-11T11:55:17Z</time>
      </trkpt>
      <trkpt lat="43.68309" lon="6.92335">
        <ele>880</ele>
        <time>2009-02-11T11:55:23Z</time>
      </trkpt>
      <trkpt lat="43.68315" lon="6.92341">
        <ele>881</ele>
        <time>2009-02-11T11:55:27Z</time>
      </trkpt>
      <trkpt lat="43.68327" lon="6.92348">
        <ele>883</ele>
        <time>2009-02-11T11:55:36Z</time>
      </trkpt>
      <trkpt lat="43.68334" lon="6.92353">
        <ele>884</ele>
        <time>2009-02-11T11:55:42Z</time>
      </trkpt>
      <trkpt lat="43.68349" lon="6.92363">
        <ele>886</ele>
        <time>2009-02-11T11:55:51Z</time>
      </trkpt>
      <trkpt lat="43.68361" lon="6.92367">
        <ele>888</ele>
        <time>2009-02-11T11:55:58Z</time>
      </trkpt>
      <trkpt lat="43.68374" lon="6.92369">
        <ele>890</ele>
        <time>2009-02-11T11:56:06Z</time>
      </trkpt>
      <trkpt lat="43.68386" lon="6.92368">
        <ele>893</ele>
        <time>2009-02-11T11:56:13Z</time>
      </trkpt>
      <trkpt lat="43.68399" lon="6.92367">
        <ele>894</ele>
        <time>2009-02-11T11:56:20Z</time>
      </trkpt>
      <trkpt lat="43.68413" lon="6.92367">
        <ele>895</ele>
        <time>2009-02-11T11:56:26Z</time>
      </trkpt>
      <trkpt lat="43.68431" lon="6.92368">
        <ele>897</ele>
        <time>2009-02-11T11:56:34Z</time>
      </trkpt>
      <trkpt lat="43.68451" lon="6.92369">
        <ele>900</ele>
        <time>2009-02-11T11:56:44Z</time>
      </trkpt>
      <trkpt lat="43.68465" lon="6.92371">
        <ele>902</ele>
        <time>2009-02-11T11:56:51Z</time>
      </trkpt>
      <trkpt lat="43.68483" lon="6.92371">
        <ele>904</ele>
        <time>2009-02-11T11:57:00Z</time>
      </trkpt>
      <trkpt lat="43.68499" lon="6.92372">
        <ele>906</ele>
        <time>2009-02-11T11:57:09Z</time>
      </trkpt>
      <trkpt lat="43.68511" lon="6.92373">
        <ele>907</ele>
        <time>2009-02-11T11:57:16Z</time>
      </trkpt>
      <trkpt lat="43.68523" lon="6.92373">
        <ele>908</ele>
        <time>2009-02-11T11:57:23Z</time>
      </trkpt>
      <trkpt lat="43.68536" lon="6.92374">
        <ele>910</ele>
        <time>2009-02-11T11:57:30Z</time>
      </trkpt>
      <trkpt lat="43.6855" lon="6.92375">
        <ele>912</ele>
        <time>2009-02-11T11:57:37Z</time>
      </trkpt>
      <trkpt lat="43.68565" lon="6.92376">
        <ele>913</ele>
        <time>2009-02-11T11:57:44Z</time>
      </trkpt>
      <trkpt lat="43.68578" lon="6.92377">
        <ele>915</ele>
        <time>2009-02-11T11:57:50Z</time>
      </trkpt>
      <trkpt lat="43.68599" lon="6.92386">
        <ele>917</ele>
        <time>2009-02-11T11:57:59Z</time>
      </trkpt>
      <trkpt lat="43.68618" lon="6.92394">
        <ele>918</ele>
        <time>2009-02-11T11:58:07Z</time>
      </trkpt>
      <trkpt lat="43.68641" lon="6.92393">
        <ele>919</ele>
        <time>2009-02-11T11:58:14Z</time>
      </trkpt>
      <trkpt lat="43.68644" lon="6.92392">
        <ele>919</ele>
        <time>2009-02-11T11:58:15Z</time>
      </trkpt>
      <trkpt lat="43.6865" lon="6.92373">
        <ele>919</ele>
        <time>2009-02-11T11:58:20Z</time>
      </trkpt>
      <trkpt lat="43.68649" lon="6.9236">
        <ele>919</ele>
        <time>2009-02-11T11:58:25Z</time>
      </trkpt>
      <trkpt lat="43.68654" lon="6.92356">
        <ele>919</ele>
        <time>2009-02-11T11:58:29Z</time>
      </trkpt>
      <trkpt lat="43.6867" lon="6.9235">
        <ele>919</ele>
        <time>2009-02-11T11:58:34Z</time>
      </trkpt>
      <trkpt lat="43.68682" lon="6.92328">
        <ele>919</ele>
        <time>2009-02-11T11:58:40Z</time>
      </trkpt>
      <trkpt lat="43.68689" lon="6.92313">
        <ele>919</ele>
        <time>2009-02-11T11:58:45Z</time>
      </trkpt>
      <trkpt lat="43.68699" lon="6.9229">
        <ele>920</ele>
        <time>2009-02-11T11:58:52Z</time>
      </trkpt>
      <trkpt lat="43.68708" lon="6.92265">
        <ele>922</ele>
        <time>2009-02-11T11:58:59Z</time>
      </trkpt>
      <trkpt lat="43.68713" lon="6.92244">
        <ele>924</ele>
        <time>2009-02-11T11:59:05Z</time>
      </trkpt>
      <trkpt lat="43.68724" lon="6.92219">
        <ele>928</ele>
        <time>2009-02-11T11:59:13Z</time>
      </trkpt>
      <trkpt lat="43.68734" lon="6.92194">
        <ele>930</ele>
        <time>2009-02-11T11:59:20Z</time>
      </trkpt>
      <trkpt lat="43.68742" lon="6.92177">
        <ele>933</ele>
        <time>2009-02-11T11:59:25Z</time>
      </trkpt>
      <trkpt lat="43.6875" lon="6.92159">
        <ele>935</ele>
        <time>2009-02-11T11:59:31Z</time>
      </trkpt>
      <trkpt lat="43.68759" lon="6.92137">
        <ele>938</ele>
        <time>2009-02-11T11:59:38Z</time>
      </trkpt>
      <trkpt lat="43.68766" lon="6.92124">
        <ele>939</ele>
        <time>2009-02-11T11:59:43Z</time>
      </trkpt>
      <trkpt lat="43.68778" lon="6.92105">
        <ele>940</ele>
        <time>2009-02-11T11:59:50Z</time>
      </trkpt>
      <trkpt lat="43.68789" lon="6.92084">
        <ele>940</ele>
        <time>2009-02-11T11:59:56Z</time>
      </trkpt>
      <trkpt lat="43.68797" lon="6.92064">
        <ele>940</ele>
        <time>2009-02-11T12:00:02Z</time>
      </trkpt>
      <trkpt lat="43.68804" lon="6.92045">
        <ele>940</ele>
        <time>2009-02-11T12:00:08Z</time>
      </trkpt>
      <trkpt lat="43.68811" lon="6.92027">
        <ele>941</ele>
        <time>2009-02-11T12:00:14Z</time>
      </trkpt>
      <trkpt lat="43.68824" lon="6.92006">
        <ele>941</ele>
        <time>2009-02-11T12:00:22Z</time>
      </trkpt>
      <trkpt lat="43.68837" lon="6.91989">
        <ele>941</ele>
        <time>2009-02-11T12:00:29Z</time>
      </trkpt>
      <trkpt lat="43.68848" lon="6.91967">
        <ele>942</ele>
        <time>2009-02-11T12:00:36Z</time>
      </trkpt>
      <trkpt lat="43.68855" lon="6.91948">
        <ele>942</ele>
        <time>2009-02-11T12:00:42Z</time>
      </trkpt>
      <trkpt lat="43.68862" lon="6.91932">
        <ele>942</ele>
        <time>2009-02-11T12:00:47Z</time>
      </trkpt>
      <trkpt lat="43.68869" lon="6.91913">
        <ele>943</ele>
        <time>2009-02-11T12:00:53Z</time>
      </trkpt>
      <trkpt lat="43.68874" lon="6.91886">
        <ele>943</ele>
        <time>2009-02-11T12:01:00Z</time>
      </trkpt>
      <trkpt lat="43.68878" lon="6.91866">
        <ele>943</ele>
        <time>2009-02-11T12:01:06Z</time>
      </trkpt>
      <trkpt lat="43.68889" lon="6.91847">
        <ele>944</ele>
        <time>2009-02-11T12:01:12Z</time>
      </trkpt>
      <trkpt lat="43.68906" lon="6.91838">
        <ele>944</ele>
        <time>2009-02-11T12:01:19Z</time>
      </trkpt>
      <trkpt lat="43.68928" lon="6.91831">
        <ele>945</ele>
        <time>2009-02-11T12:01:28Z</time>
      </trkpt>
      <trkpt lat="43.68943" lon="6.9183">
        <ele>947</ele>
        <time>2009-02-11T12:01:34Z</time>
      </trkpt>
      <trkpt lat="43.68959" lon="6.91826">
        <ele>950</ele>
        <time>2009-02-11T12:01:41Z</time>
      </trkpt>
      <trkpt lat="43.6897" lon="6.91819">
        <ele>952</ele>
        <time>2009-02-11T12:01:47Z</time>
      </trkpt>
      <trkpt lat="43.6898" lon="6.91801">
        <ele>954</ele>
        <time>2009-02-11T12:01:55Z</time>
      </trkpt>
      <trkpt lat="43.68988" lon="6.91781">
        <ele>956</ele>
        <time>2009-02-11T12:02:03Z</time>
      </trkpt>
      <trkpt lat="43.68994" lon="6.91762">
        <ele>959</ele>
        <time>2009-02-11T12:02:12Z</time>
      </trkpt>
      <trkpt lat="43.68994" lon="6.9175">
        <ele>960</ele>
        <time>2009-02-11T12:02:17Z</time>
      </trkpt>
      <trkpt lat="43.68991" lon="6.91729">
        <ele>960</ele>
        <time>2009-02-11T12:02:24Z</time>
      </trkpt>
      <trkpt lat="43.68991" lon="6.917">
        <ele>961</ele>
        <time>2009-02-11T12:02:35Z</time>
      </trkpt>
      <trkpt lat="43.69001" lon="6.91677">
        <ele>964</ele>
        <time>2009-02-11T12:02:45Z</time>
      </trkpt>
      <trkpt lat="43.6902" lon="6.91664">
        <ele>967</ele>
        <time>2009-02-11T12:02:55Z</time>
      </trkpt>
      <trkpt lat="43.69039" lon="6.9165">
        <ele>969</ele>
        <time>2009-02-11T12:03:04Z</time>
      </trkpt>
      <trkpt lat="43.6905" lon="6.91628">
        <ele>971</ele>
        <time>2009-02-11T12:03:11Z</time>
      </trkpt>
      <trkpt lat="43.69059" lon="6.91605">
        <ele>973</ele>
        <time>2009-02-11T12:03:18Z</time>
      </trkpt>
      <trkpt lat="43.69062" lon="6.91585">
        <ele>975</ele>
        <time>2009-02-11T12:03:24Z</time>
      </trkpt>
      <trkpt lat="43.69064" lon="6.91562">
        <ele>976</ele>
        <time>2009-02-11T12:03:31Z</time>
      </trkpt>
      <trkpt lat="43.69064" lon="6.91536">
        <ele>977</ele>
        <time>2009-02-11T12:03:39Z</time>
      </trkpt>
      <trkpt lat="43.69064" lon="6.91517">
        <ele>977</ele>
        <time>2009-02-11T12:03:45Z</time>
      </trkpt>
      <trkpt lat="43.69053" lon="6.91501">
        <ele>977</ele>
        <time>2009-02-11T12:03:51Z</time>
      </trkpt>
      <trkpt lat="43.69037" lon="6.91492">
        <ele>977</ele>
        <time>2009-02-11T12:03:59Z</time>
      </trkpt>
      <trkpt lat="43.6902" lon="6.91481">
        <ele>978</ele>
        <time>2009-02-11T12:04:08Z</time>
      </trkpt>
      <trkpt lat="43.69009" lon="6.91469">
        <ele>978</ele>
        <time>2009-02-11T12:04:15Z</time>
      </trkpt>
      <trkpt lat="43.68999" lon="6.91457">
        <ele>979</ele>
        <time>2009-02-11T12:04:22Z</time>
      </trkpt>
      <trkpt lat="43.68988" lon="6.91448">
        <ele>979</ele>
        <time>2009-02-11T12:04:29Z</time>
      </trkpt>
      <trkpt lat="43.68977" lon="6.91443">
        <ele>979</ele>
        <time>2009-02-11T12:04:36Z</time>
      </trkpt>
      <trkpt lat="43.68965" lon="6.91436">
        <ele>979</ele>
        <time>2009-02-11T12:04:44Z</time>
      </trkpt>
      <trkpt lat="43.68954" lon="6.91423">
        <ele>979</ele>
        <time>2009-02-11T12:04:53Z</time>
      </trkpt>
      <trkpt lat="43.68945" lon="6.91412">
        <ele>980</ele>
        <time>2009-02-11T12:05:00Z</time>
      </trkpt>
      <trkpt lat="43.68936" lon="6.91402">
        <ele>982</ele>
        <time>2009-02-11T12:05:07Z</time>
      </trkpt>
      <trkpt lat="43.68924" lon="6.91386">
        <ele>983</ele>
        <time>2009-02-11T12:05:17Z</time>
      </trkpt>
      <trkpt lat="43.68915" lon="6.91369">
        <ele>990</ele>
        <time>2009-02-11T12:05:26Z</time>
      </trkpt>
      <trkpt lat="43.68908" lon="6.91354">
        <ele>994</ele>
        <time>2009-02-11T12:05:34Z</time>
      </trkpt>
      <trkpt lat="43.68905" lon="6.91339">
        <ele>997</ele>
        <time>2009-02-11T12:05:41Z</time>
      </trkpt>
      <trkpt lat="43.68903" lon="6.91325">
        <ele>1001</ele>
        <time>2009-02-11T12:05:47Z</time>
      </trkpt>
      <trkpt lat="43.68903" lon="6.9131">
        <ele>1004</ele>
        <time>2009-02-11T12:05:53Z</time>
      </trkpt>
      <trkpt lat="43.68906" lon="6.91296">
        <ele>1008</ele>
        <time>2009-02-11T12:05:59Z</time>
      </trkpt>
      <trkpt lat="43.68906" lon="6.91278">
        <ele>1011</ele>
        <time>2009-02-11T12:06:06Z</time>
      </trkpt>
      <trkpt lat="43.68905" lon="6.91261">
        <ele>1013</ele>
        <time>2009-02-11T12:06:12Z</time>
      </trkpt>
      <trkpt lat="43.689" lon="6.91241">
        <ele>1015</ele>
        <time>2009-02-11T12:06:19Z</time>
      </trkpt>
      <trkpt lat="43.68892" lon="6.91225">
        <ele>1017</ele>
        <time>2009-02-11T12:06:26Z</time>
      </trkpt>
      <trkpt lat="43.6888" lon="6.91204">
        <ele>1019</ele>
        <time>2009-02-11T12:06:34Z</time>
      </trkpt>
      <trkpt lat="43.68869" lon="6.91185">
        <ele>1021</ele>
        <time>2009-02-11T12:06:42Z</time>
      </trkpt>
      <trkpt lat="43.68855" lon="6.91175">
        <ele>1021</ele>
        <time>2009-02-11T12:06:49Z</time>
      </trkpt>
      <trkpt lat="43.68844" lon="6.9118">
        <ele>1019</ele>
        <time>2009-02-11T12:06:54Z</time>
      </trkpt>
      <trkpt lat="43.6884" lon="6.91197">
        <ele>1017</ele>
        <time>2009-02-11T12:06:59Z</time>
      </trkpt>
      <trkpt lat="43.68843" lon="6.91226">
        <ele>1011</ele>
        <time>2009-02-11T12:07:07Z</time>
      </trkpt>
      <trkpt lat="43.6884" lon="6.91236">
        <ele>1009</ele>
        <time>2009-02-11T12:07:10Z</time>
      </trkpt>
      <trkpt lat="43.6883" lon="6.91233">
        <ele>1008</ele>
        <time>2009-02-11T12:07:14Z</time>
      </trkpt>
      <trkpt lat="43.68826" lon="6.91225">
        <ele>1008</ele>
        <time>2009-02-11T12:07:17Z</time>
      </trkpt>
      <trkpt lat="43.68813" lon="6.91204">
        <ele>1009</ele>
        <time>2009-02-11T12:07:25Z</time>
      </trkpt>
      <trkpt lat="43.68801" lon="6.91188">
        <ele>1010</ele>
        <time>2009-02-11T12:07:32Z</time>
      </trkpt>
      <trkpt lat="43.68786" lon="6.91163">
        <ele>1011</ele>
        <time>2009-02-11T12:07:41Z</time>
      </trkpt>
      <trkpt lat="43.68778" lon="6.91142">
        <ele>1014</ele>
        <time>2009-02-11T12:07:48Z</time>
      </trkpt>
      <trkpt lat="43.68768" lon="6.91111">
        <ele>1016</ele>
        <time>2009-02-11T12:07:58Z</time>
      </trkpt>
      <trkpt lat="43.68759" lon="6.91086">
        <ele>1019</ele>
        <time>2009-02-11T12:08:06Z</time>
      </trkpt>
      <trkpt lat="43.68749" lon="6.91055">
        <ele>1022</ele>
        <time>2009-02-11T12:08:16Z</time>
      </trkpt>
      <trkpt lat="43.68739" lon="6.91026">
        <ele>1024</ele>
        <time>2009-02-11T12:08:25Z</time>
      </trkpt>
      <trkpt lat="43.68729" lon="6.90995">
        <ele>1026</ele>
        <time>2009-02-11T12:08:35Z</time>
      </trkpt>
      <trkpt lat="43.68724" lon="6.90977">
        <ele>1027</ele>
        <time>2009-02-11T12:08:42Z</time>
      </trkpt>
      <trkpt lat="43.68722" lon="6.90963">
        <ele>1028</ele>
        <time>2009-02-11T12:08:48Z</time>
      </trkpt>
      <trkpt lat="43.68718" lon="6.90938">
        <ele>1029</ele>
        <time>2009-02-11T12:08:57Z</time>
      </trkpt>
      <trkpt lat="43.68718" lon="6.90919">
        <ele>1032</ele>
        <time>2009-02-11T12:09:05Z</time>
      </trkpt>
      <trkpt lat="43.68719" lon="6.90898">
        <ele>1034</ele>
        <time>2009-02-11T12:09:13Z</time>
      </trkpt>
      <trkpt lat="43.6872" lon="6.90895">
        <ele>1034</ele>
        <time>2009-02-11T12:09:14Z</time>
      </trkpt>
      <trkpt lat="43.68718" lon="6.90883">
        <ele>1035</ele>
        <time>2009-02-11T12:09:19Z</time>
      </trkpt>
      <trkpt lat="43.68713" lon="6.90861">
        <ele>1036</ele>
        <time>2009-02-11T12:09:28Z</time>
      </trkpt>
      <trkpt lat="43.68704" lon="6.90837">
        <ele>1037</ele>
        <time>2009-02-11T12:09:37Z</time>
      </trkpt>
      <trkpt lat="43.68691" lon="6.90808">
        <ele>1038</ele>
        <time>2009-02-11T12:09:48Z</time>
      </trkpt>
      <trkpt lat="43.68684" lon="6.90776">
        <ele>1038</ele>
        <time>2009-02-11T12:09:57Z</time>
      </trkpt>
      <trkpt lat="43.68682" lon="6.90755">
        <ele>1037</ele>
        <time>2009-02-11T12:10:03Z</time>
      </trkpt>
      <trkpt lat="43.68688" lon="6.90739">
        <ele>1038</ele>
        <time>2009-02-11T12:10:09Z</time>
      </trkpt>
      <trkpt lat="43.687" lon="6.90729">
        <ele>1041</ele>
        <time>2009-02-11T12:10:16Z</time>
      </trkpt>
      <trkpt lat="43.68719" lon="6.90726">
        <ele>1044</ele>
        <time>2009-02-11T12:10:25Z</time>
      </trkpt>
      <trkpt lat="43.68733" lon="6.90727">
        <ele>1047</ele>
        <time>2009-02-11T12:10:32Z</time>
      </trkpt>
      <trkpt lat="43.68748" lon="6.90725">
        <ele>1049</ele>
        <time>2009-02-11T12:10:41Z</time>
      </trkpt>
      <trkpt lat="43.6876" lon="6.90724">
        <ele>1052</ele>
        <time>2009-02-11T12:10:48Z</time>
      </trkpt>
      <trkpt lat="43.68774" lon="6.90725">
        <ele>1055</ele>
        <time>2009-02-11T12:10:56Z</time>
      </trkpt>
      <trkpt lat="43.68787" lon="6.90724">
        <ele>1058</ele>
        <time>2009-02-11T12:11:04Z</time>
      </trkpt>
      <trkpt lat="43.688" lon="6.90726">
        <ele>1060</ele>
        <time>2009-02-11T12:11:12Z</time>
      </trkpt>
      <trkpt lat="43.68812" lon="6.90732">
        <ele>1062</ele>
        <time>2009-02-11T12:11:19Z</time>
      </trkpt>
      <trkpt lat="43.68827" lon="6.90739">
        <ele>1064</ele>
        <time>2009-02-11T12:11:28Z</time>
      </trkpt>
      <trkpt lat="43.68836" lon="6.90743">
        <ele>1066</ele>
        <time>2009-02-11T12:11:34Z</time>
      </trkpt>
      <trkpt lat="43.6885" lon="6.90743">
        <ele>1068</ele>
        <time>2009-02-11T12:11:42Z</time>
      </trkpt>
      <trkpt lat="43.68862" lon="6.90742">
        <ele>1071</ele>
        <time>2009-02-11T12:11:49Z</time>
      </trkpt>
      <trkpt lat="43.6888" lon="6.90748">
        <ele>1073</ele>
        <time>2009-02-11T12:11:59Z</time>
      </trkpt>
      <trkpt lat="43.68891" lon="6.9076">
        <ele>1073</ele>
        <time>2009-02-11T12:12:06Z</time>
      </trkpt>
      <trkpt lat="43.689" lon="6.90775">
        <ele>1072</ele>
        <time>2009-02-11T12:12:13Z</time>
      </trkpt>
      <trkpt lat="43.68905" lon="6.90777">
        <ele>1073</ele>
        <time>2009-02-11T12:12:16Z</time>
      </trkpt>
      <trkpt lat="43.68909" lon="6.90767">
        <ele>1075</ele>
        <time>2009-02-11T12:12:21Z</time>
      </trkpt>
      <trkpt lat="43.68906" lon="6.90756">
        <ele>1076</ele>
        <time>2009-02-11T12:12:25Z</time>
      </trkpt>
      <trkpt lat="43.689" lon="6.90735">
        <ele>1078</ele>
        <time>2009-02-11T12:12:33Z</time>
      </trkpt>
      <trkpt lat="43.68898" lon="6.90717">
        <ele>1079</ele>
        <time>2009-02-11T12:12:40Z</time>
      </trkpt>
      <trkpt lat="43.68899" lon="6.90698">
        <ele>1081</ele>
        <time>2009-02-11T12:12:48Z</time>
      </trkpt>
      <trkpt lat="43.689" lon="6.90678">
        <ele>1083</ele>
        <time>2009-02-11T12:12:57Z</time>
      </trkpt>
      <trkpt lat="43.68901" lon="6.9066">
        <ele>1084</ele>
        <time>2009-02-11T12:13:05Z</time>
      </trkpt>
      <trkpt lat="43.689" lon="6.90646">
        <ele>1083</ele>
        <time>2009-02-11T12:13:11Z</time>
      </trkpt>
      <trkpt lat="43.689" lon="6.90626">
        <ele>1083</ele>
        <time>2009-02-11T12:13:19Z</time>
      </trkpt>
      <trkpt lat="43.68902" lon="6.90602">
        <ele>1083</ele>
        <time>2009-02-11T12:13:30Z</time>
      </trkpt>
      <trkpt lat="43.68903" lon="6.90581">
        <ele>1084</ele>
        <time>2009-02-11T12:13:39Z</time>
      </trkpt>
      <trkpt lat="43.68903" lon="6.90558">
        <ele>1085</ele>
        <time>2009-02-11T12:13:49Z</time>
      </trkpt>
      <trkpt lat="43.68902" lon="6.90537">
        <ele>1085</ele>
        <time>2009-02-11T12:13:58Z</time>
      </trkpt>
      <trkpt lat="43.68899" lon="6.90519">
        <ele>1085</ele>
        <time>2009-02-11T12:14:06Z</time>
      </trkpt>
      <trkpt lat="43.68893" lon="6.90504">
        <ele>1083</ele>
        <time>2009-02-11T12:14:13Z</time>
      </trkpt>
      <trkpt lat="43.68887" lon="6.90489">
        <ele>1082</ele>
        <time>2009-02-11T12:14:20Z</time>
      </trkpt>
      <trkpt lat="43.68884" lon="6.90469">
        <ele>1084</ele>
        <time>2009-02-11T12:14:29Z</time>
      </trkpt>
      <trkpt lat="43.68884" lon="6.90449">
        <ele>1087</ele>
        <time>2009-02-11T12:14:37Z</time>
      </trkpt>
      <trkpt lat="43.68888" lon="6.90433">
        <ele>1091</ele>
        <time>2009-02-11T12:14:44Z</time>
      </trkpt>
      <trkpt lat="43.68894" lon="6.90414">
        <ele>1097</ele>
        <time>2009-02-11T12:14:52Z</time>
      </trkpt>
      <trkpt lat="43.689" lon="6.90391">
        <ele>1103</ele>
        <time>2009-02-11T12:15:02Z</time>
      </trkpt>
      <trkpt lat="43.68905" lon="6.90368">
        <ele>1112</ele>
        <time>2009-02-11T12:15:11Z</time>
      </trkpt>
      <trkpt lat="43.68906" lon="6.90347">
        <ele>1117</ele>
        <time>2009-02-11T12:15:20Z</time>
      </trkpt>
      <trkpt lat="43.68906" lon="6.90328">
        <ele>1120</ele>
        <time>2009-02-11T12:15:28Z</time>
      </trkpt>
      <trkpt lat="43.68903" lon="6.90307">
        <ele>1121</ele>
        <time>2009-02-11T12:15:36Z</time>
      </trkpt>
      <trkpt lat="43.68903" lon="6.90291">
        <ele>1122</ele>
        <time>2009-02-11T12:15:42Z</time>
      </trkpt>
      <trkpt lat="43.68904" lon="6.90271">
        <ele>1123</ele>
        <time>2009-02-11T12:15:50Z</time>
      </trkpt>
      <trkpt lat="43.68909" lon="6.90254">
        <ele>1124</ele>
        <time>2009-02-11T12:15:58Z</time>
      </trkpt>
      <trkpt lat="43.68917" lon="6.90235">
        <ele>1124</ele>
        <time>2009-02-11T12:16:07Z</time>
      </trkpt>
      <trkpt lat="43.68924" lon="6.90221">
        <ele>1125</ele>
        <time>2009-02-11T12:16:15Z</time>
      </trkpt>
      <trkpt lat="43.6893" lon="6.90207">
        <ele>1126</ele>
        <time>2009-02-11T12:16:23Z</time>
      </trkpt>
      <trkpt lat="43.68938" lon="6.90191">
        <ele>1127</ele>
        <time>2009-02-11T12:16:32Z</time>
      </trkpt>
      <trkpt lat="43.68945" lon="6.90181">
        <ele>1129</ele>
        <time>2009-02-11T12:16:38Z</time>
      </trkpt>
      <trkpt lat="43.68952" lon="6.90164">
        <ele>1129</ele>
        <time>2009-02-11T12:16:47Z</time>
      </trkpt>
      <trkpt lat="43.68957" lon="6.90154">
        <ele>1130</ele>
        <time>2009-02-11T12:16:52Z</time>
      </trkpt>
      <trkpt lat="43.68964" lon="6.90142">
        <ele>1131</ele>
        <time>2009-02-11T12:16:59Z</time>
      </trkpt>
      <trkpt lat="43.68972" lon="6.90127">
        <ele>1133</ele>
        <time>2009-02-11T12:17:08Z</time>
      </trkpt>
      <trkpt lat="43.68981" lon="6.90112">
        <ele>1136</ele>
        <time>2009-02-11T12:17:17Z</time>
      </trkpt>
      <trkpt lat="43.68986" lon="6.90098">
        <ele>1137</ele>
        <time>2009-02-11T12:17:24Z</time>
      </trkpt>
      <trkpt lat="43.68991" lon="6.90082">
        <ele>1138</ele>
        <time>2009-02-11T12:17:32Z</time>
      </trkpt>
      <trkpt lat="43.68992" lon="6.90063">
        <ele>1139</ele>
        <time>2009-02-11T12:17:41Z</time>
      </trkpt>
      <trkpt lat="43.68992" lon="6.90046">
        <ele>1138</ele>
        <time>2009-02-11T12:17:49Z</time>
      </trkpt>
      <trkpt lat="43.68991" lon="6.90031">
        <ele>1138</ele>
        <time>2009-02-11T12:17:56Z</time>
      </trkpt>
      <trkpt lat="43.68991" lon="6.90012">
        <ele>1137</ele>
        <time>2009-02-11T12:18:05Z</time>
      </trkpt>
      <trkpt lat="43.68996" lon="6.89995">
        <ele>1138</ele>
        <time>2009-02-11T12:18:14Z</time>
      </trkpt>
      <trkpt lat="43.69001" lon="6.89977">
        <ele>1140</ele>
        <time>2009-02-11T12:18:22Z</time>
      </trkpt>
      <trkpt lat="43.69006" lon="6.89957">
        <ele>1141</ele>
        <time>2009-02-11T12:18:31Z</time>
      </trkpt>
      <trkpt lat="43.69009" lon="6.8994">
        <ele>1141</ele>
        <time>2009-02-11T12:18:39Z</time>
      </trkpt>
      <trkpt lat="43.69014" lon="6.89919">
        <ele>1142</ele>
        <time>2009-02-11T12:18:49Z</time>
      </trkpt>
      <trkpt lat="43.69021" lon="6.89896">
        <ele>1142</ele>
        <time>2009-02-11T12:19:00Z</time>
      </trkpt>
      <trkpt lat="43.69029" lon="6.89882">
        <ele>1144</ele>
        <time>2009-02-11T12:19:08Z</time>
      </trkpt>
      <trkpt lat="43.6904" lon="6.8986">
        <ele>1145</ele>
        <time>2009-02-11T12:19:19Z</time>
      </trkpt>
      <trkpt lat="43.69047" lon="6.89845">
        <ele>1145</ele>
        <time>2009-02-11T12:19:27Z</time>
      </trkpt>
      <trkpt lat="43.69051" lon="6.89826">
        <ele>1144</ele>
        <time>2009-02-11T12:19:35Z</time>
      </trkpt>
      <trkpt lat="43.69054" lon="6.89814">
        <ele>1144</ele>
        <time>2009-02-11T12:19:40Z</time>
      </trkpt>
      <trkpt lat="43.69061" lon="6.89814">
        <ele>1145</ele>
        <time>2009-02-11T12:19:45Z</time>
      </trkpt>
      <trkpt lat="43.69066" lon="6.89828">
        <ele>1147</ele>
        <time>2009-02-11T12:19:51Z</time>
      </trkpt>
      <trkpt lat="43.69069" lon="6.89854">
        <ele>1150</ele>
        <time>2009-02-11T12:19:59Z</time>
      </trkpt>
      <trkpt lat="43.69077" lon="6.89872">
        <ele>1153</ele>
        <time>2009-02-11T12:20:06Z</time>
      </trkpt>
      <trkpt lat="43.69088" lon="6.89879">
        <ele>1156</ele>
        <time>2009-02-11T12:20:12Z</time>
      </trkpt>
      <trkpt lat="43.69109" lon="6.89878">
        <ele>1160</ele>
        <time>2009-02-11T12:20:22Z</time>
      </trkpt>
      <trkpt lat="43.6912" lon="6.89868">
        <ele>1162</ele>
        <time>2009-02-11T12:20:28Z</time>
      </trkpt>
      <trkpt lat="43.69128" lon="6.89848">
        <ele>1162</ele>
        <time>2009-02-11T12:20:36Z</time>
      </trkpt>
      <trkpt lat="43.69127" lon="6.89824">
        <ele>1159</ele>
        <time>2009-02-11T12:20:45Z</time>
      </trkpt>
      <trkpt lat="43.6913" lon="6.898">
        <ele>1158</ele>
        <time>2009-02-11T12:20:54Z</time>
      </trkpt>
      <trkpt lat="43.69138" lon="6.89782">
        <ele>1159</ele>
        <time>2009-02-11T12:21:02Z</time>
      </trkpt>
      <trkpt lat="43.69147" lon="6.8977">
        <ele>1160</ele>
        <time>2009-02-11T12:21:09Z</time>
      </trkpt>
      <trkpt lat="43.6916" lon="6.89758">
        <ele>1162</ele>
        <time>2009-02-11T12:21:18Z</time>
      </trkpt>
      <trkpt lat="43.6917" lon="6.89747">
        <ele>1163</ele>
        <time>2009-02-11T12:21:26Z</time>
      </trkpt>
      <trkpt lat="43.69176" lon="6.89735">
        <ele>1163</ele>
        <time>2009-02-11T12:21:33Z</time>
      </trkpt>
      <trkpt lat="43.69178" lon="6.89734">
        <ele>1163</ele>
        <time>2009-02-11T12:21:34Z</time>
      </trkpt>
      <trkpt lat="43.69184" lon="6.89711">
        <ele>1163</ele>
        <time>2009-02-11T12:21:45Z</time>
      </trkpt>
      <trkpt lat="43.69187" lon="6.89692">
        <ele>1162</ele>
        <time>2009-02-11T12:21:53Z</time>
      </trkpt>
      <trkpt lat="43.6919" lon="6.89676">
        <ele>1160</ele>
        <time>2009-02-11T12:22:00Z</time>
      </trkpt>
      <trkpt lat="43.69192" lon="6.89661">
        <ele>1158</ele>
        <time>2009-02-11T12:22:07Z</time>
      </trkpt>
      <trkpt lat="43.69196" lon="6.89644">
        <ele>1156</ele>
        <time>2009-02-11T12:22:14Z</time>
      </trkpt>
      <trkpt lat="43.69199" lon="6.89641">
        <ele>1156</ele>
        <time>2009-02-11T12:22:16Z</time>
      </trkpt>
      <trkpt lat="43.69207" lon="6.89646">
        <ele>1159</ele>
        <time>2009-02-11T12:22:21Z</time>
      </trkpt>
      <trkpt lat="43.69209" lon="6.89652">
        <ele>1161</ele>
        <time>2009-02-11T12:22:23Z</time>
      </trkpt>
      <trkpt lat="43.69215" lon="6.89679">
        <ele>1167</ele>
        <time>2009-02-11T12:22:32Z</time>
      </trkpt>
      <trkpt lat="43.69222" lon="6.897">
        <ele>1172</ele>
        <time>2009-02-11T12:22:39Z</time>
      </trkpt>
      <trkpt lat="43.69232" lon="6.89712">
        <ele>1176</ele>
        <time>2009-02-11T12:22:46Z</time>
      </trkpt>
      <trkpt lat="43.69235" lon="6.89715">
        <ele>1177</ele>
        <time>2009-02-11T12:22:48Z</time>
      </trkpt>
      <trkpt lat="43.69239" lon="6.89706">
        <ele>1178</ele>
        <time>2009-02-11T12:22:53Z</time>
      </trkpt>
      <trkpt lat="43.6924" lon="6.89703">
        <ele>1178</ele>
        <time>2009-02-11T12:22:54Z</time>
      </trkpt>
      <trkpt lat="43.69242" lon="6.89677">
        <ele>1175</ele>
        <time>2009-02-11T12:23:02Z</time>
      </trkpt>
      <trkpt lat="43.69246" lon="6.89663">
        <ele>1174</ele>
        <time>2009-02-11T12:23:07Z</time>
      </trkpt>
      <trkpt lat="43.69248" lon="6.89653">
        <ele>1172</ele>
        <time>2009-02-11T12:23:13Z</time>
      </trkpt>
      <trkpt lat="43.6925" lon="6.89655">
        <ele>1174</ele>
        <time>2009-02-11T12:23:20Z</time>
      </trkpt>
      <trkpt lat="43.6925" lon="6.89662">
        <ele>1175</ele>
        <time>2009-02-11T12:23:26Z</time>
      </trkpt>
      <trkpt lat="43.69251" lon="6.89663">
        <ele>1175</ele>
        <time>2009-02-11T12:23:32Z</time>
      </trkpt>
      <trkpt lat="43.69251" lon="6.89664">
        <ele>1175</ele>
        <time>2009-02-11T12:23:42Z</time>
      </trkpt>
      <trkpt lat="43.69251" lon="6.89663">
        <ele>1175</ele>
        <time>2009-02-11T12:23:49Z</time>
      </trkpt>
      <trkpt lat="43.69252" lon="6.89663">
        <ele>1175</ele>
        <time>2009-02-11T12:23:57Z</time>
      </trkpt>
      <trkpt lat="43.69252" lon="6.89664">
        <ele>1175</ele>
        <time>2009-02-11T12:24:13Z</time>
      </trkpt>
      <trkpt lat="43.69251" lon="6.89661">
        <ele>1175</ele>
        <time>2009-02-11T12:24:19Z</time>
      </trkpt>
      <trkpt lat="43.69252" lon="6.89656">
        <ele>1174</ele>
        <time>2009-02-11T12:24:25Z</time>
      </trkpt>
      <trkpt lat="43.69253" lon="6.89656">
        <ele>1174</ele>
        <time>2009-02-11T12:24:32Z</time>
      </trkpt>
      <trkpt lat="43.69252" lon="6.89657">
        <ele>1174</ele>
        <time>2009-02-11T12:24:37Z</time>
      </trkpt>
      <trkpt lat="43.69252" lon="6.89657">
        <ele>1174</ele>
        <time>2009-02-11T12:24:52Z</time>
      </trkpt>
      <trkpt lat="43.69252" lon="6.89658">
        <ele>1174</ele>
        <time>2009-02-11T12:25:00Z</time>
      </trkpt>
      <trkpt lat="43.69252" lon="6.89664">
        <ele>1176</ele>
        <time>2009-02-11T12:25:05Z</time>
      </trkpt>
      <trkpt lat="43.69253" lon="6.89664">
        <ele>1176</ele>
        <time>2009-02-11T12:25:11Z</time>
      </trkpt>
      <trkpt lat="43.69267" lon="6.89644">
        <ele>1177</ele>
        <time>2009-02-11T12:43:58Z</time>
      </trkpt>
      <trkpt lat="43.69268" lon="6.89643">
        <ele>1177</ele>
        <time>2009-02-11T12:44:01Z</time>
      </trkpt>
      <trkpt lat="43.69276" lon="6.89634">
        <ele>1179</ele>
        <time>2009-02-11T12:44:07Z</time>
      </trkpt>
      <trkpt lat="43.69285" lon="6.8963">
        <ele>1183</ele>
        <time>2009-02-11T12:44:12Z</time>
      </trkpt>
      <trkpt lat="43.69293" lon="6.89626">
        <ele>1186</ele>
        <time>2009-02-11T12:44:18Z</time>
      </trkpt>
      <trkpt lat="43.69295" lon="6.89625">
        <ele>1187</ele>
        <time>2009-02-11T12:44:19Z</time>
      </trkpt>
      <trkpt lat="43.69296" lon="6.89624">
        <ele>1188</ele>
        <time>2009-02-11T12:44:25Z</time>
      </trkpt>
      <trkpt lat="43.69298" lon="6.89623">
        <ele>1189</ele>
        <time>2009-02-11T12:44:31Z</time>
      </trkpt>
      <trkpt lat="43.693" lon="6.89621">
        <ele>1189</ele>
        <time>2009-02-11T12:44:35Z</time>
      </trkpt>
      <trkpt lat="43.69311" lon="6.89615">
        <ele>1193</ele>
        <time>2009-02-11T12:44:42Z</time>
      </trkpt>
      <trkpt lat="43.6932" lon="6.89612">
        <ele>1196</ele>
        <time>2009-02-11T12:44:47Z</time>
      </trkpt>
      <trkpt lat="43.69334" lon="6.89608">
        <ele>1201</ele>
        <time>2009-02-11T12:44:55Z</time>
      </trkpt>
      <trkpt lat="43.69346" lon="6.8961">
        <ele>1203</ele>
        <time>2009-02-11T12:45:02Z</time>
      </trkpt>
      <trkpt lat="43.69355" lon="6.89611">
        <ele>1205</ele>
        <time>2009-02-11T12:45:08Z</time>
      </trkpt>
      <trkpt lat="43.69357" lon="6.89612">
        <ele>1205</ele>
        <time>2009-02-11T12:45:10Z</time>
      </trkpt>
      <trkpt lat="43.69355" lon="6.89611">
        <ele>1205</ele>
        <time>2009-02-11T12:45:20Z</time>
      </trkpt>
      <trkpt lat="43.69352" lon="6.8961">
        <ele>1204</ele>
        <time>2009-02-11T12:45:22Z</time>
      </trkpt>
      <trkpt lat="43.6935" lon="6.89607">
        <ele>1204</ele>
        <time>2009-02-11T12:45:24Z</time>
      </trkpt>
      <trkpt lat="43.6935" lon="6.89602">
        <ele>1203</ele>
        <time>2009-02-11T12:45:30Z</time>
      </trkpt>
      <trkpt lat="43.69353" lon="6.89598">
        <ele>1203</ele>
        <time>2009-02-11T12:45:35Z</time>
      </trkpt>
      <trkpt lat="43.69358" lon="6.89597">
        <ele>1204</ele>
        <time>2009-02-11T12:45:38Z</time>
      </trkpt>
      <trkpt lat="43.69361" lon="6.89585">
        <ele>1204</ele>
        <time>2009-02-11T12:45:44Z</time>
      </trkpt>
      <trkpt lat="43.69362" lon="6.89578">
        <ele>1203</ele>
        <time>2009-02-11T12:45:47Z</time>
      </trkpt>
      <trkpt lat="43.69367" lon="6.89564">
        <ele>1203</ele>
        <time>2009-02-11T12:45:54Z</time>
      </trkpt>
      <trkpt lat="43.69368" lon="6.8956">
        <ele>1203</ele>
        <time>2009-02-11T12:45:56Z</time>
      </trkpt>
      <trkpt lat="43.6937" lon="6.89553">
        <ele>1203</ele>
        <time>2009-02-11T12:46:03Z</time>
      </trkpt>
      <trkpt lat="43.69368" lon="6.8955">
        <ele>1202</ele>
        <time>2009-02-11T12:46:09Z</time>
      </trkpt>
      <trkpt lat="43.69369" lon="6.89544">
        <ele>1202</ele>
        <time>2009-02-11T12:46:14Z</time>
      </trkpt>
      <trkpt lat="43.69369" lon="6.89541">
        <ele>1202</ele>
        <time>2009-02-11T12:46:20Z</time>
      </trkpt>
      <trkpt lat="43.69372" lon="6.89535">
        <ele>1202</ele>
        <time>2009-02-11T12:46:26Z</time>
      </trkpt>
      <trkpt lat="43.69377" lon="6.89529">
        <ele>1202</ele>
        <time>2009-02-11T12:46:32Z</time>
      </trkpt>
      <trkpt lat="43.69379" lon="6.89525">
        <ele>1203</ele>
        <time>2009-02-11T12:46:37Z</time>
      </trkpt>
      <trkpt lat="43.69383" lon="6.89526">
        <ele>1203</ele>
        <time>2009-02-11T12:46:43Z</time>
      </trkpt>
      <trkpt lat="43.69388" lon="6.89518">
        <ele>1204</ele>
        <time>2009-02-11T12:46:51Z</time>
      </trkpt>
      <trkpt lat="43.69389" lon="6.89513">
        <ele>1203</ele>
        <time>2009-02-11T12:46:56Z</time>
      </trkpt>
      <trkpt lat="43.69389" lon="6.89511">
        <ele>1203</ele>
        <time>2009-02-11T12:46:57Z</time>
      </trkpt>
      <trkpt lat="43.69393" lon="6.89502">
        <ele>1204</ele>
        <time>2009-02-11T12:47:03Z</time>
      </trkpt>
      <trkpt lat="43.69394" lon="6.895">
        <ele>1204</ele>
        <time>2009-02-11T12:47:04Z</time>
      </trkpt>
      <trkpt lat="43.69398" lon="6.89484">
        <ele>1203</ele>
        <time>2009-02-11T12:47:12Z</time>
      </trkpt>
      <trkpt lat="43.69399" lon="6.89481">
        <ele>1203</ele>
        <time>2009-02-11T12:47:17Z</time>
      </trkpt>
      <trkpt lat="43.69407" lon="6.89481">
        <ele>1204</ele>
        <time>2009-02-11T12:47:24Z</time>
      </trkpt>
      <trkpt lat="43.6941" lon="6.89478">
        <ele>1205</ele>
        <time>2009-02-11T12:47:30Z</time>
      </trkpt>
      <trkpt lat="43.6941" lon="6.89475">
        <ele>1205</ele>
        <time>2009-02-11T12:47:32Z</time>
      </trkpt>
      <trkpt lat="43.69416" lon="6.89466">
        <ele>1205</ele>
        <time>2009-02-11T12:47:37Z</time>
      </trkpt>
      <trkpt lat="43.69419" lon="6.89452">
        <ele>1205</ele>
        <time>2009-02-11T12:47:44Z</time>
      </trkpt>
      <trkpt lat="43.69419" lon="6.89449">
        <ele>1205</ele>
        <time>2009-02-11T12:47:45Z</time>
      </trkpt>
      <trkpt lat="43.69421" lon="6.89431">
        <ele>1204</ele>
        <time>2009-02-11T12:47:52Z</time>
      </trkpt>
      <trkpt lat="43.69428" lon="6.89425">
        <ele>1205</ele>
        <time>2009-02-11T12:47:58Z</time>
      </trkpt>
      <trkpt lat="43.69429" lon="6.89422">
        <ele>1205</ele>
        <time>2009-02-11T12:48:02Z</time>
      </trkpt>
      <trkpt lat="43.69429" lon="6.89412">
        <ele>1204</ele>
        <time>2009-02-11T12:48:08Z</time>
      </trkpt>
      <trkpt lat="43.69433" lon="6.89402">
        <ele>1204</ele>
        <time>2009-02-11T12:48:14Z</time>
      </trkpt>
      <trkpt lat="43.69442" lon="6.8939">
        <ele>1205</ele>
        <time>2009-02-11T12:48:19Z</time>
      </trkpt>
      <trkpt lat="43.69448" lon="6.89365">
        <ele>1206</ele>
        <time>2009-02-11T12:48:27Z</time>
      </trkpt>
      <trkpt lat="43.69452" lon="6.89351">
        <ele>1207</ele>
        <time>2009-02-11T12:48:33Z</time>
      </trkpt>
      <trkpt lat="43.69455" lon="6.89346">
        <ele>1208</ele>
        <time>2009-02-11T12:48:36Z</time>
      </trkpt>
      <trkpt lat="43.69457" lon="6.89334">
        <ele>1207</ele>
        <time>2009-02-11T12:48:43Z</time>
      </trkpt>
      <trkpt lat="43.69458" lon="6.89332">
        <ele>1207</ele>
        <time>2009-02-11T12:48:46Z</time>
      </trkpt>
      <trkpt lat="43.69461" lon="6.89321">
        <ele>1206</ele>
        <time>2009-02-11T12:48:51Z</time>
      </trkpt>
      <trkpt lat="43.69467" lon="6.89304">
        <ele>1205</ele>
        <time>2009-02-11T12:48:57Z</time>
      </trkpt>
      <trkpt lat="43.69471" lon="6.89278">
        <ele>1196</ele>
        <time>2009-02-11T12:49:05Z</time>
      </trkpt>
      <trkpt lat="43.69476" lon="6.89258">
        <ele>1194</ele>
        <time>2009-02-11T12:49:11Z</time>
      </trkpt>
      <trkpt lat="43.69481" lon="6.89238">
        <ele>1192</ele>
        <time>2009-02-11T12:49:17Z</time>
      </trkpt>
      <trkpt lat="43.69489" lon="6.89214">
        <ele>1190</ele>
        <time>2009-02-11T12:49:24Z</time>
      </trkpt>
      <trkpt lat="43.69493" lon="6.89202">
        <ele>1189</ele>
        <time>2009-02-11T12:49:27Z</time>
      </trkpt>
      <trkpt lat="43.69503" lon="6.89187">
        <ele>1188</ele>
        <time>2009-02-11T12:49:32Z</time>
      </trkpt>
      <trkpt lat="43.69511" lon="6.89182">
        <ele>1190</ele>
        <time>2009-02-11T12:49:35Z</time>
      </trkpt>
      <trkpt lat="43.69526" lon="6.89171">
        <ele>1191</ele>
        <time>2009-02-11T12:49:42Z</time>
      </trkpt>
      <trkpt lat="43.69539" lon="6.89163">
        <ele>1193</ele>
        <time>2009-02-11T12:49:47Z</time>
      </trkpt>
      <trkpt lat="43.69557" lon="6.8916">
        <ele>1198</ele>
        <time>2009-02-11T12:49:53Z</time>
      </trkpt>
      <trkpt lat="43.69559" lon="6.8916">
        <ele>1198</ele>
        <time>2009-02-11T12:49:56Z</time>
      </trkpt>
      <trkpt lat="43.69559" lon="6.8916">
        <ele>1198</ele>
        <time>2009-02-11T12:50:02Z</time>
      </trkpt>
      <trkpt lat="43.69558" lon="6.8916">
        <ele>1198</ele>
        <time>2009-02-11T12:50:08Z</time>
      </trkpt>
      <trkpt lat="43.69558" lon="6.89161">
        <ele>1198</ele>
        <time>2009-02-11T12:50:20Z</time>
      </trkpt>
      <trkpt lat="43.69559" lon="6.8916">
        <ele>1198</ele>
        <time>2009-02-11T12:50:31Z</time>
      </trkpt>
      <trkpt lat="43.69559" lon="6.8916">
        <ele>1198</ele>
        <time>2009-02-11T12:50:40Z</time>
      </trkpt>
      <trkpt lat="43.69559" lon="6.8916">
        <ele>1198</ele>
        <time>2009-02-11T12:50:48Z</time>
      </trkpt>
      <trkpt lat="43.6957" lon="6.8915">
        <ele>1198</ele>
        <time>2009-02-11T12:50:53Z</time>
      </trkpt>
      <trkpt lat="43.69571" lon="6.89147">
        <ele>1198</ele>
        <time>2009-02-11T12:50:54Z</time>
      </trkpt>
      <trkpt lat="43.69576" lon="6.89131">
        <ele>1196</ele>
        <time>2009-02-11T12:50:59Z</time>
      </trkpt>
      <trkpt lat="43.69577" lon="6.89124">
        <ele>1194</ele>
        <time>2009-02-11T12:51:04Z</time>
      </trkpt>
      <trkpt lat="43.69584" lon="6.89109">
        <ele>1191</ele>
        <time>2009-02-11T12:51:09Z</time>
      </trkpt>
      <trkpt lat="43.69593" lon="6.891">
        <ele>1189</ele>
        <time>2009-02-11T12:51:14Z</time>
      </trkpt>
      <trkpt lat="43.69605" lon="6.89092">
        <ele>1188</ele>
        <time>2009-02-11T12:51:20Z</time>
      </trkpt>
      <trkpt lat="43.69602" lon="6.89083">
        <ele>1186</ele>
        <time>2009-02-11T12:51:25Z</time>
      </trkpt>
      <trkpt lat="43.69592" lon="6.8907">
        <ele>1183</ele>
        <time>2009-02-11T12:51:29Z</time>
      </trkpt>
      <trkpt lat="43.69586" lon="6.89053">
        <ele>1179</ele>
        <time>2009-02-11T12:51:35Z</time>
      </trkpt>
      <trkpt lat="43.6958" lon="6.89038">
        <ele>1172</ele>
        <time>2009-02-11T12:51:40Z</time>
      </trkpt>
      <trkpt lat="43.69579" lon="6.89033">
        <ele>1170</ele>
        <time>2009-02-11T12:51:42Z</time>
      </trkpt>
      <trkpt lat="43.69581" lon="6.89028">
        <ele>1169</ele>
        <time>2009-02-11T12:51:47Z</time>
      </trkpt>
      <trkpt lat="43.69583" lon="6.89024">
        <ele>1168</ele>
        <time>2009-02-11T12:51:52Z</time>
      </trkpt>
      <trkpt lat="43.69584" lon="6.89017">
        <ele>1167</ele>
        <time>2009-02-11T12:51:55Z</time>
      </trkpt>
      <trkpt lat="43.69587" lon="6.89006">
        <ele>1165</ele>
        <time>2009-02-11T12:52:02Z</time>
      </trkpt>
      <trkpt lat="43.69594" lon="6.88993">
        <ele>1163</ele>
        <time>2009-02-11T12:52:10Z</time>
      </trkpt>
      <trkpt lat="43.69596" lon="6.88988">
        <ele>1163</ele>
        <time>2009-02-11T12:52:13Z</time>
      </trkpt>
      <trkpt lat="43.69601" lon="6.88983">
        <ele>1162</ele>
        <time>2009-02-11T12:52:18Z</time>
      </trkpt>
      <trkpt lat="43.69601" lon="6.88974">
        <ele>1160</ele>
        <time>2009-02-11T12:52:25Z</time>
      </trkpt>
      <trkpt lat="43.69601" lon="6.88958">
        <ele>1157</ele>
        <time>2009-02-11T12:52:35Z</time>
      </trkpt>
      <trkpt lat="43.69605" lon="6.88946">
        <ele>1156</ele>
        <time>2009-02-11T12:52:43Z</time>
      </trkpt>
      <trkpt lat="43.69607" lon="6.88934">
        <ele>1155</ele>
        <time>2009-02-11T12:52:50Z</time>
      </trkpt>
      <trkpt lat="43.6961" lon="6.88927">
        <ele>1155</ele>
        <time>2009-02-11T12:52:56Z</time>
      </trkpt>
      <trkpt lat="43.69607" lon="6.88919">
        <ele>1153</ele>
        <time>2009-02-11T12:53:02Z</time>
      </trkpt>
      <trkpt lat="43.6961" lon="6.88908">
        <ele>1151</ele>
        <time>2009-02-11T12:53:10Z</time>
      </trkpt>
      <trkpt lat="43.69611" lon="6.88907">
        <ele>1151</ele>
        <time>2009-02-11T12:53:11Z</time>
      </trkpt>
      <trkpt lat="43.69616" lon="6.88899">
        <ele>1152</ele>
        <time>2009-02-11T12:53:17Z</time>
      </trkpt>
      <trkpt lat="43.6962" lon="6.88893">
        <ele>1152</ele>
        <time>2009-02-11T12:53:20Z</time>
      </trkpt>
      <trkpt lat="43.69632" lon="6.88877">
        <ele>1153</ele>
        <time>2009-02-11T12:53:28Z</time>
      </trkpt>
      <trkpt lat="43.69636" lon="6.88868">
        <ele>1153</ele>
        <time>2009-02-11T12:53:32Z</time>
      </trkpt>
      <trkpt lat="43.69647" lon="6.88862">
        <ele>1155</ele>
        <time>2009-02-11T12:53:38Z</time>
      </trkpt>
      <trkpt lat="43.69661" lon="6.8885">
        <ele>1157</ele>
        <time>2009-02-11T12:53:44Z</time>
      </trkpt>
      <trkpt lat="43.69666" lon="6.88833">
        <ele>1157</ele>
        <time>2009-02-11T12:53:49Z</time>
      </trkpt>
      <trkpt lat="43.69673" lon="6.88822">
        <ele>1158</ele>
        <time>2009-02-11T12:53:55Z</time>
      </trkpt>
      <trkpt lat="43.69678" lon="6.88811">
        <ele>1159</ele>
        <time>2009-02-11T12:54:00Z</time>
      </trkpt>
      <trkpt lat="43.6968" lon="6.88794">
        <ele>1157</ele>
        <time>2009-02-11T12:54:05Z</time>
      </trkpt>
      <trkpt lat="43.6968" lon="6.88782">
        <ele>1155</ele>
        <time>2009-02-11T12:54:09Z</time>
      </trkpt>
      <trkpt lat="43.69685" lon="6.8877">
        <ele>1156</ele>
        <time>2009-02-11T12:54:14Z</time>
      </trkpt>
      <trkpt lat="43.69688" lon="6.88758">
        <ele>1157</ele>
        <time>2009-02-11T12:54:19Z</time>
      </trkpt>
      <trkpt lat="43.69698" lon="6.88746">
        <ele>1161</ele>
        <time>2009-02-11T12:54:25Z</time>
      </trkpt>
      <trkpt lat="43.69702" lon="6.88731">
        <ele>1160</ele>
        <time>2009-02-11T12:54:31Z</time>
      </trkpt>
      <trkpt lat="43.69703" lon="6.88725">
        <ele>1160</ele>
        <time>2009-02-11T12:54:39Z</time>
      </trkpt>
      <trkpt lat="43.69708" lon="6.88716">
        <ele>1161</ele>
        <time>2009-02-11T12:54:46Z</time>
      </trkpt>
      <trkpt lat="43.69711" lon="6.88712">
        <ele>1162</ele>
        <time>2009-02-11T12:54:50Z</time>
      </trkpt>
      <trkpt lat="43.69716" lon="6.88705">
        <ele>1164</ele>
        <time>2009-02-11T12:54:57Z</time>
      </trkpt>
      <trkpt lat="43.69719" lon="6.88703">
        <ele>1165</ele>
        <time>2009-02-11T12:55:03Z</time>
      </trkpt>
      <trkpt lat="43.69727" lon="6.88698">
        <ele>1168</ele>
        <time>2009-02-11T12:55:08Z</time>
      </trkpt>
      <trkpt lat="43.69736" lon="6.88694">
        <ele>1173</ele>
        <time>2009-02-11T12:55:13Z</time>
      </trkpt>
      <trkpt lat="43.69745" lon="6.88682">
        <ele>1175</ele>
        <time>2009-02-11T12:55:20Z</time>
      </trkpt>
      <trkpt lat="43.69749" lon="6.88678">
        <ele>1176</ele>
        <time>2009-02-11T12:55:26Z</time>
      </trkpt>
      <trkpt lat="43.69751" lon="6.88674">
        <ele>1177</ele>
        <time>2009-02-11T12:55:29Z</time>
      </trkpt>
      <trkpt lat="43.69755" lon="6.88659">
        <ele>1177</ele>
        <time>2009-02-11T12:55:39Z</time>
      </trkpt>
      <trkpt lat="43.69758" lon="6.8865">
        <ele>1176</ele>
        <time>2009-02-11T12:55:47Z</time>
      </trkpt>
      <trkpt lat="43.69761" lon="6.88643">
        <ele>1176</ele>
        <time>2009-02-11T12:55:53Z</time>
      </trkpt>
      <trkpt lat="43.69765" lon="6.88635">
        <ele>1177</ele>
        <time>2009-02-11T12:56:00Z</time>
      </trkpt>
      <trkpt lat="43.69769" lon="6.88628">
        <ele>1179</ele>
        <time>2009-02-11T12:56:06Z</time>
      </trkpt>
      <trkpt lat="43.69773" lon="6.88616">
        <ele>1179</ele>
        <time>2009-02-11T12:56:14Z</time>
      </trkpt>
      <trkpt lat="43.69775" lon="6.88608">
        <ele>1180</ele>
        <time>2009-02-11T12:56:20Z</time>
      </trkpt>
      <trkpt lat="43.69776" lon="6.88607">
        <ele>1180</ele>
        <time>2009-02-11T12:56:27Z</time>
      </trkpt>
      <trkpt lat="43.6978" lon="6.886">
        <ele>1182</ele>
        <time>2009-02-11T12:56:32Z</time>
      </trkpt>
      <trkpt lat="43.6979" lon="6.88591">
        <ele>1186</ele>
        <time>2009-02-11T12:56:37Z</time>
      </trkpt>
      <trkpt lat="43.69802" lon="6.88587">
        <ele>1192</ele>
        <time>2009-02-11T12:56:42Z</time>
      </trkpt>
      <trkpt lat="43.69814" lon="6.88581">
        <ele>1194</ele>
        <time>2009-02-11T12:56:47Z</time>
      </trkpt>
      <trkpt lat="43.69827" lon="6.88573">
        <ele>1196</ele>
        <time>2009-02-11T12:56:53Z</time>
      </trkpt>
      <trkpt lat="43.69838" lon="6.88564">
        <ele>1198</ele>
        <time>2009-02-11T12:56:59Z</time>
      </trkpt>
      <trkpt lat="43.69847" lon="6.88556">
        <ele>1199</ele>
        <time>2009-02-11T12:57:04Z</time>
      </trkpt>
      <trkpt lat="43.69858" lon="6.88554">
        <ele>1202</ele>
        <time>2009-02-11T12:57:08Z</time>
      </trkpt>
      <trkpt lat="43.69871" lon="6.88552">
        <ele>1205</ele>
        <time>2009-02-11T12:57:15Z</time>
      </trkpt>
      <trkpt lat="43.69878" lon="6.88545">
        <ele>1206</ele>
        <time>2009-02-11T12:57:20Z</time>
      </trkpt>
      <trkpt lat="43.69881" lon="6.88541">
        <ele>1207</ele>
        <time>2009-02-11T12:57:25Z</time>
      </trkpt>
      <trkpt lat="43.69887" lon="6.88535">
        <ele>1209</ele>
        <time>2009-02-11T12:57:34Z</time>
      </trkpt>
      <trkpt lat="43.69887" lon="6.88532">
        <ele>1209</ele>
        <time>2009-02-11T12:57:40Z</time>
      </trkpt>
      <trkpt lat="43.69889" lon="6.88523">
        <ele>1209</ele>
        <time>2009-02-11T12:57:48Z</time>
      </trkpt>
      <trkpt lat="43.69891" lon="6.88514">
        <ele>1209</ele>
        <time>2009-02-11T12:57:55Z</time>
      </trkpt>
      <trkpt lat="43.69896" lon="6.8851">
        <ele>1210</ele>
        <time>2009-02-11T12:58:02Z</time>
      </trkpt>
      <trkpt lat="43.69902" lon="6.88504">
        <ele>1212</ele>
        <time>2009-02-11T12:58:10Z</time>
      </trkpt>
      <trkpt lat="43.69905" lon="6.88497">
        <ele>1212</ele>
        <time>2009-02-11T12:58:18Z</time>
      </trkpt>
      <trkpt lat="43.6991" lon="6.88491">
        <ele>1212</ele>
        <time>2009-02-11T12:58:25Z</time>
      </trkpt>
      <trkpt lat="43.69917" lon="6.88486">
        <ele>1213</ele>
        <time>2009-02-11T12:58:33Z</time>
      </trkpt>
      <trkpt lat="43.69922" lon="6.8848">
        <ele>1213</ele>
        <time>2009-02-11T12:58:40Z</time>
      </trkpt>
      <trkpt lat="43.69927" lon="6.88474">
        <ele>1214</ele>
        <time>2009-02-11T12:58:47Z</time>
      </trkpt>
      <trkpt lat="43.69935" lon="6.88466">
        <ele>1215</ele>
        <time>2009-02-11T12:58:55Z</time>
      </trkpt>
      <trkpt lat="43.69941" lon="6.88459">
        <ele>1217</ele>
        <time>2009-02-11T12:59:02Z</time>
      </trkpt>
      <trkpt lat="43.69942" lon="6.88458">
        <ele>1217</ele>
        <time>2009-02-11T12:59:03Z</time>
      </trkpt>
      <trkpt lat="43.69947" lon="6.88454">
        <ele>1218</ele>
        <time>2009-02-11T12:59:09Z</time>
      </trkpt>
      <trkpt lat="43.69954" lon="6.88448">
        <ele>1218</ele>
        <time>2009-02-11T12:59:17Z</time>
      </trkpt>
      <trkpt lat="43.69957" lon="6.88443">
        <ele>1218</ele>
        <time>2009-02-11T12:59:23Z</time>
      </trkpt>
      <trkpt lat="43.69959" lon="6.88434">
        <ele>1216</ele>
        <time>2009-02-11T12:59:30Z</time>
      </trkpt>
      <trkpt lat="43.69959" lon="6.88432">
        <ele>1216</ele>
        <time>2009-02-11T12:59:31Z</time>
      </trkpt>
      <trkpt lat="43.6996" lon="6.88431">
        <ele>1216</ele>
        <time>2009-02-11T12:59:37Z</time>
      </trkpt>
      <trkpt lat="43.6996" lon="6.88431">
        <ele>1216</ele>
        <time>2009-02-11T12:59:53Z</time>
      </trkpt>
      <trkpt lat="43.6996" lon="6.88431">
        <ele>1216</ele>
        <time>2009-02-11T13:00:04Z</time>
      </trkpt>
      <trkpt lat="43.6996" lon="6.88431">
        <ele>1216</ele>
        <time>2009-02-11T13:00:14Z</time>
      </trkpt>
      <trkpt lat="43.6996" lon="6.88431">
        <ele>1216</ele>
        <time>2009-02-11T13:00:25Z</time>
      </trkpt>
      <trkpt lat="43.6996" lon="6.8843">
        <ele>1216</ele>
        <time>2009-02-11T13:00:35Z</time>
      </trkpt>
      <trkpt lat="43.69963" lon="6.88426">
        <ele>1216</ele>
        <time>2009-02-11T13:00:45Z</time>
      </trkpt>
      <trkpt lat="43.69971" lon="6.88409">
        <ele>1216</ele>
        <time>2009-02-11T13:00:52Z</time>
      </trkpt>
      <trkpt lat="43.69978" lon="6.88391">
        <ele>1211</ele>
        <time>2009-02-11T13:00:58Z</time>
      </trkpt>
      <trkpt lat="43.69989" lon="6.8837">
        <ele>1211</ele>
        <time>2009-02-11T13:01:05Z</time>
      </trkpt>
      <trkpt lat="43.70001" lon="6.8835">
        <ele>1211</ele>
        <time>2009-02-11T13:01:12Z</time>
      </trkpt>
      <trkpt lat="43.70008" lon="6.88338">
        <ele>1208</ele>
        <time>2009-02-11T13:01:17Z</time>
      </trkpt>
      <trkpt lat="43.70013" lon="6.88321">
        <ele>1203</ele>
        <time>2009-02-11T13:01:23Z</time>
      </trkpt>
      <trkpt lat="43.70022" lon="6.88298">
        <ele>1199</ele>
        <time>2009-02-11T13:01:30Z</time>
      </trkpt>
      <trkpt lat="43.70024" lon="6.88286">
        <ele>1197</ele>
        <time>2009-02-11T13:01:34Z</time>
      </trkpt>
      <trkpt lat="43.70027" lon="6.8826">
        <ele>1193</ele>
        <time>2009-02-11T13:01:40Z</time>
      </trkpt>
      <trkpt lat="43.70028" lon="6.88243">
        <ele>1189</ele>
        <time>2009-02-11T13:01:45Z</time>
      </trkpt>
      <trkpt lat="43.70034" lon="6.88226">
        <ele>1186</ele>
        <time>2009-02-11T13:01:49Z</time>
      </trkpt>
      <trkpt lat="43.70037" lon="6.88205">
        <ele>1183</ele>
        <time>2009-02-11T13:01:53Z</time>
      </trkpt>
      <trkpt lat="43.70044" lon="6.88199">
        <ele>1184</ele>
        <time>2009-02-11T13:01:57Z</time>
      </trkpt>
      <trkpt lat="43.70053" lon="6.88194">
        <ele>1185</ele>
        <time>2009-02-11T13:02:01Z</time>
      </trkpt>
      <trkpt lat="43.70056" lon="6.88186">
        <ele>1184</ele>
        <time>2009-02-11T13:02:03Z</time>
      </trkpt>
      <trkpt lat="43.70064" lon="6.88175">
        <ele>1184</ele>
        <time>2009-02-11T13:02:08Z</time>
      </trkpt>
      <trkpt lat="43.70073" lon="6.88166">
        <ele>1184</ele>
        <time>2009-02-11T13:02:12Z</time>
      </trkpt>
      <trkpt lat="43.70074" lon="6.88162">
        <ele>1184</ele>
        <time>2009-02-11T13:02:15Z</time>
      </trkpt>
      <trkpt lat="43.70075" lon="6.88155">
        <ele>1183</ele>
        <time>2009-02-11T13:02:20Z</time>
      </trkpt>
      <trkpt lat="43.70074" lon="6.88135">
        <ele>1179</ele>
        <time>2009-02-11T13:02:25Z</time>
      </trkpt>
      <trkpt lat="43.70079" lon="6.88111">
        <ele>1174</ele>
        <time>2009-02-11T13:02:31Z</time>
      </trkpt>
      <trkpt lat="43.7009" lon="6.88093">
        <ele>1171</ele>
        <time>2009-02-11T13:02:36Z</time>
      </trkpt>
      <trkpt lat="43.70105" lon="6.88089">
        <ele>1175</ele>
        <time>2009-02-11T13:02:40Z</time>
      </trkpt>
      <trkpt lat="43.70115" lon="6.88078">
        <ele>1175</ele>
        <time>2009-02-11T13:02:43Z</time>
      </trkpt>
      <trkpt lat="43.70128" lon="6.88062">
        <ele>1175</ele>
        <time>2009-02-11T13:02:48Z</time>
      </trkpt>
      <trkpt lat="43.70144" lon="6.88043">
        <ele>1174</ele>
        <time>2009-02-11T13:02:53Z</time>
      </trkpt>
      <trkpt lat="43.70159" lon="6.88026">
        <ele>1172</ele>
        <time>2009-02-11T13:02:58Z</time>
      </trkpt>
      <trkpt lat="43.70166" lon="6.88024">
        <ele>1173</ele>
        <time>2009-02-11T13:03:02Z</time>
      </trkpt>
      <trkpt lat="43.70168" lon="6.88024">
        <ele>1173</ele>
        <time>2009-02-11T13:03:06Z</time>
      </trkpt>
      <trkpt lat="43.70176" lon="6.88029">
        <ele>1174</ele>
        <time>2009-02-11T13:03:13Z</time>
      </trkpt>
      <trkpt lat="43.70177" lon="6.88029">
        <ele>1174</ele>
        <time>2009-02-11T13:03:14Z</time>
      </trkpt>
      <trkpt lat="43.70182" lon="6.88034">
        <ele>1175</ele>
        <time>2009-02-11T13:03:19Z</time>
      </trkpt>
      <trkpt lat="43.70183" lon="6.8804">
        <ele>1176</ele>
        <time>2009-02-11T13:03:25Z</time>
      </trkpt>
      <trkpt lat="43.70184" lon="6.88041">
        <ele>1176</ele>
        <time>2009-02-11T13:03:26Z</time>
      </trkpt>
      <trkpt lat="43.70196" lon="6.88046">
        <ele>1176</ele>
        <time>2009-02-11T13:03:32Z</time>
      </trkpt>
      <trkpt lat="43.70201" lon="6.8805">
        <ele>1175</ele>
        <time>2009-02-11T13:03:36Z</time>
      </trkpt>
      <trkpt lat="43.70202" lon="6.8805">
        <ele>1175</ele>
        <time>2009-02-11T13:03:37Z</time>
      </trkpt>
      <trkpt lat="43.70206" lon="6.88055">
        <ele>1174</ele>
        <time>2009-02-11T13:03:44Z</time>
      </trkpt>
      <trkpt lat="43.70211" lon="6.88057">
        <ele>1173</ele>
        <time>2009-02-11T13:03:49Z</time>
      </trkpt>
      <trkpt lat="43.70213" lon="6.8806">
        <ele>1172</ele>
        <time>2009-02-11T13:03:53Z</time>
      </trkpt>
      <trkpt lat="43.70218" lon="6.88063">
        <ele>1171</ele>
        <time>2009-02-11T13:03:58Z</time>
      </trkpt>
      <trkpt lat="43.70224" lon="6.88054">
        <ele>1170</ele>
        <time>2009-02-11T13:04:05Z</time>
      </trkpt>
      <trkpt lat="43.70229" lon="6.88049">
        <ele>1170</ele>
        <time>2009-02-11T13:04:11Z</time>
      </trkpt>
      <trkpt lat="43.70234" lon="6.88049">
        <ele>1170</ele>
        <time>2009-02-11T13:04:16Z</time>
      </trkpt>
      <trkpt lat="43.70237" lon="6.88045">
        <ele>1170</ele>
        <time>2009-02-11T13:04:22Z</time>
      </trkpt>
      <trkpt lat="43.70243" lon="6.88042">
        <ele>1170</ele>
        <time>2009-02-11T13:04:28Z</time>
      </trkpt>
      <trkpt lat="43.70244" lon="6.88043">
        <ele>1170</ele>
        <time>2009-02-11T13:04:30Z</time>
      </trkpt>
      <trkpt lat="43.70248" lon="6.88047">
        <ele>1171</ele>
        <time>2009-02-11T13:04:37Z</time>
      </trkpt>
      <trkpt lat="43.70245" lon="6.88044">
        <ele>1170</ele>
        <time>2009-02-11T13:05:02Z</time>
      </trkpt>
      <trkpt lat="43.70243" lon="6.88042">
        <ele>1170</ele>
        <time>2009-02-11T13:05:04Z</time>
      </trkpt>
      <trkpt lat="43.70239" lon="6.88051">
        <ele>1170</ele>
        <time>2009-02-11T13:05:10Z</time>
      </trkpt>
      <trkpt lat="43.70241" lon="6.8806">
        <ele>1171</ele>
        <time>2009-02-11T13:05:17Z</time>
      </trkpt>
      <trkpt lat="43.70238" lon="6.88063">
        <ele>1171</ele>
        <time>2009-02-11T13:05:22Z</time>
      </trkpt>
      <trkpt lat="43.70237" lon="6.88069">
        <ele>1171</ele>
        <time>2009-02-11T13:05:26Z</time>
      </trkpt>
      <trkpt lat="43.70234" lon="6.88074">
        <ele>1171</ele>
        <time>2009-02-11T13:05:33Z</time>
      </trkpt>
      <trkpt lat="43.70232" lon="6.88079">
        <ele>1172</ele>
        <time>2009-02-11T13:05:41Z</time>
      </trkpt>
      <trkpt lat="43.70232" lon="6.88083">
        <ele>1172</ele>
        <time>2009-02-11T13:05:46Z</time>
      </trkpt>
      <trkpt lat="43.70232" lon="6.88091">
        <ele>1172</ele>
        <time>2009-02-11T13:05:51Z</time>
      </trkpt>
      <trkpt lat="43.70227" lon="6.88096">
        <ele>1173</ele>
        <time>2009-02-11T13:06:01Z</time>
      </trkpt>
      <trkpt lat="43.70226" lon="6.88101">
        <ele>1173</ele>
        <time>2009-02-11T13:06:05Z</time>
      </trkpt>
      <trkpt lat="43.70227" lon="6.88105">
        <ele>1173</ele>
        <time>2009-02-11T13:06:07Z</time>
      </trkpt>
      <trkpt lat="43.70227" lon="6.8812">
        <ele>1174</ele>
        <time>2009-02-11T13:06:15Z</time>
      </trkpt>
      <trkpt lat="43.70227" lon="6.88125">
        <ele>1175</ele>
        <time>2009-02-11T13:06:20Z</time>
      </trkpt>
      <trkpt lat="43.70229" lon="6.88125">
        <ele>1175</ele>
        <time>2009-02-11T13:06:21Z</time>
      </trkpt>
      <trkpt lat="43.70233" lon="6.88127">
        <ele>1175</ele>
        <time>2009-02-11T13:06:27Z</time>
      </trkpt>
      <trkpt lat="43.70235" lon="6.88128">
        <ele>1175</ele>
        <time>2009-02-11T13:06:32Z</time>
      </trkpt>
      <trkpt lat="43.70242" lon="6.88128">
        <ele>1175</ele>
        <time>2009-02-11T13:06:39Z</time>
      </trkpt>
      <trkpt lat="43.70243" lon="6.88128">
        <ele>1175</ele>
        <time>2009-02-11T13:06:40Z</time>
      </trkpt>
      <trkpt lat="43.70248" lon="6.88131">
        <ele>1176</ele>
        <time>2009-02-11T13:06:44Z</time>
      </trkpt>
      <trkpt lat="43.70248" lon="6.88141">
        <ele>1177</ele>
        <time>2009-02-11T13:06:52Z</time>
      </trkpt>
      <trkpt lat="43.70251" lon="6.88146">
        <ele>1177</ele>
        <time>2009-02-11T13:07:00Z</time>
      </trkpt>
      <trkpt lat="43.70253" lon="6.88147">
        <ele>1177</ele>
        <time>2009-02-11T13:07:02Z</time>
      </trkpt>
      <trkpt lat="43.70261" lon="6.88145">
        <ele>1177</ele>
        <time>2009-02-11T13:07:09Z</time>
      </trkpt>
      <trkpt lat="43.70265" lon="6.88148">
        <ele>1178</ele>
        <time>2009-02-11T13:07:17Z</time>
      </trkpt>
      <trkpt lat="43.70268" lon="6.8815">
        <ele>1178</ele>
        <time>2009-02-11T13:07:22Z</time>
      </trkpt>
      <trkpt lat="43.70274" lon="6.88151">
        <ele>1178</ele>
        <time>2009-02-11T13:07:30Z</time>
      </trkpt>
      <trkpt lat="43.70277" lon="6.88153">
        <ele>1178</ele>
        <time>2009-02-11T13:07:36Z</time>
      </trkpt>
      <trkpt lat="43.70281" lon="6.88154">
        <ele>1179</ele>
        <time>2009-02-11T13:07:42Z</time>
      </trkpt>
      <trkpt lat="43.70285" lon="6.88152">
        <ele>1179</ele>
        <time>2009-02-11T13:07:48Z</time>
      </trkpt>
      <trkpt lat="43.70285" lon="6.88155">
        <ele>1179</ele>
        <time>2009-02-11T13:07:52Z</time>
      </trkpt>
      <trkpt lat="43.70288" lon="6.88158">
        <ele>1179</ele>
        <time>2009-02-11T13:07:58Z</time>
      </trkpt>
      <trkpt lat="43.70293" lon="6.88157">
        <ele>1180</ele>
        <time>2009-02-11T13:08:04Z</time>
      </trkpt>
      <trkpt lat="43.70296" lon="6.88154">
        <ele>1180</ele>
        <time>2009-02-11T13:08:09Z</time>
      </trkpt>
      <trkpt lat="43.70301" lon="6.8816">
        <ele>1180</ele>
        <time>2009-02-11T13:08:16Z</time>
      </trkpt>
      <trkpt lat="43.70306" lon="6.88165">
        <ele>1181</ele>
        <time>2009-02-11T13:08:23Z</time>
      </trkpt>
      <trkpt lat="43.70311" lon="6.88169">
        <ele>1182</ele>
        <time>2009-02-11T13:08:28Z</time>
      </trkpt>
      <trkpt lat="43.70313" lon="6.88176">
        <ele>1184</ele>
        <time>2009-02-11T13:08:35Z</time>
      </trkpt>
      <trkpt lat="43.70315" lon="6.88183">
        <ele>1186</ele>
        <time>2009-02-11T13:08:41Z</time>
      </trkpt>
      <trkpt lat="43.70316" lon="6.88185">
        <ele>1186</ele>
        <time>2009-02-11T13:08:43Z</time>
      </trkpt>
      <trkpt lat="43.70319" lon="6.88192">
        <ele>1188</ele>
        <time>2009-02-11T13:08:46Z</time>
      </trkpt>
      <trkpt lat="43.70321" lon="6.882">
        <ele>1189</ele>
        <time>2009-02-11T13:08:51Z</time>
      </trkpt>
      <trkpt lat="43.70324" lon="6.88207">
        <ele>1190</ele>
        <time>2009-02-11T13:08:58Z</time>
      </trkpt>
      <trkpt lat="43.70324" lon="6.88211">
        <ele>1190</ele>
        <time>2009-02-11T13:09:09Z</time>
      </trkpt>
      <trkpt lat="43.70323" lon="6.8822">
        <ele>1191</ele>
        <time>2009-02-11T13:09:15Z</time>
      </trkpt>
      <trkpt lat="43.70323" lon="6.88222">
        <ele>1191</ele>
        <time>2009-02-11T13:09:17Z</time>
      </trkpt>
      <trkpt lat="43.70323" lon="6.88223">
        <ele>1192</ele>
        <time>2009-02-11T13:09:19Z</time>
      </trkpt>
      <trkpt lat="43.70326" lon="6.88226">
        <ele>1192</ele>
        <time>2009-02-11T13:09:27Z</time>
      </trkpt>
      <trkpt lat="43.70327" lon="6.88228">
        <ele>1192</ele>
        <time>2009-02-11T13:09:30Z</time>
      </trkpt>
      <trkpt lat="43.70329" lon="6.88234">
        <ele>1193</ele>
        <time>2009-02-11T13:09:33Z</time>
      </trkpt>
      <trkpt lat="43.70331" lon="6.88241">
        <ele>1194</ele>
        <time>2009-02-11T13:09:38Z</time>
      </trkpt>
      <trkpt lat="43.70332" lon="6.88247">
        <ele>1195</ele>
        <time>2009-02-11T13:09:44Z</time>
      </trkpt>
      <trkpt lat="43.70335" lon="6.8825">
        <ele>1195</ele>
        <time>2009-02-11T13:10:02Z</time>
      </trkpt>
      <trkpt lat="43.70342" lon="6.88259">
        <ele>1196</ele>
        <time>2009-02-11T13:10:05Z</time>
      </trkpt>
      <trkpt lat="43.70348" lon="6.88273">
        <ele>1197</ele>
        <time>2009-02-11T13:10:12Z</time>
      </trkpt>
      <trkpt lat="43.70357" lon="6.88283">
        <ele>1196</ele>
        <time>2009-02-11T13:10:18Z</time>
      </trkpt>
      <trkpt lat="43.70369" lon="6.88295">
        <ele>1193</ele>
        <time>2009-02-11T13:10:23Z</time>
      </trkpt>
      <trkpt lat="43.7038" lon="6.88298">
        <ele>1192</ele>
        <time>2009-02-11T13:10:28Z</time>
      </trkpt>
      <trkpt lat="43.70382" lon="6.88299">
        <ele>1192</ele>
        <time>2009-02-11T13:10:34Z</time>
      </trkpt>
      <trkpt lat="43.70379" lon="6.883">
        <ele>1192</ele>
        <time>2009-02-11T13:10:40Z</time>
      </trkpt>
      <trkpt lat="43.70379" lon="6.88299">
        <ele>1192</ele>
        <time>2009-02-11T13:10:47Z</time>
      </trkpt>
      <trkpt lat="43.70382" lon="6.88304">
        <ele>1191</ele>
        <time>2009-02-11T13:10:53Z</time>
      </trkpt>
      <trkpt lat="43.70382" lon="6.88303">
        <ele>1191</ele>
        <time>2009-02-11T13:10:54Z</time>
      </trkpt>
      <trkpt lat="43.7039" lon="6.88298">
        <ele>1191</ele>
        <time>2009-02-11T13:10:58Z</time>
      </trkpt>
      <trkpt lat="43.70402" lon="6.88298">
        <ele>1188</ele>
        <time>2009-02-11T13:11:04Z</time>
      </trkpt>
      <trkpt lat="43.70404" lon="6.88299">
        <ele>1188</ele>
        <time>2009-02-11T13:11:05Z</time>
      </trkpt>
      <trkpt lat="43.70409" lon="6.883">
        <ele>1186</ele>
        <time>2009-02-11T13:11:10Z</time>
      </trkpt>
      <trkpt lat="43.70412" lon="6.88298">
        <ele>1186</ele>
        <time>2009-02-11T13:11:15Z</time>
      </trkpt>
      <trkpt lat="43.70413" lon="6.88297">
        <ele>1186</ele>
        <time>2009-02-11T13:11:16Z</time>
      </trkpt>
      <trkpt lat="43.70417" lon="6.88287">
        <ele>1185</ele>
        <time>2009-02-11T13:11:21Z</time>
      </trkpt>
      <trkpt lat="43.70425" lon="6.88266">
        <ele>1183</ele>
        <time>2009-02-11T13:11:28Z</time>
      </trkpt>
      <trkpt lat="43.70433" lon="6.88251">
        <ele>1180</ele>
        <time>2009-02-11T13:11:33Z</time>
      </trkpt>
      <trkpt lat="43.70438" lon="6.88251">
        <ele>1179</ele>
        <time>2009-02-11T13:11:37Z</time>
      </trkpt>
      <trkpt lat="43.70443" lon="6.88246">
        <ele>1177</ele>
        <time>2009-02-11T13:11:42Z</time>
      </trkpt>
      <trkpt lat="43.70455" lon="6.88233">
        <ele>1175</ele>
        <time>2009-02-11T13:11:48Z</time>
      </trkpt>
      <trkpt lat="43.70471" lon="6.88233">
        <ele>1172</ele>
        <time>2009-02-11T13:11:53Z</time>
      </trkpt>
      <trkpt lat="43.70475" lon="6.8823">
        <ele>1172</ele>
        <time>2009-02-11T13:11:58Z</time>
      </trkpt>
      <trkpt lat="43.70477" lon="6.8823">
        <ele>1171</ele>
        <time>2009-02-11T13:12:02Z</time>
      </trkpt>
      <trkpt lat="43.70482" lon="6.88236">
        <ele>1171</ele>
        <time>2009-02-11T13:12:07Z</time>
      </trkpt>
      <trkpt lat="43.70487" lon="6.88238">
        <ele>1170</ele>
        <time>2009-02-11T13:12:09Z</time>
      </trkpt>
      <trkpt lat="43.70497" lon="6.88235">
        <ele>1168</ele>
        <time>2009-02-11T13:12:15Z</time>
      </trkpt>
      <trkpt lat="43.70502" lon="6.88242">
        <ele>1167</ele>
        <time>2009-02-11T13:12:19Z</time>
      </trkpt>
      <trkpt lat="43.70506" lon="6.88248">
        <ele>1167</ele>
        <time>2009-02-11T13:12:23Z</time>
      </trkpt>
      <trkpt lat="43.7052" lon="6.88245">
        <ele>1165</ele>
        <time>2009-02-11T13:12:29Z</time>
      </trkpt>
      <trkpt lat="43.70533" lon="6.88232">
        <ele>1163</ele>
        <time>2009-02-11T13:12:35Z</time>
      </trkpt>
      <trkpt lat="43.70536" lon="6.88231">
        <ele>1162</ele>
        <time>2009-02-11T13:12:37Z</time>
      </trkpt>
      <trkpt lat="43.70544" lon="6.88231">
        <ele>1160</ele>
        <time>2009-02-11T13:12:44Z</time>
      </trkpt>
      <trkpt lat="43.70554" lon="6.88233">
        <ele>1159</ele>
        <time>2009-02-11T13:12:54Z</time>
      </trkpt>
      <trkpt lat="43.70562" lon="6.88231">
        <ele>1157</ele>
        <time>2009-02-11T13:13:00Z</time>
      </trkpt>
      <trkpt lat="43.70575" lon="6.88231">
        <ele>1156</ele>
        <time>2009-02-11T13:13:07Z</time>
      </trkpt>
      <trkpt lat="43.70577" lon="6.88234">
        <ele>1156</ele>
        <time>2009-02-11T13:13:11Z</time>
      </trkpt>
      <trkpt lat="43.70581" lon="6.88238">
        <ele>1156</ele>
        <time>2009-02-11T13:13:15Z</time>
      </trkpt>
      <trkpt lat="43.70587" lon="6.88235">
        <ele>1155</ele>
        <time>2009-02-11T13:13:20Z</time>
      </trkpt>
      <trkpt lat="43.70593" lon="6.88232">
        <ele>1155</ele>
        <time>2009-02-11T13:13:27Z</time>
      </trkpt>
      <trkpt lat="43.70594" lon="6.88231">
        <ele>1155</ele>
        <time>2009-02-11T13:13:28Z</time>
      </trkpt>
      <trkpt lat="43.70601" lon="6.88232">
        <ele>1155</ele>
        <time>2009-02-11T13:13:34Z</time>
      </trkpt>
      <trkpt lat="43.70604" lon="6.88234">
        <ele>1155</ele>
        <time>2009-02-11T13:13:36Z</time>
      </trkpt>
      <trkpt lat="43.70612" lon="6.88228">
        <ele>1154</ele>
        <time>2009-02-11T13:13:41Z</time>
      </trkpt>
      <trkpt lat="43.70618" lon="6.88223">
        <ele>1153</ele>
        <time>2009-02-11T13:13:45Z</time>
      </trkpt>
      <trkpt lat="43.70625" lon="6.8822">
        <ele>1152</ele>
        <time>2009-02-11T13:13:49Z</time>
      </trkpt>
      <trkpt lat="43.70625" lon="6.88219">
        <ele>1152</ele>
        <time>2009-02-11T13:13:55Z</time>
      </trkpt>
      <trkpt lat="43.70625" lon="6.88218">
        <ele>1152</ele>
        <time>2009-02-11T13:13:58Z</time>
      </trkpt>
      <trkpt lat="43.70621" lon="6.88206">
        <ele>1152</ele>
        <time>2009-02-11T13:14:02Z</time>
      </trkpt>
      <trkpt lat="43.70616" lon="6.8818">
        <ele>1150</ele>
        <time>2009-02-11T13:14:09Z</time>
      </trkpt>
      <trkpt lat="43.70615" lon="6.88176">
        <ele>1149</ele>
        <time>2009-02-11T13:14:10Z</time>
      </trkpt>
      <trkpt lat="43.70621" lon="6.88144">
        <ele>1147</ele>
        <time>2009-02-11T13:14:18Z</time>
      </trkpt>
      <trkpt lat="43.70628" lon="6.88121">
        <ele>1145</ele>
        <time>2009-02-11T13:14:23Z</time>
      </trkpt>
      <trkpt lat="43.70636" lon="6.88102">
        <ele>1142</ele>
        <time>2009-02-11T13:14:27Z</time>
      </trkpt>
      <trkpt lat="43.70646" lon="6.88071">
        <ele>1140</ele>
        <time>2009-02-11T13:14:33Z</time>
      </trkpt>
      <trkpt lat="43.70652" lon="6.88046">
        <ele>1137</ele>
        <time>2009-02-11T13:14:37Z</time>
      </trkpt>
      <trkpt lat="43.70653" lon="6.88023">
        <ele>1136</ele>
        <time>2009-02-11T13:14:42Z</time>
      </trkpt>
      <trkpt lat="43.70655" lon="6.88016">
        <ele>1135</ele>
        <time>2009-02-11T13:14:44Z</time>
      </trkpt>
      <trkpt lat="43.70663" lon="6.87992">
        <ele>1130</ele>
        <time>2009-02-11T13:14:50Z</time>
      </trkpt>
      <trkpt lat="43.70671" lon="6.87966">
        <ele>1126</ele>
        <time>2009-02-11T13:14:56Z</time>
      </trkpt>
      <trkpt lat="43.70671" lon="6.87948">
        <ele>1124</ele>
        <time>2009-02-11T13:15:01Z</time>
      </trkpt>
      <trkpt lat="43.70666" lon="6.87929">
        <ele>1123</ele>
        <time>2009-02-11T13:15:07Z</time>
      </trkpt>
      <trkpt lat="43.70665" lon="6.87913">
        <ele>1122</ele>
        <time>2009-02-11T13:15:12Z</time>
      </trkpt>
      <trkpt lat="43.70666" lon="6.87907">
        <ele>1121</ele>
        <time>2009-02-11T13:15:16Z</time>
      </trkpt>
      <trkpt lat="43.70665" lon="6.879">
        <ele>1121</ele>
        <time>2009-02-11T13:15:20Z</time>
      </trkpt>
      <trkpt lat="43.70661" lon="6.87891">
        <ele>1121</ele>
        <time>2009-02-11T13:15:25Z</time>
      </trkpt>
      <trkpt lat="43.7066" lon="6.87889">
        <ele>1121</ele>
        <time>2009-02-11T13:15:26Z</time>
      </trkpt>
      <trkpt lat="43.70657" lon="6.87881">
        <ele>1120</ele>
        <time>2009-02-11T13:15:29Z</time>
      </trkpt>
      <trkpt lat="43.70655" lon="6.8787">
        <ele>1118</ele>
        <time>2009-02-11T13:15:33Z</time>
      </trkpt>
      <trkpt lat="43.70651" lon="6.87851">
        <ele>1115</ele>
        <time>2009-02-11T13:15:39Z</time>
      </trkpt>
      <trkpt lat="43.7065" lon="6.87849">
        <ele>1115</ele>
        <time>2009-02-11T13:15:40Z</time>
      </trkpt>
      <trkpt lat="43.70645" lon="6.87835">
        <ele>1114</ele>
        <time>2009-02-11T13:15:46Z</time>
      </trkpt>
      <trkpt lat="43.70644" lon="6.87825">
        <ele>1112</ele>
        <time>2009-02-11T13:15:51Z</time>
      </trkpt>
      <trkpt lat="43.7064" lon="6.87808">
        <ele>1110</ele>
        <time>2009-02-11T13:15:57Z</time>
      </trkpt>
      <trkpt lat="43.70644" lon="6.87788">
        <ele>1102</ele>
        <time>2009-02-11T13:16:03Z</time>
      </trkpt>
      <trkpt lat="43.70646" lon="6.87777">
        <ele>1098</ele>
        <time>2009-02-11T13:16:07Z</time>
      </trkpt>
      <trkpt lat="43.70647" lon="6.87767">
        <ele>1097</ele>
        <time>2009-02-11T13:16:12Z</time>
      </trkpt>
      <trkpt lat="43.70644" lon="6.87762">
        <ele>1096</ele>
        <time>2009-02-11T13:16:17Z</time>
      </trkpt>
      <trkpt lat="43.70643" lon="6.8776">
        <ele>1096</ele>
        <time>2009-02-11T13:16:25Z</time>
      </trkpt>
      <trkpt lat="43.70642" lon="6.87755">
        <ele>1095</ele>
        <time>2009-02-11T13:16:30Z</time>
      </trkpt>
      <trkpt lat="43.70651" lon="6.87749">
        <ele>1093</ele>
        <time>2009-02-11T13:16:35Z</time>
      </trkpt>
      <trkpt lat="43.7066" lon="6.87739">
        <ele>1091</ele>
        <time>2009-02-11T13:16:39Z</time>
      </trkpt>
      <trkpt lat="43.70663" lon="6.87727">
        <ele>1089</ele>
        <time>2009-02-11T13:16:43Z</time>
      </trkpt>
      <trkpt lat="43.70662" lon="6.87721">
        <ele>1088</ele>
        <time>2009-02-11T13:16:45Z</time>
      </trkpt>
      <trkpt lat="43.70661" lon="6.87717">
        <ele>1087</ele>
        <time>2009-02-11T13:16:51Z</time>
      </trkpt>
      <trkpt lat="43.70658" lon="6.87712">
        <ele>1086</ele>
        <time>2009-02-11T13:16:55Z</time>
      </trkpt>
      <trkpt lat="43.70656" lon="6.87707">
        <ele>1085</ele>
        <time>2009-02-11T13:17:02Z</time>
      </trkpt>
      <trkpt lat="43.70657" lon="6.87704">
        <ele>1085</ele>
        <time>2009-02-11T13:17:08Z</time>
      </trkpt>
      <trkpt lat="43.70664" lon="6.87682">
        <ele>1082</ele>
        <time>2009-02-11T13:17:15Z</time>
      </trkpt>
      <trkpt lat="43.70665" lon="6.87679">
        <ele>1082</ele>
        <time>2009-02-11T13:17:16Z</time>
      </trkpt>
      <trkpt lat="43.70663" lon="6.87662">
        <ele>1079</ele>
        <time>2009-02-11T13:17:21Z</time>
      </trkpt>
      <trkpt lat="43.70663" lon="6.87645">
        <ele>1077</ele>
        <time>2009-02-11T13:17:26Z</time>
      </trkpt>
      <trkpt lat="43.70663" lon="6.8764">
        <ele>1076</ele>
        <time>2009-02-11T13:17:27Z</time>
      </trkpt>
      <trkpt lat="43.70655" lon="6.87618">
        <ele>1071</ele>
        <time>2009-02-11T13:17:32Z</time>
      </trkpt>
      <trkpt lat="43.70653" lon="6.87608">
        <ele>1069</ele>
        <time>2009-02-11T13:17:35Z</time>
      </trkpt>
      <trkpt lat="43.70643" lon="6.87592">
        <ele>1065</ele>
        <time>2009-02-11T13:17:40Z</time>
      </trkpt>
      <trkpt lat="43.70637" lon="6.87573">
        <ele>1061</ele>
        <time>2009-02-11T13:17:44Z</time>
      </trkpt>
      <trkpt lat="43.70632" lon="6.87545">
        <ele>1058</ele>
        <time>2009-02-11T13:17:48Z</time>
      </trkpt>
      <trkpt lat="43.7063" lon="6.8753">
        <ele>1056</ele>
        <time>2009-02-11T13:17:50Z</time>
      </trkpt>
      <trkpt lat="43.70635" lon="6.87505">
        <ele>1053</ele>
        <time>2009-02-11T13:17:54Z</time>
      </trkpt>
      <trkpt lat="43.7063" lon="6.87496">
        <ele>1053</ele>
        <time>2009-02-11T13:17:57Z</time>
      </trkpt>
      <trkpt lat="43.70621" lon="6.87479">
        <ele>1052</ele>
        <time>2009-02-11T13:18:01Z</time>
      </trkpt>
      <trkpt lat="43.7062" lon="6.87473">
        <ele>1052</ele>
        <time>2009-02-11T13:18:02Z</time>
      </trkpt>
      <trkpt lat="43.70618" lon="6.87455">
        <ele>1051</ele>
        <time>2009-02-11T13:18:06Z</time>
      </trkpt>
      <trkpt lat="43.70616" lon="6.87433">
        <ele>1051</ele>
        <time>2009-02-11T13:18:11Z</time>
      </trkpt>
      <trkpt lat="43.70616" lon="6.87421">
        <ele>1050</ele>
        <time>2009-02-11T13:18:13Z</time>
      </trkpt>
      <trkpt lat="43.70616" lon="6.87393">
        <ele>1048</ele>
        <time>2009-02-11T13:18:18Z</time>
      </trkpt>
      <trkpt lat="43.70615" lon="6.87389">
        <ele>1048</ele>
        <time>2009-02-11T13:18:20Z</time>
      </trkpt>
      <trkpt lat="43.70618" lon="6.87385">
        <ele>1047</ele>
        <time>2009-02-11T13:18:27Z</time>
      </trkpt>
      <trkpt lat="43.70618" lon="6.8738">
        <ele>1047</ele>
        <time>2009-02-11T13:18:31Z</time>
      </trkpt>
      <trkpt lat="43.70618" lon="6.87378">
        <ele>1047</ele>
        <time>2009-02-11T13:18:32Z</time>
      </trkpt>
      <trkpt lat="43.70616" lon="6.87368">
        <ele>1047</ele>
        <time>2009-02-11T13:18:36Z</time>
      </trkpt>
      <trkpt lat="43.70611" lon="6.87335">
        <ele>1047</ele>
        <time>2009-02-11T13:18:43Z</time>
      </trkpt>
      <trkpt lat="43.70607" lon="6.87309">
        <ele>1048</ele>
        <time>2009-02-11T13:18:47Z</time>
      </trkpt>
      <trkpt lat="43.70605" lon="6.87281">
        <ele>1051</ele>
        <time>2009-02-11T13:18:51Z</time>
      </trkpt>
      <trkpt lat="43.70607" lon="6.87273">
        <ele>1050</ele>
        <time>2009-02-11T13:18:52Z</time>
      </trkpt>
      <trkpt lat="43.70609" lon="6.87253">
        <ele>1051</ele>
        <time>2009-02-11T13:18:55Z</time>
      </trkpt>
      <trkpt lat="43.70615" lon="6.87234">
        <ele>1050</ele>
        <time>2009-02-11T13:18:59Z</time>
      </trkpt>
      <trkpt lat="43.70619" lon="6.87223">
        <ele>1049</ele>
        <time>2009-02-11T13:19:01Z</time>
      </trkpt>
      <trkpt lat="43.70634" lon="6.87197">
        <ele>1042</ele>
        <time>2009-02-11T13:19:07Z</time>
      </trkpt>
      <trkpt lat="43.70652" lon="6.87171">
        <ele>1039</ele>
        <time>2009-02-11T13:19:12Z</time>
      </trkpt>
      <trkpt lat="43.70661" lon="6.87155">
        <ele>1038</ele>
        <time>2009-02-11T13:19:15Z</time>
      </trkpt>
      <trkpt lat="43.70667" lon="6.87146">
        <ele>1037</ele>
        <time>2009-02-11T13:19:17Z</time>
      </trkpt>
      <trkpt lat="43.70668" lon="6.87134">
        <ele>1036</ele>
        <time>2009-02-11T13:19:21Z</time>
      </trkpt>
      <trkpt lat="43.70667" lon="6.87123">
        <ele>1036</ele>
        <time>2009-02-11T13:19:25Z</time>
      </trkpt>
      <trkpt lat="43.70668" lon="6.87115">
        <ele>1036</ele>
        <time>2009-02-11T13:19:27Z</time>
      </trkpt>
      <trkpt lat="43.70671" lon="6.87092">
        <ele>1034</ele>
        <time>2009-02-11T13:19:32Z</time>
      </trkpt>
      <trkpt lat="43.70673" lon="6.87086">
        <ele>1033</ele>
        <time>2009-02-11T13:19:34Z</time>
      </trkpt>
      <trkpt lat="43.70676" lon="6.87082">
        <ele>1031</ele>
        <time>2009-02-11T13:19:39Z</time>
      </trkpt>
      <trkpt lat="43.70677" lon="6.87081">
        <ele>1030</ele>
        <time>2009-02-11T13:19:44Z</time>
      </trkpt>
      <trkpt lat="43.70681" lon="6.87076">
        <ele>1028</ele>
        <time>2009-02-11T13:19:48Z</time>
      </trkpt>
      <trkpt lat="43.70682" lon="6.87061">
        <ele>1027</ele>
        <time>2009-02-11T13:19:52Z</time>
      </trkpt>
      <trkpt lat="43.70684" lon="6.87056">
        <ele>1025</ele>
        <time>2009-02-11T13:19:57Z</time>
      </trkpt>
      <trkpt lat="43.70686" lon="6.87054">
        <ele>1025</ele>
        <time>2009-02-11T13:19:58Z</time>
      </trkpt>
      <trkpt lat="43.70691" lon="6.87046">
        <ele>1022</ele>
        <time>2009-02-11T13:20:06Z</time>
      </trkpt>
      <trkpt lat="43.70697" lon="6.87033">
        <ele>1019</ele>
        <time>2009-02-11T13:20:11Z</time>
      </trkpt>
      <trkpt lat="43.70707" lon="6.87014">
        <ele>1018</ele>
        <time>2009-02-11T13:20:16Z</time>
      </trkpt>
      <trkpt lat="43.70713" lon="6.86995">
        <ele>1017</ele>
        <time>2009-02-11T13:20:20Z</time>
      </trkpt>
      <trkpt lat="43.70711" lon="6.86975">
        <ele>1016</ele>
        <time>2009-02-11T13:20:24Z</time>
      </trkpt>
      <trkpt lat="43.70713" lon="6.86946">
        <ele>1016</ele>
        <time>2009-02-11T13:20:30Z</time>
      </trkpt>
      <trkpt lat="43.70718" lon="6.86926">
        <ele>1013</ele>
        <time>2009-02-11T13:20:34Z</time>
      </trkpt>
      <trkpt lat="43.70725" lon="6.86906">
        <ele>1010</ele>
        <time>2009-02-11T13:20:38Z</time>
      </trkpt>
      <trkpt lat="43.70729" lon="6.86896">
        <ele>1009</ele>
        <time>2009-02-11T13:20:40Z</time>
      </trkpt>
      <trkpt lat="43.70733" lon="6.86879">
        <ele>1006</ele>
        <time>2009-02-11T13:20:43Z</time>
      </trkpt>
      <trkpt lat="43.70734" lon="6.8687">
        <ele>1005</ele>
        <time>2009-02-11T13:20:45Z</time>
      </trkpt>
      <trkpt lat="43.70742" lon="6.86854">
        <ele>1002</ele>
        <time>2009-02-11T13:20:50Z</time>
      </trkpt>
      <trkpt lat="43.70744" lon="6.86852">
        <ele>1001</ele>
        <time>2009-02-11T13:20:51Z</time>
      </trkpt>
      <trkpt lat="43.70752" lon="6.86844">
        <ele>999</ele>
        <time>2009-02-11T13:20:54Z</time>
      </trkpt>
      <trkpt lat="43.70749" lon="6.86835">
        <ele>1000</ele>
        <time>2009-02-11T13:20:58Z</time>
      </trkpt>
      <trkpt lat="43.7074" lon="6.86827">
        <ele>1002</ele>
        <time>2009-02-11T13:21:03Z</time>
      </trkpt>
      <trkpt lat="43.70741" lon="6.86821">
        <ele>1002</ele>
        <time>2009-02-11T13:21:06Z</time>
      </trkpt>
      <trkpt lat="43.70741" lon="6.86819">
        <ele>1002</ele>
        <time>2009-02-11T13:21:10Z</time>
      </trkpt>
      <trkpt lat="43.70747" lon="6.86825">
        <ele>1000</ele>
        <time>2009-02-11T13:21:21Z</time>
      </trkpt>
      <trkpt lat="43.70756" lon="6.86826">
        <ele>997</ele>
        <time>2009-02-11T13:21:36Z</time>
      </trkpt>
      <trkpt lat="43.70757" lon="6.86824">
        <ele>997</ele>
        <time>2009-02-11T13:21:40Z</time>
      </trkpt>
      <trkpt lat="43.7076" lon="6.86822">
        <ele>996</ele>
        <time>2009-02-11T13:21:46Z</time>
      </trkpt>
      <trkpt lat="43.70763" lon="6.86819">
        <ele>994</ele>
        <time>2009-02-11T13:21:52Z</time>
      </trkpt>
      <trkpt lat="43.70765" lon="6.86817">
        <ele>994</ele>
        <time>2009-02-11T13:21:54Z</time>
      </trkpt>
      <trkpt lat="43.70766" lon="6.86816">
        <ele>993</ele>
        <time>2009-02-11T13:22:00Z</time>
      </trkpt>
      <trkpt lat="43.70771" lon="6.8681">
        <ele>991</ele>
        <time>2009-02-11T13:22:17Z</time>
      </trkpt>
      <trkpt lat="43.70783" lon="6.86799">
        <ele>986</ele>
        <time>2009-02-11T13:22:23Z</time>
      </trkpt>
      <trkpt lat="43.70795" lon="6.8679">
        <ele>983</ele>
        <time>2009-02-11T13:22:29Z</time>
      </trkpt>
      <trkpt lat="43.70806" lon="6.86775">
        <ele>979</ele>
        <time>2009-02-11T13:22:37Z</time>
      </trkpt>
      <trkpt lat="43.70817" lon="6.86764">
        <ele>978</ele>
        <time>2009-02-11T13:22:44Z</time>
      </trkpt>
      <trkpt lat="43.70828" lon="6.86753">
        <ele>978</ele>
        <time>2009-02-11T13:22:51Z</time>
      </trkpt>
      <trkpt lat="43.70835" lon="6.86746">
        <ele>977</ele>
        <time>2009-02-11T13:22:56Z</time>
      </trkpt>
      <trkpt lat="43.70839" lon="6.86744">
        <ele>978</ele>
        <time>2009-02-11T13:22:59Z</time>
      </trkpt>
      <trkpt lat="43.70844" lon="6.8674">
        <ele>978</ele>
        <time>2009-02-11T13:23:04Z</time>
      </trkpt>
      <trkpt lat="43.70845" lon="6.86738">
        <ele>978</ele>
        <time>2009-02-11T13:23:11Z</time>
      </trkpt>
      <trkpt lat="43.70846" lon="6.86737">
        <ele>978</ele>
        <time>2009-02-11T13:23:18Z</time>
      </trkpt>
      <trkpt lat="43.70852" lon="6.8674">
        <ele>978</ele>
        <time>2009-02-11T13:23:25Z</time>
      </trkpt>
      <trkpt lat="43.70853" lon="6.86737">
        <ele>978</ele>
        <time>2009-02-11T13:23:30Z</time>
      </trkpt>
      <trkpt lat="43.70859" lon="6.86732">
        <ele>979</ele>
        <time>2009-02-11T13:23:36Z</time>
      </trkpt>
      <trkpt lat="43.70865" lon="6.86729">
        <ele>979</ele>
        <time>2009-02-11T13:23:44Z</time>
      </trkpt>
      <trkpt lat="43.70866" lon="6.86731">
        <ele>980</ele>
        <time>2009-02-11T13:23:46Z</time>
      </trkpt>
      <trkpt lat="43.70866" lon="6.86742">
        <ele>980</ele>
        <time>2009-02-11T13:23:53Z</time>
      </trkpt>
      <trkpt lat="43.70863" lon="6.86746">
        <ele>980</ele>
        <time>2009-02-11T13:23:56Z</time>
      </trkpt>
      <trkpt lat="43.70859" lon="6.86756">
        <ele>981</ele>
        <time>2009-02-11T13:24:04Z</time>
      </trkpt>
      <trkpt lat="43.70854" lon="6.86766">
        <ele>984</ele>
        <time>2009-02-11T13:24:12Z</time>
      </trkpt>
      <trkpt lat="43.70853" lon="6.86772">
        <ele>986</ele>
        <time>2009-02-11T13:24:17Z</time>
      </trkpt>
      <trkpt lat="43.70858" lon="6.86778">
        <ele>989</ele>
        <time>2009-02-11T13:24:24Z</time>
      </trkpt>
      <trkpt lat="43.70862" lon="6.86773">
        <ele>988</ele>
        <time>2009-02-11T13:24:29Z</time>
      </trkpt>
      <trkpt lat="43.70869" lon="6.86767">
        <ele>988</ele>
        <time>2009-02-11T13:24:37Z</time>
      </trkpt>
      <trkpt lat="43.70875" lon="6.86761">
        <ele>987</ele>
        <time>2009-02-11T13:24:45Z</time>
      </trkpt>
      <trkpt lat="43.70879" lon="6.86757">
        <ele>987</ele>
        <time>2009-02-11T13:24:51Z</time>
      </trkpt>
      <trkpt lat="43.70881" lon="6.86754">
        <ele>987</ele>
        <time>2009-02-11T13:24:55Z</time>
      </trkpt>
      <trkpt lat="43.70888" lon="6.86752">
        <ele>988</ele>
        <time>2009-02-11T13:25:02Z</time>
      </trkpt>
      <trkpt lat="43.7089" lon="6.86753">
        <ele>988</ele>
        <time>2009-02-11T13:25:04Z</time>
      </trkpt>
      <trkpt lat="43.70893" lon="6.86754">
        <ele>989</ele>
        <time>2009-02-11T13:25:10Z</time>
      </trkpt>
      <trkpt lat="43.70899" lon="6.86758">
        <ele>991</ele>
        <time>2009-02-11T13:25:17Z</time>
      </trkpt>
      <trkpt lat="43.70913" lon="6.86764">
        <ele>993</ele>
        <time>2009-02-11T13:25:23Z</time>
      </trkpt>
      <trkpt lat="43.70924" lon="6.86769">
        <ele>996</ele>
        <time>2009-02-11T13:25:30Z</time>
      </trkpt>
      <trkpt lat="43.70926" lon="6.86769">
        <ele>997</ele>
        <time>2009-02-11T13:25:32Z</time>
      </trkpt>
      <trkpt lat="43.70931" lon="6.86762">
        <ele>996</ele>
        <time>2009-02-11T13:25:37Z</time>
      </trkpt>
      <trkpt lat="43.70932" lon="6.86757">
        <ele>995</ele>
        <time>2009-02-11T13:25:43Z</time>
      </trkpt>
      <trkpt lat="43.70938" lon="6.86748">
        <ele>994</ele>
        <time>2009-02-11T13:25:51Z</time>
      </trkpt>
      <trkpt lat="43.70944" lon="6.86742">
        <ele>995</ele>
        <time>2009-02-11T13:25:58Z</time>
      </trkpt>
      <trkpt lat="43.70947" lon="6.86739">
        <ele>995</ele>
        <time>2009-02-11T13:26:02Z</time>
      </trkpt>
      <trkpt lat="43.70952" lon="6.86739">
        <ele>995</ele>
        <time>2009-02-11T13:26:06Z</time>
      </trkpt>
      <trkpt lat="43.70957" lon="6.86738">
        <ele>996</ele>
        <time>2009-02-11T13:26:11Z</time>
      </trkpt>
      <trkpt lat="43.70964" lon="6.86734">
        <ele>997</ele>
        <time>2009-02-11T13:26:18Z</time>
      </trkpt>
      <trkpt lat="43.7097" lon="6.86732">
        <ele>997</ele>
        <time>2009-02-11T13:26:24Z</time>
      </trkpt>
      <trkpt lat="43.70972" lon="6.86731">
        <ele>997</ele>
        <time>2009-02-11T13:26:26Z</time>
      </trkpt>
      <trkpt lat="43.7098" lon="6.86727">
        <ele>998</ele>
        <time>2009-02-11T13:26:35Z</time>
      </trkpt>
      <trkpt lat="43.70987" lon="6.86727">
        <ele>999</ele>
        <time>2009-02-11T13:26:42Z</time>
      </trkpt>
      <trkpt lat="43.70993" lon="6.86726">
        <ele>1000</ele>
        <time>2009-02-11T13:26:49Z</time>
      </trkpt>
      <trkpt lat="43.71004" lon="6.86723">
        <ele>1002</ele>
        <time>2009-02-11T13:26:58Z</time>
      </trkpt>
      <trkpt lat="43.71014" lon="6.8672">
        <ele>1006</ele>
        <time>2009-02-11T13:27:07Z</time>
      </trkpt>
      <trkpt lat="43.71022" lon="6.86717">
        <ele>1009</ele>
        <time>2009-02-11T13:27:15Z</time>
      </trkpt>
      <trkpt lat="43.71027" lon="6.86718">
        <ele>1011</ele>
        <time>2009-02-11T13:27:22Z</time>
      </trkpt>
      <trkpt lat="43.71033" lon="6.86719">
        <ele>1013</ele>
        <time>2009-02-11T13:27:29Z</time>
      </trkpt>
      <trkpt lat="43.71045" lon="6.86719">
        <ele>1015</ele>
        <time>2009-02-11T13:27:36Z</time>
      </trkpt>
      <trkpt lat="43.71057" lon="6.8672">
        <ele>1017</ele>
        <time>2009-02-11T13:27:44Z</time>
      </trkpt>
      <trkpt lat="43.71067" lon="6.86723">
        <ele>1020</ele>
        <time>2009-02-11T13:27:51Z</time>
      </trkpt>
      <trkpt lat="43.71078" lon="6.86724">
        <ele>1023</ele>
        <time>2009-02-11T13:27:58Z</time>
      </trkpt>
      <trkpt lat="43.71092" lon="6.86723">
        <ele>1026</ele>
        <time>2009-02-11T13:28:04Z</time>
      </trkpt>
      <trkpt lat="43.71095" lon="6.86724">
        <ele>1026</ele>
        <time>2009-02-11T13:28:05Z</time>
      </trkpt>
      <trkpt lat="43.71105" lon="6.86717">
        <ele>1027</ele>
        <time>2009-02-11T13:28:09Z</time>
      </trkpt>
      <trkpt lat="43.71109" lon="6.867">
        <ele>1026</ele>
        <time>2009-02-11T13:28:14Z</time>
      </trkpt>
      <trkpt lat="43.71119" lon="6.86687">
        <ele>1025</ele>
        <time>2009-02-11T13:28:19Z</time>
      </trkpt>
      <trkpt lat="43.7113" lon="6.8667">
        <ele>1025</ele>
        <time>2009-02-11T13:28:24Z</time>
      </trkpt>
      <trkpt lat="43.71132" lon="6.86667">
        <ele>1025</ele>
        <time>2009-02-11T13:28:25Z</time>
      </trkpt>
      <trkpt lat="43.71153" lon="6.86651">
        <ele>1026</ele>
        <time>2009-02-11T13:28:33Z</time>
      </trkpt>
      <trkpt lat="43.71166" lon="6.86652">
        <ele>1027</ele>
        <time>2009-02-11T13:28:38Z</time>
      </trkpt>
      <trkpt lat="43.71168" lon="6.86653">
        <ele>1028</ele>
        <time>2009-02-11T13:28:39Z</time>
      </trkpt>
      <trkpt lat="43.71176" lon="6.86642">
        <ele>1027</ele>
        <time>2009-02-11T13:28:46Z</time>
      </trkpt>
      <trkpt lat="43.71174" lon="6.86624">
        <ele>1028</ele>
        <time>2009-02-11T13:28:50Z</time>
      </trkpt>
      <trkpt lat="43.71177" lon="6.86601">
        <ele>1030</ele>
        <time>2009-02-11T13:28:55Z</time>
      </trkpt>
      <trkpt lat="43.71179" lon="6.86582">
        <ele>1032</ele>
        <time>2009-02-11T13:29:01Z</time>
      </trkpt>
      <trkpt lat="43.7118" lon="6.86577">
        <ele>1032</ele>
        <time>2009-02-11T13:29:03Z</time>
      </trkpt>
      <trkpt lat="43.7118" lon="6.86575">
        <ele>1033</ele>
        <time>2009-02-11T13:29:09Z</time>
      </trkpt>
      <trkpt lat="43.7118" lon="6.86575">
        <ele>1033</ele>
        <time>2009-02-11T13:29:20Z</time>
      </trkpt>
      <trkpt lat="43.7118" lon="6.86575">
        <ele>1033</ele>
        <time>2009-02-11T13:29:47Z</time>
      </trkpt>
      <trkpt lat="43.7118" lon="6.86572">
        <ele>1033</ele>
        <time>2009-02-11T13:29:49Z</time>
      </trkpt>
      <trkpt lat="43.71179" lon="6.86556">
        <ele>1034</ele>
        <time>2009-02-11T13:29:56Z</time>
      </trkpt>
      <trkpt lat="43.71177" lon="6.86542">
        <ele>1035</ele>
        <time>2009-02-11T13:30:01Z</time>
      </trkpt>
      <trkpt lat="43.71174" lon="6.86521">
        <ele>1037</ele>
        <time>2009-02-11T13:30:07Z</time>
      </trkpt>
      <trkpt lat="43.71164" lon="6.8651">
        <ele>1038</ele>
        <time>2009-02-11T13:30:12Z</time>
      </trkpt>
      <trkpt lat="43.71162" lon="6.865">
        <ele>1038</ele>
        <time>2009-02-11T13:30:15Z</time>
      </trkpt>
      <trkpt lat="43.71157" lon="6.8648">
        <ele>1043</ele>
        <time>2009-02-11T13:30:21Z</time>
      </trkpt>
      <trkpt lat="43.71151" lon="6.86472">
        <ele>1045</ele>
        <time>2009-02-11T13:30:24Z</time>
      </trkpt>
      <trkpt lat="43.71144" lon="6.86456">
        <ele>1049</ele>
        <time>2009-02-11T13:30:31Z</time>
      </trkpt>
      <trkpt lat="43.71141" lon="6.86444">
        <ele>1052</ele>
        <time>2009-02-11T13:30:37Z</time>
      </trkpt>
      <trkpt lat="43.7114" lon="6.8644">
        <ele>1052</ele>
        <time>2009-02-11T13:30:39Z</time>
      </trkpt>
      <trkpt lat="43.71128" lon="6.86424">
        <ele>1053</ele>
        <time>2009-02-11T13:30:50Z</time>
      </trkpt>
      <trkpt lat="43.7112" lon="6.86417">
        <ele>1053</ele>
        <time>2009-02-11T13:30:57Z</time>
      </trkpt>
      <trkpt lat="43.71117" lon="6.86414">
        <ele>1053</ele>
        <time>2009-02-11T13:31:00Z</time>
      </trkpt>
      <trkpt lat="43.71107" lon="6.86413">
        <ele>1052</ele>
        <time>2009-02-11T13:31:08Z</time>
      </trkpt>
      <trkpt lat="43.71104" lon="6.86412">
        <ele>1052</ele>
        <time>2009-02-11T13:31:12Z</time>
      </trkpt>
      <trkpt lat="43.71107" lon="6.86411">
        <ele>1052</ele>
        <time>2009-02-11T13:31:15Z</time>
      </trkpt>
      <trkpt lat="43.71121" lon="6.8641">
        <ele>1054</ele>
        <time>2009-02-11T13:31:21Z</time>
      </trkpt>
      <trkpt lat="43.71133" lon="6.86402">
        <ele>1058</ele>
        <time>2009-02-11T13:31:29Z</time>
      </trkpt>
      <trkpt lat="43.71135" lon="6.864">
        <ele>1058</ele>
        <time>2009-02-11T13:31:31Z</time>
      </trkpt>
      <trkpt lat="43.71137" lon="6.86386">
        <ele>1062</ele>
        <time>2009-02-11T13:31:38Z</time>
      </trkpt>
      <trkpt lat="43.71139" lon="6.86373">
        <ele>1064</ele>
        <time>2009-02-11T13:31:45Z</time>
      </trkpt>
      <trkpt lat="43.71139" lon="6.86371">
        <ele>1065</ele>
        <time>2009-02-11T13:31:46Z</time>
      </trkpt>
      <trkpt lat="43.71138" lon="6.86366">
        <ele>1066</ele>
        <time>2009-02-11T13:31:51Z</time>
      </trkpt>
      <trkpt lat="43.71136" lon="6.8636">
        <ele>1066</ele>
        <time>2009-02-11T13:31:58Z</time>
      </trkpt>
      <trkpt lat="43.71133" lon="6.86352">
        <ele>1066</ele>
        <time>2009-02-11T13:32:06Z</time>
      </trkpt>
      <trkpt lat="43.7113" lon="6.86344">
        <ele>1066</ele>
        <time>2009-02-11T13:32:15Z</time>
      </trkpt>
      <trkpt lat="43.71125" lon="6.86337">
        <ele>1066</ele>
        <time>2009-02-11T13:32:23Z</time>
      </trkpt>
      <trkpt lat="43.71127" lon="6.86327">
        <ele>1067</ele>
        <time>2009-02-11T13:32:31Z</time>
      </trkpt>
      <trkpt lat="43.71128" lon="6.86324">
        <ele>1068</ele>
        <time>2009-02-11T13:32:33Z</time>
      </trkpt>
      <trkpt lat="43.71131" lon="6.86315">
        <ele>1070</ele>
        <time>2009-02-11T13:32:40Z</time>
      </trkpt>
      <trkpt lat="43.71132" lon="6.86308">
        <ele>1071</ele>
        <time>2009-02-11T13:32:47Z</time>
      </trkpt>
      <trkpt lat="43.71133" lon="6.86307">
        <ele>1072</ele>
        <time>2009-02-11T13:32:55Z</time>
      </trkpt>
      <trkpt lat="43.71133" lon="6.86306">
        <ele>1072</ele>
        <time>2009-02-11T13:32:56Z</time>
      </trkpt>
      <trkpt lat="43.71133" lon="6.8629">
        <ele>1075</ele>
        <time>2009-02-11T13:33:04Z</time>
      </trkpt>
      <trkpt lat="43.71131" lon="6.86279">
        <ele>1076</ele>
        <time>2009-02-11T13:33:10Z</time>
      </trkpt>
      <trkpt lat="43.71132" lon="6.86273">
        <ele>1076</ele>
        <time>2009-02-11T13:33:16Z</time>
      </trkpt>
      <trkpt lat="43.71131" lon="6.86267">
        <ele>1076</ele>
        <time>2009-02-11T13:33:22Z</time>
      </trkpt>
      <trkpt lat="43.71129" lon="6.86263">
        <ele>1076</ele>
        <time>2009-02-11T13:33:28Z</time>
      </trkpt>
      <trkpt lat="43.71127" lon="6.86252">
        <ele>1075</ele>
        <time>2009-02-11T13:33:37Z</time>
      </trkpt>
      <trkpt lat="43.71126" lon="6.86243">
        <ele>1076</ele>
        <time>2009-02-11T13:33:44Z</time>
      </trkpt>
      <trkpt lat="43.71124" lon="6.86238">
        <ele>1075</ele>
        <time>2009-02-11T13:33:50Z</time>
      </trkpt>
      <trkpt lat="43.7112" lon="6.86238">
        <ele>1074</ele>
        <time>2009-02-11T13:33:56Z</time>
      </trkpt>
      <trkpt lat="43.71118" lon="6.86238">
        <ele>1074</ele>
        <time>2009-02-11T13:34:00Z</time>
      </trkpt>
      <trkpt lat="43.71109" lon="6.86231">
        <ele>1072</ele>
        <time>2009-02-11T13:34:06Z</time>
      </trkpt>
      <trkpt lat="43.7111" lon="6.86227">
        <ele>1073</ele>
        <time>2009-02-11T13:34:08Z</time>
      </trkpt>
      <trkpt lat="43.71112" lon="6.86224">
        <ele>1073</ele>
        <time>2009-02-11T13:34:11Z</time>
      </trkpt>
      <trkpt lat="43.71114" lon="6.86217">
        <ele>1075</ele>
        <time>2009-02-11T13:34:19Z</time>
      </trkpt>
      <trkpt lat="43.71119" lon="6.86204">
        <ele>1077</ele>
        <time>2009-02-11T13:34:28Z</time>
      </trkpt>
      <trkpt lat="43.71124" lon="6.86193">
        <ele>1078</ele>
        <time>2009-02-11T13:34:37Z</time>
      </trkpt>
      <trkpt lat="43.71128" lon="6.86188">
        <ele>1078</ele>
        <time>2009-02-11T13:34:44Z</time>
      </trkpt>
      <trkpt lat="43.71132" lon="6.86181">
        <ele>1078</ele>
        <time>2009-02-11T13:34:51Z</time>
      </trkpt>
      <trkpt lat="43.71133" lon="6.86173">
        <ele>1079</ele>
        <time>2009-02-11T13:34:57Z</time>
      </trkpt>
      <trkpt lat="43.71135" lon="6.8617">
        <ele>1079</ele>
        <time>2009-02-11T13:34:59Z</time>
      </trkpt>
      <trkpt lat="43.71135" lon="6.86167">
        <ele>1079</ele>
        <time>2009-02-11T13:35:06Z</time>
      </trkpt>
      <trkpt lat="43.71143" lon="6.86168">
        <ele>1080</ele>
        <time>2009-02-11T13:35:14Z</time>
      </trkpt>
      <trkpt lat="43.71147" lon="6.86164">
        <ele>1080</ele>
        <time>2009-02-11T13:35:19Z</time>
      </trkpt>
      <trkpt lat="43.71148" lon="6.86164">
        <ele>1080</ele>
        <time>2009-02-11T13:35:20Z</time>
      </trkpt>
      <trkpt lat="43.71153" lon="6.86153">
        <ele>1080</ele>
        <time>2009-02-11T13:35:26Z</time>
      </trkpt>
      <trkpt lat="43.71155" lon="6.86149">
        <ele>1080</ele>
        <time>2009-02-11T13:35:29Z</time>
      </trkpt>
      <trkpt lat="43.71156" lon="6.86141">
        <ele>1080</ele>
        <time>2009-02-11T13:35:34Z</time>
      </trkpt>
      <trkpt lat="43.71155" lon="6.86136">
        <ele>1079</ele>
        <time>2009-02-11T13:35:40Z</time>
      </trkpt>
      <trkpt lat="43.71158" lon="6.86125">
        <ele>1079</ele>
        <time>2009-02-11T13:35:46Z</time>
      </trkpt>
      <trkpt lat="43.71164" lon="6.86117">
        <ele>1079</ele>
        <time>2009-02-11T13:35:50Z</time>
      </trkpt>
      <trkpt lat="43.71165" lon="6.86105">
        <ele>1079</ele>
        <time>2009-02-11T13:35:55Z</time>
      </trkpt>
      <trkpt lat="43.71173" lon="6.86092">
        <ele>1080</ele>
        <time>2009-02-11T13:36:01Z</time>
      </trkpt>
      <trkpt lat="43.71182" lon="6.86079">
        <ele>1080</ele>
        <time>2009-02-11T13:36:07Z</time>
      </trkpt>
      <trkpt lat="43.71184" lon="6.86065">
        <ele>1080</ele>
        <time>2009-02-11T13:36:12Z</time>
      </trkpt>
      <trkpt lat="43.71188" lon="6.86056">
        <ele>1080</ele>
        <time>2009-02-11T13:36:16Z</time>
      </trkpt>
      <trkpt lat="43.7119" lon="6.8605">
        <ele>1080</ele>
        <time>2009-02-11T13:36:20Z</time>
      </trkpt>
      <trkpt lat="43.71191" lon="6.86046">
        <ele>1080</ele>
        <time>2009-02-11T13:36:24Z</time>
      </trkpt>
      <trkpt lat="43.71195" lon="6.86039">
        <ele>1080</ele>
        <time>2009-02-11T13:36:33Z</time>
      </trkpt>
      <trkpt lat="43.71201" lon="6.86031">
        <ele>1080</ele>
        <time>2009-02-11T13:36:38Z</time>
      </trkpt>
      <trkpt lat="43.71204" lon="6.86028">
        <ele>1080</ele>
        <time>2009-02-11T13:36:40Z</time>
      </trkpt>
      <trkpt lat="43.71214" lon="6.86026">
        <ele>1080</ele>
        <time>2009-02-11T13:36:46Z</time>
      </trkpt>
      <trkpt lat="43.71221" lon="6.86026">
        <ele>1080</ele>
        <time>2009-02-11T13:36:51Z</time>
      </trkpt>
      <trkpt lat="43.71223" lon="6.86027">
        <ele>1080</ele>
        <time>2009-02-11T13:36:59Z</time>
      </trkpt>
      <trkpt lat="43.71223" lon="6.86026">
        <ele>1080</ele>
        <time>2009-02-11T13:37:05Z</time>
      </trkpt>
      <trkpt lat="43.71221" lon="6.86022">
        <ele>1080</ele>
        <time>2009-02-11T13:37:10Z</time>
      </trkpt>
      <trkpt lat="43.7122" lon="6.86019">
        <ele>1080</ele>
        <time>2009-02-11T13:37:14Z</time>
      </trkpt>
      <trkpt lat="43.7122" lon="6.86013">
        <ele>1080</ele>
        <time>2009-02-11T13:37:19Z</time>
      </trkpt>
      <trkpt lat="43.71223" lon="6.86006">
        <ele>1080</ele>
        <time>2009-02-11T13:37:25Z</time>
      </trkpt>
      <trkpt lat="43.71225" lon="6.86003">
        <ele>1080</ele>
        <time>2009-02-11T13:37:29Z</time>
      </trkpt>
      <trkpt lat="43.71227" lon="6.86002">
        <ele>1080</ele>
        <time>2009-02-11T13:37:30Z</time>
      </trkpt>
      <trkpt lat="43.71239" lon="6.85991">
        <ele>1080</ele>
        <time>2009-02-11T13:37:37Z</time>
      </trkpt>
      <trkpt lat="43.71245" lon="6.85984">
        <ele>1080</ele>
        <time>2009-02-11T13:37:41Z</time>
      </trkpt>
      <trkpt lat="43.71248" lon="6.85973">
        <ele>1080</ele>
        <time>2009-02-11T13:37:45Z</time>
      </trkpt>
      <trkpt lat="43.71251" lon="6.85974">
        <ele>1080</ele>
        <time>2009-02-11T13:37:55Z</time>
      </trkpt>
      <trkpt lat="43.71255" lon="6.85969">
        <ele>1080</ele>
        <time>2009-02-11T13:38:00Z</time>
      </trkpt>
      <trkpt lat="43.71256" lon="6.85962">
        <ele>1080</ele>
        <time>2009-02-11T13:38:05Z</time>
      </trkpt>
      <trkpt lat="43.71254" lon="6.85957">
        <ele>1080</ele>
        <time>2009-02-11T13:38:10Z</time>
      </trkpt>
      <trkpt lat="43.71255" lon="6.85951">
        <ele>1080</ele>
        <time>2009-02-11T13:38:14Z</time>
      </trkpt>
      <trkpt lat="43.71256" lon="6.85951">
        <ele>1080</ele>
        <time>2009-02-11T13:38:15Z</time>
      </trkpt>
      <trkpt lat="43.71258" lon="6.85951">
        <ele>1080</ele>
        <time>2009-02-11T13:38:17Z</time>
      </trkpt>
      <trkpt lat="43.71263" lon="6.85943">
        <ele>1080</ele>
        <time>2009-02-11T13:38:25Z</time>
      </trkpt>
      <trkpt lat="43.71267" lon="6.85936">
        <ele>1080</ele>
        <time>2009-02-11T13:38:32Z</time>
      </trkpt>
      <trkpt lat="43.71269" lon="6.85931">
        <ele>1080</ele>
        <time>2009-02-11T13:38:36Z</time>
      </trkpt>
      <trkpt lat="43.71268" lon="6.85925">
        <ele>1080</ele>
        <time>2009-02-11T13:38:39Z</time>
      </trkpt>
      <trkpt lat="43.71273" lon="6.85911">
        <ele>1080</ele>
        <time>2009-02-11T13:38:45Z</time>
      </trkpt>
      <trkpt lat="43.71274" lon="6.85909">
        <ele>1080</ele>
        <time>2009-02-11T13:38:46Z</time>
      </trkpt>
      <trkpt lat="43.71273" lon="6.85898">
        <ele>1080</ele>
        <time>2009-02-11T13:38:51Z</time>
      </trkpt>
      <trkpt lat="43.71273" lon="6.85891">
        <ele>1080</ele>
        <time>2009-02-11T13:38:54Z</time>
      </trkpt>
      <trkpt lat="43.71281" lon="6.85884">
        <ele>1078</ele>
        <time>2009-02-11T13:38:59Z</time>
      </trkpt>
      <trkpt lat="43.71291" lon="6.85879">
        <ele>1074</ele>
        <time>2009-02-11T13:39:05Z</time>
      </trkpt>
      <trkpt lat="43.71291" lon="6.85878">
        <ele>1073</ele>
        <time>2009-02-11T13:39:06Z</time>
      </trkpt>
      <trkpt lat="43.71293" lon="6.85875">
        <ele>1072</ele>
        <time>2009-02-11T13:39:10Z</time>
      </trkpt>
      <trkpt lat="43.71298" lon="6.85868">
        <ele>1070</ele>
        <time>2009-02-11T13:39:18Z</time>
      </trkpt>
      <trkpt lat="43.71302" lon="6.85863">
        <ele>1068</ele>
        <time>2009-02-11T13:39:24Z</time>
      </trkpt>
      <trkpt lat="43.71303" lon="6.85862">
        <ele>1068</ele>
        <time>2009-02-11T13:39:25Z</time>
      </trkpt>
      <trkpt lat="43.71304" lon="6.85853">
        <ele>1066</ele>
        <time>2009-02-11T13:39:33Z</time>
      </trkpt>
      <trkpt lat="43.71301" lon="6.85853">
        <ele>1068</ele>
        <time>2009-02-11T13:39:38Z</time>
      </trkpt>
      <trkpt lat="43.713" lon="6.85846">
        <ele>1068</ele>
        <time>2009-02-11T13:39:44Z</time>
      </trkpt>
      <trkpt lat="43.71297" lon="6.85839">
        <ele>1068</ele>
        <time>2009-02-11T13:39:50Z</time>
      </trkpt>
      <trkpt lat="43.71297" lon="6.85834">
        <ele>1068</ele>
        <time>2009-02-11T13:39:57Z</time>
      </trkpt>
      <trkpt lat="43.71299" lon="6.85831">
        <ele>1067</ele>
        <time>2009-02-11T13:40:03Z</time>
      </trkpt>
      <trkpt lat="43.71295" lon="6.85825">
        <ele>1068</ele>
        <time>2009-02-11T13:40:10Z</time>
      </trkpt>
      <trkpt lat="43.71294" lon="6.85816">
        <ele>1068</ele>
        <time>2009-02-11T13:40:17Z</time>
      </trkpt>
      <trkpt lat="43.71293" lon="6.85811">
        <ele>1067</ele>
        <time>2009-02-11T13:40:23Z</time>
      </trkpt>
      <trkpt lat="43.71292" lon="6.85802">
        <ele>1067</ele>
        <time>2009-02-11T13:40:30Z</time>
      </trkpt>
      <trkpt lat="43.71292" lon="6.85796">
        <ele>1067</ele>
        <time>2009-02-11T13:40:35Z</time>
      </trkpt>
      <trkpt lat="43.71292" lon="6.85792">
        <ele>1067</ele>
        <time>2009-02-11T13:40:42Z</time>
      </trkpt>
      <trkpt lat="43.71291" lon="6.8579">
        <ele>1067</ele>
        <time>2009-02-11T13:40:48Z</time>
      </trkpt>
      <trkpt lat="43.7129" lon="6.85792">
        <ele>1067</ele>
        <time>2009-02-11T13:40:53Z</time>
      </trkpt>
      <trkpt lat="43.71291" lon="6.85792">
        <ele>1067</ele>
        <time>2009-02-11T13:41:01Z</time>
      </trkpt>
      <trkpt lat="43.71291" lon="6.85791">
        <ele>1067</ele>
        <time>2009-02-11T13:41:08Z</time>
      </trkpt>
      <trkpt lat="43.71291" lon="6.85789">
        <ele>1067</ele>
        <time>2009-02-11T13:41:37Z</time>
      </trkpt>
      <trkpt lat="43.71291" lon="6.8579">
        <ele>1067</ele>
        <time>2009-02-11T13:41:48Z</time>
      </trkpt>
      <trkpt lat="43.71288" lon="6.85791">
        <ele>1068</ele>
        <time>2009-02-11T13:41:55Z</time>
      </trkpt>
      <trkpt lat="43.71284" lon="6.85785">
        <ele>1069</ele>
        <time>2009-02-11T13:42:01Z</time>
      </trkpt>
      <trkpt lat="43.71281" lon="6.8578">
        <ele>1070</ele>
        <time>2009-02-11T13:42:07Z</time>
      </trkpt>
      <trkpt lat="43.71278" lon="6.85775">
        <ele>1070</ele>
        <time>2009-02-11T13:42:13Z</time>
      </trkpt>
      <trkpt lat="43.71279" lon="6.85769">
        <ele>1069</ele>
        <time>2009-02-11T13:42:17Z</time>
      </trkpt>
      <trkpt lat="43.71279" lon="6.85763">
        <ele>1069</ele>
        <time>2009-02-11T13:42:21Z</time>
      </trkpt>
      <trkpt lat="43.71276" lon="6.8576">
        <ele>1070</ele>
        <time>2009-02-11T13:42:26Z</time>
      </trkpt>
      <trkpt lat="43.71275" lon="6.85753">
        <ele>1070</ele>
        <time>2009-02-11T13:42:32Z</time>
      </trkpt>
      <trkpt lat="43.71273" lon="6.85751">
        <ele>1070</ele>
        <time>2009-02-11T13:42:37Z</time>
      </trkpt>
      <trkpt lat="43.71271" lon="6.85743">
        <ele>1070</ele>
        <time>2009-02-11T13:42:41Z</time>
      </trkpt>
      <trkpt lat="43.71265" lon="6.85728">
        <ele>1070</ele>
        <time>2009-02-11T13:42:47Z</time>
      </trkpt>
      <trkpt lat="43.7126" lon="6.8571">
        <ele>1071</ele>
        <time>2009-02-11T13:42:53Z</time>
      </trkpt>
      <trkpt lat="43.71259" lon="6.85691">
        <ele>1071</ele>
        <time>2009-02-11T13:42:59Z</time>
      </trkpt>
      <trkpt lat="43.71259" lon="6.85686">
        <ele>1070</ele>
        <time>2009-02-11T13:43:01Z</time>
      </trkpt>
      <trkpt lat="43.71256" lon="6.85677">
        <ele>1071</ele>
        <time>2009-02-11T13:43:05Z</time>
      </trkpt>
      <trkpt lat="43.71249" lon="6.85665">
        <ele>1074</ele>
        <time>2009-02-11T13:43:10Z</time>
      </trkpt>
      <trkpt lat="43.71244" lon="6.85653">
        <ele>1074</ele>
        <time>2009-02-11T13:43:15Z</time>
      </trkpt>
      <trkpt lat="43.71243" lon="6.85647">
        <ele>1074</ele>
        <time>2009-02-11T13:43:17Z</time>
      </trkpt>
      <trkpt lat="43.71243" lon="6.85627">
        <ele>1073</ele>
        <time>2009-02-11T13:43:24Z</time>
      </trkpt>
      <trkpt lat="43.71243" lon="6.85621">
        <ele>1073</ele>
        <time>2009-02-11T13:43:30Z</time>
      </trkpt>
      <trkpt lat="43.7124" lon="6.85621">
        <ele>1073</ele>
        <time>2009-02-11T13:43:38Z</time>
      </trkpt>
      <trkpt lat="43.71238" lon="6.85621">
        <ele>1073</ele>
        <time>2009-02-11T13:43:40Z</time>
      </trkpt>
      <trkpt lat="43.71231" lon="6.85619">
        <ele>1073</ele>
        <time>2009-02-11T13:43:44Z</time>
      </trkpt>
      <trkpt lat="43.71223" lon="6.85613">
        <ele>1073</ele>
        <time>2009-02-11T13:43:48Z</time>
      </trkpt>
      <trkpt lat="43.71222" lon="6.85601">
        <ele>1072</ele>
        <time>2009-02-11T13:43:54Z</time>
      </trkpt>
      <trkpt lat="43.71211" lon="6.85595">
        <ele>1067</ele>
        <time>2009-02-11T13:43:59Z</time>
      </trkpt>
      <trkpt lat="43.71202" lon="6.85591">
        <ele>1063</ele>
        <time>2009-02-11T13:44:03Z</time>
      </trkpt>
      <trkpt lat="43.71198" lon="6.85583">
        <ele>1061</ele>
        <time>2009-02-11T13:44:08Z</time>
      </trkpt>
      <trkpt lat="43.71198" lon="6.85562">
        <ele>1060</ele>
        <time>2009-02-11T13:44:16Z</time>
      </trkpt>
      <trkpt lat="43.71198" lon="6.85559">
        <ele>1060</ele>
        <time>2009-02-11T13:44:17Z</time>
      </trkpt>
      <trkpt lat="43.71193" lon="6.85545">
        <ele>1058</ele>
        <time>2009-02-11T13:44:22Z</time>
      </trkpt>
      <trkpt lat="43.71192" lon="6.8554">
        <ele>1058</ele>
        <time>2009-02-11T13:44:23Z</time>
      </trkpt>
      <trkpt lat="43.71197" lon="6.85531">
        <ele>1060</ele>
        <time>2009-02-11T13:44:27Z</time>
      </trkpt>
      <trkpt lat="43.71196" lon="6.85516">
        <ele>1059</ele>
        <time>2009-02-11T13:44:33Z</time>
      </trkpt>
      <trkpt lat="43.71188" lon="6.85508">
        <ele>1057</ele>
        <time>2009-02-11T13:44:37Z</time>
      </trkpt>
      <trkpt lat="43.71183" lon="6.85499">
        <ele>1055</ele>
        <time>2009-02-11T13:44:41Z</time>
      </trkpt>
      <trkpt lat="43.71185" lon="6.85479">
        <ele>1056</ele>
        <time>2009-02-11T13:44:46Z</time>
      </trkpt>
      <trkpt lat="43.71185" lon="6.85478">
        <ele>1056</ele>
        <time>2009-02-11T13:44:47Z</time>
      </trkpt>
      <trkpt lat="43.71187" lon="6.85476">
        <ele>1056</ele>
        <time>2009-02-11T13:44:52Z</time>
      </trkpt>
      <trkpt lat="43.71182" lon="6.85465">
        <ele>1055</ele>
        <time>2009-02-11T13:44:57Z</time>
      </trkpt>
      <trkpt lat="43.71177" lon="6.8546">
        <ele>1054</ele>
        <time>2009-02-11T13:45:01Z</time>
      </trkpt>
      <trkpt lat="43.71171" lon="6.85454">
        <ele>1052</ele>
        <time>2009-02-11T13:45:05Z</time>
      </trkpt>
      <trkpt lat="43.71169" lon="6.8544">
        <ele>1052</ele>
        <time>2009-02-11T13:45:11Z</time>
      </trkpt>
      <trkpt lat="43.71169" lon="6.85438">
        <ele>1052</ele>
        <time>2009-02-11T13:45:15Z</time>
      </trkpt>
      <trkpt lat="43.71169" lon="6.85437">
        <ele>1052</ele>
        <time>2009-02-11T13:45:19Z</time>
      </trkpt>
      <trkpt lat="43.71172" lon="6.8543">
        <ele>1053</ele>
        <time>2009-02-11T13:45:26Z</time>
      </trkpt>
      <trkpt lat="43.71172" lon="6.85428">
        <ele>1053</ele>
        <time>2009-02-11T13:45:27Z</time>
      </trkpt>
      <trkpt lat="43.71173" lon="6.85419">
        <ele>1053</ele>
        <time>2009-02-11T13:45:34Z</time>
      </trkpt>
      <trkpt lat="43.71173" lon="6.85414">
        <ele>1053</ele>
        <time>2009-02-11T13:45:39Z</time>
      </trkpt>
      <trkpt lat="43.71172" lon="6.85403">
        <ele>1053</ele>
        <time>2009-02-11T13:45:44Z</time>
      </trkpt>
      <trkpt lat="43.71175" lon="6.85401">
        <ele>1054</ele>
        <time>2009-02-11T13:45:50Z</time>
      </trkpt>
      <trkpt lat="43.71177" lon="6.85403">
        <ele>1054</ele>
        <time>2009-02-11T13:45:54Z</time>
      </trkpt>
      <trkpt lat="43.71181" lon="6.85402">
        <ele>1056</ele>
        <time>2009-02-11T13:46:01Z</time>
      </trkpt>
      <trkpt lat="43.71183" lon="6.85401">
        <ele>1056</ele>
        <time>2009-02-11T13:46:09Z</time>
      </trkpt>
      <trkpt lat="43.71187" lon="6.85399">
        <ele>1057</ele>
        <time>2009-02-11T13:46:13Z</time>
      </trkpt>
      <trkpt lat="43.7119" lon="6.85393">
        <ele>1058</ele>
        <time>2009-02-11T13:46:19Z</time>
      </trkpt>
      <trkpt lat="43.71191" lon="6.8539">
        <ele>1058</ele>
        <time>2009-02-11T13:46:25Z</time>
      </trkpt>
      <trkpt lat="43.71186" lon="6.85372">
        <ele>1057</ele>
        <time>2009-02-11T13:46:30Z</time>
      </trkpt>
      <trkpt lat="43.7118" lon="6.85342">
        <ele>1055</ele>
        <time>2009-02-11T13:46:36Z</time>
      </trkpt>
      <trkpt lat="43.71177" lon="6.85328">
        <ele>1054</ele>
        <time>2009-02-11T13:46:40Z</time>
      </trkpt>
      <trkpt lat="43.71178" lon="6.85324">
        <ele>1054</ele>
        <time>2009-02-11T13:46:44Z</time>
      </trkpt>
      <trkpt lat="43.71176" lon="6.85321">
        <ele>1054</ele>
        <time>2009-02-11T13:46:54Z</time>
      </trkpt>
      <trkpt lat="43.71178" lon="6.85313">
        <ele>1054</ele>
        <time>2009-02-11T13:46:57Z</time>
      </trkpt>
      <trkpt lat="43.71175" lon="6.85299">
        <ele>1053</ele>
        <time>2009-02-11T13:47:02Z</time>
      </trkpt>
      <trkpt lat="43.71173" lon="6.85293">
        <ele>1052</ele>
        <time>2009-02-11T13:47:04Z</time>
      </trkpt>
      <trkpt lat="43.71172" lon="6.85285">
        <ele>1051</ele>
        <time>2009-02-11T13:47:07Z</time>
      </trkpt>
      <trkpt lat="43.71165" lon="6.85274">
        <ele>1048</ele>
        <time>2009-02-11T13:47:13Z</time>
      </trkpt>
      <trkpt lat="43.71162" lon="6.85256">
        <ele>1047</ele>
        <time>2009-02-11T13:47:19Z</time>
      </trkpt>
      <trkpt lat="43.71161" lon="6.85237">
        <ele>1046</ele>
        <time>2009-02-11T13:47:25Z</time>
      </trkpt>
      <trkpt lat="43.71162" lon="6.85234">
        <ele>1046</ele>
        <time>2009-02-11T13:47:26Z</time>
      </trkpt>
      <trkpt lat="43.71158" lon="6.85224">
        <ele>1046</ele>
        <time>2009-02-11T13:47:32Z</time>
      </trkpt>
      <trkpt lat="43.71156" lon="6.85213">
        <ele>1045</ele>
        <time>2009-02-11T13:47:36Z</time>
      </trkpt>
      <trkpt lat="43.71153" lon="6.85191">
        <ele>1043</ele>
        <time>2009-02-11T13:47:43Z</time>
      </trkpt>
      <trkpt lat="43.71151" lon="6.85176">
        <ele>1043</ele>
        <time>2009-02-11T13:47:48Z</time>
      </trkpt>
      <trkpt lat="43.71149" lon="6.85154">
        <ele>1042</ele>
        <time>2009-02-11T13:47:54Z</time>
      </trkpt>
      <trkpt lat="43.7115" lon="6.85135">
        <ele>1041</ele>
        <time>2009-02-11T13:47:59Z</time>
      </trkpt>
      <trkpt lat="43.71149" lon="6.85123">
        <ele>1040</ele>
        <time>2009-02-11T13:48:02Z</time>
      </trkpt>
      <trkpt lat="43.71143" lon="6.85105">
        <ele>1040</ele>
        <time>2009-02-11T13:48:07Z</time>
      </trkpt>
      <trkpt lat="43.71139" lon="6.85093">
        <ele>1039</ele>
        <time>2009-02-11T13:48:10Z</time>
      </trkpt>
      <trkpt lat="43.71136" lon="6.8509">
        <ele>1039</ele>
        <time>2009-02-11T13:48:15Z</time>
      </trkpt>
      <trkpt lat="43.71135" lon="6.8509">
        <ele>1039</ele>
        <time>2009-02-11T13:48:21Z</time>
      </trkpt>
      <trkpt lat="43.71127" lon="6.85089">
        <ele>1038</ele>
        <time>2009-02-11T13:48:26Z</time>
      </trkpt>
      <trkpt lat="43.71118" lon="6.85087">
        <ele>1037</ele>
        <time>2009-02-11T13:48:31Z</time>
      </trkpt>
      <trkpt lat="43.71113" lon="6.85081">
        <ele>1036</ele>
        <time>2009-02-11T13:48:34Z</time>
      </trkpt>
      <trkpt lat="43.71111" lon="6.8508">
        <ele>1035</ele>
        <time>2009-02-11T13:48:35Z</time>
      </trkpt>
      <trkpt lat="43.71103" lon="6.85075">
        <ele>1032</ele>
        <time>2009-02-11T13:48:39Z</time>
      </trkpt>
      <trkpt lat="43.71098" lon="6.85057">
        <ele>1030</ele>
        <time>2009-02-11T13:48:45Z</time>
      </trkpt>
      <trkpt lat="43.71098" lon="6.85054">
        <ele>1030</ele>
        <time>2009-02-11T13:48:46Z</time>
      </trkpt>
      <trkpt lat="43.711" lon="6.85029">
        <ele>1028</ele>
        <time>2009-02-11T13:48:53Z</time>
      </trkpt>
      <trkpt lat="43.71101" lon="6.85001">
        <ele>1028</ele>
        <time>2009-02-11T13:48:59Z</time>
      </trkpt>
      <trkpt lat="43.71101" lon="6.84984">
        <ele>1027</ele>
        <time>2009-02-11T13:49:03Z</time>
      </trkpt>
      <trkpt lat="43.71098" lon="6.84967">
        <ele>1026</ele>
        <time>2009-02-11T13:49:07Z</time>
      </trkpt>
      <trkpt lat="43.71098" lon="6.84938">
        <ele>1025</ele>
        <time>2009-02-11T13:49:11Z</time>
      </trkpt>
      <trkpt lat="43.71097" lon="6.84911">
        <ele>1024</ele>
        <time>2009-02-11T13:49:15Z</time>
      </trkpt>
      <trkpt lat="43.71097" lon="6.84904">
        <ele>1024</ele>
        <time>2009-02-11T13:49:16Z</time>
      </trkpt>
      <trkpt lat="43.71098" lon="6.84887">
        <ele>1024</ele>
        <time>2009-02-11T13:49:19Z</time>
      </trkpt>
      <trkpt lat="43.71098" lon="6.84876">
        <ele>1024</ele>
        <time>2009-02-11T13:49:23Z</time>
      </trkpt>
      <trkpt lat="43.71091" lon="6.84864">
        <ele>1021</ele>
        <time>2009-02-11T13:49:28Z</time>
      </trkpt>
      <trkpt lat="43.71083" lon="6.84847">
        <ele>1020</ele>
        <time>2009-02-11T13:49:32Z</time>
      </trkpt>
      <trkpt lat="43.71081" lon="6.84835">
        <ele>1018</ele>
        <time>2009-02-11T13:49:34Z</time>
      </trkpt>
      <trkpt lat="43.71076" lon="6.84836">
        <ele>1016</ele>
        <time>2009-02-11T13:49:38Z</time>
      </trkpt>
      <trkpt lat="43.71072" lon="6.84851">
        <ele>1015</ele>
        <time>2009-02-11T13:49:42Z</time>
      </trkpt>
      <trkpt lat="43.71071" lon="6.84854">
        <ele>1015</ele>
        <time>2009-02-11T13:49:43Z</time>
      </trkpt>
      <trkpt lat="43.71064" lon="6.84852">
        <ele>1012</ele>
        <time>2009-02-11T13:49:47Z</time>
      </trkpt>
      <trkpt lat="43.71055" lon="6.84825">
        <ele>1007</ele>
        <time>2009-02-11T13:49:52Z</time>
      </trkpt>
      <trkpt lat="43.71043" lon="6.84791">
        <ele>1000</ele>
        <time>2009-02-11T13:49:56Z</time>
      </trkpt>
      <trkpt lat="43.71024" lon="6.84741">
        <ele>989</ele>
        <time>2009-02-11T13:50:01Z</time>
      </trkpt>
      <trkpt lat="43.71012" lon="6.84709">
        <ele>982</ele>
        <time>2009-02-11T13:50:05Z</time>
      </trkpt>
      <trkpt lat="43.7101" lon="6.84702">
        <ele>980</ele>
        <time>2009-02-11T13:50:06Z</time>
      </trkpt>
      <trkpt lat="43.71001" lon="6.84667">
        <ele>974</ele>
        <time>2009-02-11T13:50:11Z</time>
      </trkpt>
      <trkpt lat="43.70994" lon="6.84647">
        <ele>970</ele>
        <time>2009-02-11T13:50:14Z</time>
      </trkpt>
      <trkpt lat="43.70989" lon="6.84638">
        <ele>967</ele>
        <time>2009-02-11T13:50:18Z</time>
      </trkpt>
      <trkpt lat="43.70981" lon="6.84642">
        <ele>964</ele>
        <time>2009-02-11T13:50:22Z</time>
      </trkpt>
      <trkpt lat="43.70979" lon="6.84639">
        <ele>963</ele>
        <time>2009-02-11T13:50:23Z</time>
      </trkpt>
      <trkpt lat="43.70967" lon="6.84609">
        <ele>956</ele>
        <time>2009-02-11T13:50:28Z</time>
      </trkpt>
      <trkpt lat="43.70961" lon="6.84588">
        <ele>951</ele>
        <time>2009-02-11T13:50:32Z</time>
      </trkpt>
      <trkpt lat="43.70958" lon="6.84592">
        <ele>949</ele>
        <time>2009-02-11T13:50:36Z</time>
      </trkpt>
      <trkpt lat="43.70954" lon="6.84596">
        <ele>946</ele>
        <time>2009-02-11T13:50:39Z</time>
      </trkpt>
      <trkpt lat="43.70953" lon="6.84583">
        <ele>945</ele>
        <time>2009-02-11T13:50:42Z</time>
      </trkpt>
      <trkpt lat="43.70947" lon="6.84537">
        <ele>941</ele>
        <time>2009-02-11T13:50:48Z</time>
      </trkpt>
      <trkpt lat="43.70947" lon="6.84513">
        <ele>940</ele>
        <time>2009-02-11T13:50:51Z</time>
      </trkpt>
      <trkpt lat="43.70945" lon="6.84508">
        <ele>939</ele>
        <time>2009-02-11T13:50:55Z</time>
      </trkpt>
      <trkpt lat="43.70938" lon="6.84518">
        <ele>935</ele>
        <time>2009-02-11T13:50:59Z</time>
      </trkpt>
      <trkpt lat="43.70935" lon="6.84509">
        <ele>932</ele>
        <time>2009-02-11T13:51:02Z</time>
      </trkpt>
      <trkpt lat="43.70935" lon="6.84493">
        <ele>932</ele>
        <time>2009-02-11T13:51:06Z</time>
      </trkpt>
      <trkpt lat="43.70933" lon="6.84497">
        <ele>931</ele>
        <time>2009-02-11T13:51:08Z</time>
      </trkpt>
      <trkpt lat="43.70924" lon="6.84516">
        <ele>925</ele>
        <time>2009-02-11T13:51:13Z</time>
      </trkpt>
      <trkpt lat="43.70923" lon="6.84518">
        <ele>924</ele>
        <time>2009-02-11T13:51:14Z</time>
      </trkpt>
      <trkpt lat="43.70921" lon="6.84511">
        <ele>923</ele>
        <time>2009-02-11T13:51:18Z</time>
      </trkpt>
      <trkpt lat="43.70919" lon="6.84489">
        <ele>921</ele>
        <time>2009-02-11T13:51:22Z</time>
      </trkpt>
      <trkpt lat="43.70919" lon="6.84472">
        <ele>921</ele>
        <time>2009-02-11T13:51:26Z</time>
      </trkpt>
      <trkpt lat="43.70918" lon="6.84469">
        <ele>921</ele>
        <time>2009-02-11T13:51:27Z</time>
      </trkpt>
      <trkpt lat="43.70914" lon="6.84461">
        <ele>918</ele>
        <time>2009-02-11T13:51:32Z</time>
      </trkpt>
      <trkpt lat="43.70914" lon="6.84454">
        <ele>918</ele>
        <time>2009-02-11T13:51:34Z</time>
      </trkpt>
      <trkpt lat="43.7091" lon="6.84433">
        <ele>916</ele>
        <time>2009-02-11T13:51:39Z</time>
      </trkpt>
      <trkpt lat="43.70908" lon="6.8441">
        <ele>915</ele>
        <time>2009-02-11T13:51:43Z</time>
      </trkpt>
      <trkpt lat="43.70905" lon="6.84386">
        <ele>914</ele>
        <time>2009-02-11T13:51:48Z</time>
      </trkpt>
      <trkpt lat="43.709" lon="6.84384">
        <ele>911</ele>
        <time>2009-02-11T13:51:52Z</time>
      </trkpt>
      <trkpt lat="43.70896" lon="6.84379">
        <ele>909</ele>
        <time>2009-02-11T13:51:55Z</time>
      </trkpt>
      <trkpt lat="43.70896" lon="6.84374">
        <ele>910</ele>
        <time>2009-02-11T13:51:56Z</time>
      </trkpt>
      <trkpt lat="43.70891" lon="6.84343">
        <ele>908</ele>
        <time>2009-02-11T13:52:02Z</time>
      </trkpt>
      <trkpt lat="43.70894" lon="6.84326">
        <ele>909</ele>
        <time>2009-02-11T13:52:07Z</time>
      </trkpt>
      <trkpt lat="43.70895" lon="6.84323">
        <ele>910</ele>
        <time>2009-02-11T13:52:10Z</time>
      </trkpt>
      <trkpt lat="43.70898" lon="6.84315">
        <ele>912</ele>
        <time>2009-02-11T13:52:17Z</time>
      </trkpt>
      <trkpt lat="43.70898" lon="6.84309">
        <ele>912</ele>
        <time>2009-02-11T13:52:21Z</time>
      </trkpt>
      <trkpt lat="43.70898" lon="6.84293">
        <ele>912</ele>
        <time>2009-02-11T13:52:26Z</time>
      </trkpt>
      <trkpt lat="43.709" lon="6.84268">
        <ele>912</ele>
        <time>2009-02-11T13:52:30Z</time>
      </trkpt>
      <trkpt lat="43.70902" lon="6.84228">
        <ele>913</ele>
        <time>2009-02-11T13:52:36Z</time>
      </trkpt>
      <trkpt lat="43.70902" lon="6.84206">
        <ele>914</ele>
        <time>2009-02-11T13:52:40Z</time>
      </trkpt>
      <trkpt lat="43.70904" lon="6.84169">
        <ele>915</ele>
        <time>2009-02-11T13:52:46Z</time>
      </trkpt>
      <trkpt lat="43.70903" lon="6.84163">
        <ele>914</ele>
        <time>2009-02-11T13:52:49Z</time>
      </trkpt>
      <trkpt lat="43.70901" lon="6.84166">
        <ele>913</ele>
        <time>2009-02-11T13:52:50Z</time>
      </trkpt>
      <trkpt lat="43.70894" lon="6.84181">
        <ele>911</ele>
        <time>2009-02-11T13:52:53Z</time>
      </trkpt>
      <trkpt lat="43.70886" lon="6.84197">
        <ele>907</ele>
        <time>2009-02-11T13:52:58Z</time>
      </trkpt>
      <trkpt lat="43.70877" lon="6.84211">
        <ele>902</ele>
        <time>2009-02-11T13:53:02Z</time>
      </trkpt>
      <trkpt lat="43.70874" lon="6.84206">
        <ele>901</ele>
        <time>2009-02-11T13:53:06Z</time>
      </trkpt>
      <trkpt lat="43.70874" lon="6.84178">
        <ele>901</ele>
        <time>2009-02-11T13:53:11Z</time>
      </trkpt>
      <trkpt lat="43.70869" lon="6.84174">
        <ele>899</ele>
        <time>2009-02-11T13:53:15Z</time>
      </trkpt>
      <trkpt lat="43.70866" lon="6.84176">
        <ele>898</ele>
        <time>2009-02-11T13:53:18Z</time>
      </trkpt>
      <trkpt lat="43.70863" lon="6.84174">
        <ele>896</ele>
        <time>2009-02-11T13:53:22Z</time>
      </trkpt>
      <trkpt lat="43.7085" lon="6.84196">
        <ele>890</ele>
        <time>2009-02-11T13:53:29Z</time>
      </trkpt>
      <trkpt lat="43.70842" lon="6.84212">
        <ele>886</ele>
        <time>2009-02-11T13:53:34Z</time>
      </trkpt>
      <trkpt lat="43.70839" lon="6.84218">
        <ele>885</ele>
        <time>2009-02-11T13:53:36Z</time>
      </trkpt>
      <trkpt lat="43.70825" lon="6.84236">
        <ele>876</ele>
        <time>2009-02-11T13:53:41Z</time>
      </trkpt>
      <trkpt lat="43.70816" lon="6.84249">
        <ele>870</ele>
        <time>2009-02-11T13:53:44Z</time>
      </trkpt>
      <trkpt lat="43.70807" lon="6.84263">
        <ele>863</ele>
        <time>2009-02-11T13:53:47Z</time>
      </trkpt>
      <trkpt lat="43.70797" lon="6.84284">
        <ele>857</ele>
        <time>2009-02-11T13:53:51Z</time>
      </trkpt>
      <trkpt lat="43.70787" lon="6.84317">
        <ele>851</ele>
        <time>2009-02-11T13:53:56Z</time>
      </trkpt>
      <trkpt lat="43.70784" lon="6.84344">
        <ele>848</ele>
        <time>2009-02-11T13:54:02Z</time>
      </trkpt>
      <trkpt lat="43.70783" lon="6.84351">
        <ele>848</ele>
        <time>2009-02-11T13:54:03Z</time>
      </trkpt>
      <trkpt lat="43.70784" lon="6.84378">
        <ele>848</ele>
        <time>2009-02-11T13:54:07Z</time>
      </trkpt>
      <trkpt lat="43.7078" lon="6.84401">
        <ele>847</ele>
        <time>2009-02-11T13:54:11Z</time>
      </trkpt>
      <trkpt lat="43.70778" lon="6.84407">
        <ele>846</ele>
        <time>2009-02-11T13:54:12Z</time>
      </trkpt>
      <trkpt lat="43.70775" lon="6.8443">
        <ele>845</ele>
        <time>2009-02-11T13:54:17Z</time>
      </trkpt>
      <trkpt lat="43.70776" lon="6.84451">
        <ele>845</ele>
        <time>2009-02-11T13:54:22Z</time>
      </trkpt>
      <trkpt lat="43.7077" lon="6.84471">
        <ele>844</ele>
        <time>2009-02-11T13:54:26Z</time>
      </trkpt>
      <trkpt lat="43.70765" lon="6.84502">
        <ele>844</ele>
        <time>2009-02-11T13:54:30Z</time>
      </trkpt>
      <trkpt lat="43.7076" lon="6.84537">
        <ele>843</ele>
        <time>2009-02-11T13:54:34Z</time>
      </trkpt>
      <trkpt lat="43.70754" lon="6.84575">
        <ele>842</ele>
        <time>2009-02-11T13:54:38Z</time>
      </trkpt>
      <trkpt lat="43.7074" lon="6.84611">
        <ele>837</ele>
        <time>2009-02-11T13:54:42Z</time>
      </trkpt>
      <trkpt lat="43.70724" lon="6.84638">
        <ele>831</ele>
        <time>2009-02-11T13:54:46Z</time>
      </trkpt>
      <trkpt lat="43.70703" lon="6.84663">
        <ele>821</ele>
        <time>2009-02-11T13:54:51Z</time>
      </trkpt>
      <trkpt lat="43.70699" lon="6.84667">
        <ele>819</ele>
        <time>2009-02-11T13:54:52Z</time>
      </trkpt>
      <trkpt lat="43.70694" lon="6.8467">
        <ele>816</ele>
        <time>2009-02-11T13:54:56Z</time>
      </trkpt>
      <trkpt lat="43.70695" lon="6.84669">
        <ele>816</ele>
        <time>2009-02-11T13:54:57Z</time>
      </trkpt>
      <trkpt lat="43.70697" lon="6.84668">
        <ele>818</ele>
        <time>2009-02-11T13:55:03Z</time>
      </trkpt>
      <trkpt lat="43.70696" lon="6.84668">
        <ele>817</ele>
        <time>2009-02-11T13:55:09Z</time>
      </trkpt>
      <trkpt lat="43.70694" lon="6.84672">
        <ele>816</ele>
        <time>2009-02-11T13:55:11Z</time>
      </trkpt>
      <trkpt lat="43.70685" lon="6.84665">
        <ele>810</ele>
        <time>2009-02-11T13:55:15Z</time>
      </trkpt>
      <trkpt lat="43.70678" lon="6.84642">
        <ele>806</ele>
        <time>2009-02-11T13:55:19Z</time>
      </trkpt>
      <trkpt lat="43.70676" lon="6.84633">
        <ele>804</ele>
        <time>2009-02-11T13:55:23Z</time>
      </trkpt>
      <trkpt lat="43.70674" lon="6.84627">
        <ele>803</ele>
        <time>2009-02-11T13:55:27Z</time>
      </trkpt>
      <trkpt lat="43.70673" lon="6.84621">
        <ele>803</ele>
        <time>2009-02-11T13:55:29Z</time>
      </trkpt>
      <trkpt lat="43.70661" lon="6.84616">
        <ele>797</ele>
        <time>2009-02-11T13:55:34Z</time>
      </trkpt>
      <trkpt lat="43.70649" lon="6.8461">
        <ele>792</ele>
        <time>2009-02-11T13:55:37Z</time>
      </trkpt>
      <trkpt lat="43.70628" lon="6.84605">
        <ele>784</ele>
        <time>2009-02-11T13:55:41Z</time>
      </trkpt>
      <trkpt lat="43.70612" lon="6.84609">
        <ele>780</ele>
        <time>2009-02-11T13:55:44Z</time>
      </trkpt>
      <trkpt lat="43.70607" lon="6.84614">
        <ele>779</ele>
        <time>2009-02-11T13:55:46Z</time>
      </trkpt>
      <trkpt lat="43.70597" lon="6.84619">
        <ele>776</ele>
        <time>2009-02-11T13:55:50Z</time>
      </trkpt>
      <trkpt lat="43.70598" lon="6.84615">
        <ele>776</ele>
        <time>2009-02-11T13:55:53Z</time>
      </trkpt>
      <trkpt lat="43.70597" lon="6.84613">
        <ele>776</ele>
        <time>2009-02-11T13:55:57Z</time>
      </trkpt>
      <trkpt lat="43.70594" lon="6.84615">
        <ele>775</ele>
        <time>2009-02-11T13:55:58Z</time>
      </trkpt>
      <trkpt lat="43.70571" lon="6.84628">
        <ele>769</ele>
        <time>2009-02-11T13:56:04Z</time>
      </trkpt>
      <trkpt lat="43.70558" lon="6.84634">
        <ele>764</ele>
        <time>2009-02-11T13:56:07Z</time>
      </trkpt>
      <trkpt lat="43.70544" lon="6.84642">
        <ele>760</ele>
        <time>2009-02-11T13:56:10Z</time>
      </trkpt>
      <trkpt lat="43.70525" lon="6.84663">
        <ele>756</ele>
        <time>2009-02-11T13:56:15Z</time>
      </trkpt>
      <trkpt lat="43.70523" lon="6.84676">
        <ele>756</ele>
        <time>2009-02-11T13:56:17Z</time>
      </trkpt>
      <trkpt lat="43.70515" lon="6.84704">
        <ele>755</ele>
        <time>2009-02-11T13:56:22Z</time>
      </trkpt>
      <trkpt lat="43.70501" lon="6.84715">
        <ele>753</ele>
        <time>2009-02-11T13:56:25Z</time>
      </trkpt>
      <trkpt lat="43.70475" lon="6.84739">
        <ele>750</ele>
        <time>2009-02-11T13:56:30Z</time>
      </trkpt>
      <trkpt lat="43.70462" lon="6.84745">
        <ele>748</ele>
        <time>2009-02-11T13:56:34Z</time>
      </trkpt>
      <trkpt lat="43.70459" lon="6.84736">
        <ele>747</ele>
        <time>2009-02-11T13:56:38Z</time>
      </trkpt>
      <trkpt lat="43.70457" lon="6.84732">
        <ele>746</ele>
        <time>2009-02-11T13:56:40Z</time>
      </trkpt>
      <trkpt lat="43.70453" lon="6.84718">
        <ele>745</ele>
        <time>2009-02-11T13:56:44Z</time>
      </trkpt>
      <trkpt lat="43.70443" lon="6.8472">
        <ele>743</ele>
        <time>2009-02-11T13:56:48Z</time>
      </trkpt>
      <trkpt lat="43.70435" lon="6.8473">
        <ele>741</ele>
        <time>2009-02-11T13:56:51Z</time>
      </trkpt>
      <trkpt lat="43.70433" lon="6.84734">
        <ele>741</ele>
        <time>2009-02-11T13:56:52Z</time>
      </trkpt>
      <trkpt lat="43.70425" lon="6.8475">
        <ele>739</ele>
        <time>2009-02-11T13:56:57Z</time>
      </trkpt>
      <trkpt lat="43.70422" lon="6.84751">
        <ele>738</ele>
        <time>2009-02-11T13:57:02Z</time>
      </trkpt>
      <trkpt lat="43.70419" lon="6.84749">
        <ele>737</ele>
        <time>2009-02-11T13:57:10Z</time>
      </trkpt>
      <trkpt lat="43.70415" lon="6.84746">
        <ele>736</ele>
        <time>2009-02-11T13:57:14Z</time>
      </trkpt>
      <trkpt lat="43.70401" lon="6.84733">
        <ele>734</ele>
        <time>2009-02-11T13:57:20Z</time>
      </trkpt>
      <trkpt lat="43.70398" lon="6.84731">
        <ele>733</ele>
        <time>2009-02-11T13:57:25Z</time>
      </trkpt>
      <trkpt lat="43.70388" lon="6.84724">
        <ele>732</ele>
        <time>2009-02-11T13:57:30Z</time>
      </trkpt>
      <trkpt lat="43.70378" lon="6.84725">
        <ele>732</ele>
        <time>2009-02-11T13:57:33Z</time>
      </trkpt>
      <trkpt lat="43.70371" lon="6.84725">
        <ele>732</ele>
        <time>2009-02-11T13:57:35Z</time>
      </trkpt>
      <trkpt lat="43.70348" lon="6.84734">
        <ele>734</ele>
        <time>2009-02-11T13:57:41Z</time>
      </trkpt>
      <trkpt lat="43.70345" lon="6.84736">
        <ele>735</ele>
        <time>2009-02-11T13:57:42Z</time>
      </trkpt>
      <trkpt lat="43.70337" lon="6.84752">
        <ele>737</ele>
        <time>2009-02-11T13:57:47Z</time>
      </trkpt>
      <trkpt lat="43.70334" lon="6.84753">
        <ele>738</ele>
        <time>2009-02-11T13:57:49Z</time>
      </trkpt>
      <trkpt lat="43.70333" lon="6.84749">
        <ele>737</ele>
        <time>2009-02-11T13:57:56Z</time>
      </trkpt>
      <trkpt lat="43.70333" lon="6.84747">
        <ele>737</ele>
        <time>2009-02-11T13:57:57Z</time>
      </trkpt>
      <trkpt lat="43.70333" lon="6.84739">
        <ele>736</ele>
        <time>2009-02-11T13:58:03Z</time>
      </trkpt>
      <trkpt lat="43.70333" lon="6.84738">
        <ele>736</ele>
        <time>2009-02-11T13:58:04Z</time>
      </trkpt>
      <trkpt lat="43.70328" lon="6.84733">
        <ele>736</ele>
        <time>2009-02-11T13:58:11Z</time>
      </trkpt>
      <trkpt lat="43.70324" lon="6.84744">
        <ele>737</ele>
        <time>2009-02-11T13:58:18Z</time>
      </trkpt>
      <trkpt lat="43.70319" lon="6.84749">
        <ele>738</ele>
        <time>2009-02-11T13:58:24Z</time>
      </trkpt>
      <trkpt lat="43.70314" lon="6.84753">
        <ele>738</ele>
        <time>2009-02-11T13:58:31Z</time>
      </trkpt>
      <trkpt lat="43.70311" lon="6.84757">
        <ele>739</ele>
        <time>2009-02-11T13:58:36Z</time>
      </trkpt>
      <trkpt lat="43.70311" lon="6.84757">
        <ele>739</ele>
        <time>2009-02-11T13:58:44Z</time>
      </trkpt>
      <trkpt lat="43.70313" lon="6.84756">
        <ele>739</ele>
        <time>2009-02-11T13:59:06Z</time>
      </trkpt>
      <trkpt lat="43.70307" lon="6.84763">
        <ele>739</ele>
        <time>2009-02-11T13:59:14Z</time>
      </trkpt>
      <trkpt lat="43.7029" lon="6.84778">
        <ele>741</ele>
        <time>2009-02-11T13:59:21Z</time>
      </trkpt>
      <trkpt lat="43.70271" lon="6.84797">
        <ele>741</ele>
        <time>2009-02-11T13:59:27Z</time>
      </trkpt>
      <trkpt lat="43.70247" lon="6.84815">
        <ele>739</ele>
        <time>2009-02-11T13:59:33Z</time>
      </trkpt>
      <trkpt lat="43.70243" lon="6.84818">
        <ele>739</ele>
        <time>2009-02-11T13:59:34Z</time>
      </trkpt>
      <trkpt lat="43.70222" lon="6.84818">
        <ele>736</ele>
        <time>2009-02-11T13:59:38Z</time>
      </trkpt>
      <trkpt lat="43.70189" lon="6.84817">
        <ele>730</ele>
        <time>2009-02-11T13:59:43Z</time>
      </trkpt>
      <trkpt lat="43.70168" lon="6.84834">
        <ele>726</ele>
        <time>2009-02-11T13:59:46Z</time>
      </trkpt>
      <trkpt lat="43.70131" lon="6.84875">
        <ele>722</ele>
        <time>2009-02-11T13:59:51Z</time>
      </trkpt>
      <trkpt lat="43.70093" lon="6.84894">
        <ele>719</ele>
        <time>2009-02-11T13:59:55Z</time>
      </trkpt>
      <trkpt lat="43.70073" lon="6.8489">
        <ele>718</ele>
        <time>2009-02-11T13:59:57Z</time>
      </trkpt>
      <trkpt lat="43.70025" lon="6.84871">
        <ele>716</ele>
        <time>2009-02-11T14:00:02Z</time>
      </trkpt>
      <trkpt lat="43.69991" lon="6.84858">
        <ele>715</ele>
        <time>2009-02-11T14:00:07Z</time>
      </trkpt>
      <trkpt lat="43.69942" lon="6.84839">
        <ele>713</ele>
        <time>2009-02-11T14:00:14Z</time>
      </trkpt>
      <trkpt lat="43.69893" lon="6.84821">
        <ele>710</ele>
        <time>2009-02-11T14:00:21Z</time>
      </trkpt>
      <trkpt lat="43.69862" lon="6.8481">
        <ele>708</ele>
        <time>2009-02-11T14:00:26Z</time>
      </trkpt>
      <trkpt lat="43.69836" lon="6.84821">
        <ele>707</ele>
        <time>2009-02-11T14:00:31Z</time>
      </trkpt>
      <trkpt lat="43.69815" lon="6.84829">
        <ele>707</ele>
        <time>2009-02-11T14:00:37Z</time>
      </trkpt>
      <trkpt lat="43.69779" lon="6.84822">
        <ele>705</ele>
        <time>2009-02-11T14:00:42Z</time>
      </trkpt>
      <trkpt lat="43.6976" lon="6.8482">
        <ele>705</ele>
        <time>2009-02-11T14:00:45Z</time>
      </trkpt>
      <trkpt lat="43.69746" lon="6.84822">
        <ele>704</ele>
        <time>2009-02-11T14:00:47Z</time>
      </trkpt>
      <trkpt lat="43.69719" lon="6.84817">
        <ele>703</ele>
        <time>2009-02-11T14:00:51Z</time>
      </trkpt>
      <trkpt lat="43.69698" lon="6.84825">
        <ele>703</ele>
        <time>2009-02-11T14:00:55Z</time>
      </trkpt>
      <trkpt lat="43.69679" lon="6.84829">
        <ele>702</ele>
        <time>2009-02-11T14:00:58Z</time>
      </trkpt>
      <trkpt lat="43.69673" lon="6.84827">
        <ele>702</ele>
        <time>2009-02-11T14:00:59Z</time>
      </trkpt>
      <trkpt lat="43.6963" lon="6.84823">
        <ele>701</ele>
        <time>2009-02-11T14:01:05Z</time>
      </trkpt>
      <trkpt lat="43.69576" lon="6.84809">
        <ele>699</ele>
        <time>2009-02-11T14:01:12Z</time>
      </trkpt>
      <trkpt lat="43.69534" lon="6.8481">
        <ele>698</ele>
        <time>2009-02-11T14:01:17Z</time>
      </trkpt>
      <trkpt lat="43.69518" lon="6.84811">
        <ele>697</ele>
        <time>2009-02-11T14:01:19Z</time>
      </trkpt>
      <trkpt lat="43.6949" lon="6.84816">
        <ele>696</ele>
        <time>2009-02-11T14:01:23Z</time>
      </trkpt>
      <trkpt lat="43.69456" lon="6.84807">
        <ele>695</ele>
        <time>2009-02-11T14:01:28Z</time>
      </trkpt>
      <trkpt lat="43.69419" lon="6.84795">
        <ele>694</ele>
        <time>2009-02-11T14:01:33Z</time>
      </trkpt>
      <trkpt lat="43.69387" lon="6.84794">
        <ele>693</ele>
        <time>2009-02-11T14:01:37Z</time>
      </trkpt>
      <trkpt lat="43.69337" lon="6.84803">
        <ele>694</ele>
        <time>2009-02-11T14:01:44Z</time>
      </trkpt>
      <trkpt lat="43.69325" lon="6.84803">
        <ele>695</ele>
        <time>2009-02-11T14:01:46Z</time>
      </trkpt>
      <trkpt lat="43.69299" lon="6.84815">
        <ele>696</ele>
        <time>2009-02-11T14:01:51Z</time>
      </trkpt>
      <trkpt lat="43.69278" lon="6.84827">
        <ele>698</ele>
        <time>2009-02-11T14:01:57Z</time>
      </trkpt>
      <trkpt lat="43.69274" lon="6.84828">
        <ele>699</ele>
        <time>2009-02-11T14:01:58Z</time>
      </trkpt>
      <trkpt lat="43.69259" lon="6.84834">
        <ele>700</ele>
        <time>2009-02-11T14:02:04Z</time>
      </trkpt>
      <trkpt lat="43.69244" lon="6.84832">
        <ele>701</ele>
        <time>2009-02-11T14:02:10Z</time>
      </trkpt>
      <trkpt lat="43.69239" lon="6.84833">
        <ele>701</ele>
        <time>2009-02-11T14:02:12Z</time>
      </trkpt>
      <trkpt lat="43.69231" lon="6.84828">
        <ele>701</ele>
        <time>2009-02-11T14:02:18Z</time>
      </trkpt>
      <trkpt lat="43.69223" lon="6.84821">
        <ele>701</ele>
        <time>2009-02-11T14:02:24Z</time>
      </trkpt>
      <trkpt lat="43.69217" lon="6.84809">
        <ele>701</ele>
        <time>2009-02-11T14:02:30Z</time>
      </trkpt>
      <trkpt lat="43.69208" lon="6.84793">
        <ele>701</ele>
        <time>2009-02-11T14:02:38Z</time>
      </trkpt>
      <trkpt lat="43.69205" lon="6.84791">
        <ele>701</ele>
        <time>2009-02-11T14:02:40Z</time>
      </trkpt>
      <trkpt lat="43.69199" lon="6.84798">
        <ele>701</ele>
        <time>2009-02-11T14:02:46Z</time>
      </trkpt>
      <trkpt lat="43.69194" lon="6.84812">
        <ele>702</ele>
        <time>2009-02-11T14:02:53Z</time>
      </trkpt>
      <trkpt lat="43.69185" lon="6.84822">
        <ele>702</ele>
        <time>2009-02-11T14:02:59Z</time>
      </trkpt>
      <trkpt lat="43.69171" lon="6.84833">
        <ele>702</ele>
        <time>2009-02-11T14:03:06Z</time>
      </trkpt>
      <trkpt lat="43.69152" lon="6.84846">
        <ele>702</ele>
        <time>2009-02-11T14:03:14Z</time>
      </trkpt>
      <trkpt lat="43.69143" lon="6.84865">
        <ele>703</ele>
        <time>2009-02-11T14:03:20Z</time>
      </trkpt>
      <trkpt lat="43.69133" lon="6.8488">
        <ele>703</ele>
        <time>2009-02-11T14:03:26Z</time>
      </trkpt>
      <trkpt lat="43.69116" lon="6.84887">
        <ele>703</ele>
        <time>2009-02-11T14:03:32Z</time>
      </trkpt>
      <trkpt lat="43.69097" lon="6.84892">
        <ele>702</ele>
        <time>2009-02-11T14:03:38Z</time>
      </trkpt>
      <trkpt lat="43.69088" lon="6.84895">
        <ele>702</ele>
        <time>2009-02-11T14:03:41Z</time>
      </trkpt>
      <trkpt lat="43.69069" lon="6.84897">
        <ele>701</ele>
        <time>2009-02-11T14:03:46Z</time>
      </trkpt>
      <trkpt lat="43.69055" lon="6.84898">
        <ele>700</ele>
        <time>2009-02-11T14:03:50Z</time>
      </trkpt>
      <trkpt lat="43.69041" lon="6.84898">
        <ele>699</ele>
        <time>2009-02-11T14:03:54Z</time>
      </trkpt>
      <trkpt lat="43.69009" lon="6.84912">
        <ele>695</ele>
        <time>2009-02-11T14:04:01Z</time>
      </trkpt>
      <trkpt lat="43.6899" lon="6.84919">
        <ele>693</ele>
        <time>2009-02-11T14:04:05Z</time>
      </trkpt>
      <trkpt lat="43.68972" lon="6.84921">
        <ele>692</ele>
        <time>2009-02-11T14:04:09Z</time>
      </trkpt>
      <trkpt lat="43.68943" lon="6.84925">
        <ele>692</ele>
        <time>2009-02-11T14:04:15Z</time>
      </trkpt>
      <trkpt lat="43.68917" lon="6.84931">
        <ele>692</ele>
        <time>2009-02-11T14:04:20Z</time>
      </trkpt>
      <trkpt lat="43.6889" lon="6.84934">
        <ele>691</ele>
        <time>2009-02-11T14:04:25Z</time>
      </trkpt>
      <trkpt lat="43.68881" lon="6.84934">
        <ele>691</ele>
        <time>2009-02-11T14:04:27Z</time>
      </trkpt>
      <trkpt lat="43.68871" lon="6.84932">
        <ele>691</ele>
        <time>2009-02-11T14:04:29Z</time>
      </trkpt>
      <trkpt lat="43.68861" lon="6.8493">
        <ele>691</ele>
        <time>2009-02-11T14:04:31Z</time>
      </trkpt>
      <trkpt lat="43.68839" lon="6.84926">
        <ele>690</ele>
        <time>2009-02-11T14:04:36Z</time>
      </trkpt>
      <trkpt lat="43.68828" lon="6.84936">
        <ele>689</ele>
        <time>2009-02-11T14:04:39Z</time>
      </trkpt>
      <trkpt lat="43.68806" lon="6.84956">
        <ele>690</ele>
        <time>2009-02-11T14:04:44Z</time>
      </trkpt>
      <trkpt lat="43.68793" lon="6.84968">
        <ele>689</ele>
        <time>2009-02-11T14:04:47Z</time>
      </trkpt>
      <trkpt lat="43.68777" lon="6.84978">
        <ele>690</ele>
        <time>2009-02-11T14:04:50Z</time>
      </trkpt>
      <trkpt lat="43.68754" lon="6.84977">
        <ele>690</ele>
        <time>2009-02-11T14:04:55Z</time>
      </trkpt>
      <trkpt lat="43.68738" lon="6.84972">
        <ele>689</ele>
        <time>2009-02-11T14:04:58Z</time>
      </trkpt>
      <trkpt lat="43.68706" lon="6.84958">
        <ele>689</ele>
        <time>2009-02-11T14:05:04Z</time>
      </trkpt>
      <trkpt lat="43.68682" lon="6.84946">
        <ele>690</ele>
        <time>2009-02-11T14:05:09Z</time>
      </trkpt>
      <trkpt lat="43.68658" lon="6.84949">
        <ele>691</ele>
        <time>2009-02-11T14:05:14Z</time>
      </trkpt>
      <trkpt lat="43.68653" lon="6.8495">
        <ele>691</ele>
        <time>2009-02-11T14:05:15Z</time>
      </trkpt>
      <trkpt lat="43.68638" lon="6.84951">
        <ele>692</ele>
        <time>2009-02-11T14:05:18Z</time>
      </trkpt>
      <trkpt lat="43.68628" lon="6.84952">
        <ele>692</ele>
        <time>2009-02-11T14:05:20Z</time>
      </trkpt>
      <trkpt lat="43.68607" lon="6.84959">
        <ele>693</ele>
        <time>2009-02-11T14:05:25Z</time>
      </trkpt>
      <trkpt lat="43.68597" lon="6.84969">
        <ele>694</ele>
        <time>2009-02-11T14:05:28Z</time>
      </trkpt>
      <trkpt lat="43.6859" lon="6.84975">
        <ele>694</ele>
        <time>2009-02-11T14:05:30Z</time>
      </trkpt>
      <trkpt lat="43.68579" lon="6.84982">
        <ele>695</ele>
        <time>2009-02-11T14:05:33Z</time>
      </trkpt>
      <trkpt lat="43.68553" lon="6.85001">
        <ele>695</ele>
        <time>2009-02-11T14:05:41Z</time>
      </trkpt>
      <trkpt lat="43.68538" lon="6.85018">
        <ele>694</ele>
        <time>2009-02-11T14:05:46Z</time>
      </trkpt>
      <trkpt lat="43.6853" lon="6.85026">
        <ele>694</ele>
        <time>2009-02-11T14:05:48Z</time>
      </trkpt>
      <trkpt lat="43.68518" lon="6.85034">
        <ele>692</ele>
        <time>2009-02-11T14:05:51Z</time>
      </trkpt>
      <trkpt lat="43.6851" lon="6.85035">
        <ele>692</ele>
        <time>2009-02-11T14:05:53Z</time>
      </trkpt>
      <trkpt lat="43.68501" lon="6.8504">
        <ele>691</ele>
        <time>2009-02-11T14:05:56Z</time>
      </trkpt>
      <trkpt lat="43.68486" lon="6.85041">
        <ele>690</ele>
        <time>2009-02-11T14:06:01Z</time>
      </trkpt>
      <trkpt lat="43.68479" lon="6.8504">
        <ele>690</ele>
        <time>2009-02-11T14:06:04Z</time>
      </trkpt>
      <trkpt lat="43.68461" lon="6.85038">
        <ele>688</ele>
        <time>2009-02-11T14:06:10Z</time>
      </trkpt>
      <trkpt lat="43.68442" lon="6.85037">
        <ele>686</ele>
        <time>2009-02-11T14:06:16Z</time>
      </trkpt>
      <trkpt lat="43.68423" lon="6.85038">
        <ele>684</ele>
        <time>2009-02-11T14:06:21Z</time>
      </trkpt>
      <trkpt lat="43.68398" lon="6.85038">
        <ele>682</ele>
        <time>2009-02-11T14:06:26Z</time>
      </trkpt>
      <trkpt lat="43.68364" lon="6.85036">
        <ele>683</ele>
        <time>2009-02-11T14:06:32Z</time>
      </trkpt>
      <trkpt lat="43.6834" lon="6.8502">
        <ele>685</ele>
        <time>2009-02-11T14:06:37Z</time>
      </trkpt>
      <trkpt lat="43.68331" lon="6.85012">
        <ele>686</ele>
        <time>2009-02-11T14:06:39Z</time>
      </trkpt>
      <trkpt lat="43.68305" lon="6.85004">
        <ele>687</ele>
        <time>2009-02-11T14:06:44Z</time>
      </trkpt>
      <trkpt lat="43.68282" lon="6.85005">
        <ele>689</ele>
        <time>2009-02-11T14:06:50Z</time>
      </trkpt>
      <trkpt lat="43.68258" lon="6.85015">
        <ele>689</ele>
        <time>2009-02-11T14:06:57Z</time>
      </trkpt>
      <trkpt lat="43.68246" lon="6.85023">
        <ele>689</ele>
        <time>2009-02-11T14:07:01Z</time>
      </trkpt>
      <trkpt lat="43.6823" lon="6.85031">
        <ele>689</ele>
        <time>2009-02-11T14:07:06Z</time>
      </trkpt>
      <trkpt lat="43.68208" lon="6.85029">
        <ele>689</ele>
        <time>2009-02-11T14:07:12Z</time>
      </trkpt>
      <trkpt lat="43.68187" lon="6.8502">
        <ele>690</ele>
        <time>2009-02-11T14:07:18Z</time>
      </trkpt>
      <trkpt lat="43.68172" lon="6.85006">
        <ele>690</ele>
        <time>2009-02-11T14:07:23Z</time>
      </trkpt>
      <trkpt lat="43.68156" lon="6.84996">
        <ele>691</ele>
        <time>2009-02-11T14:07:28Z</time>
      </trkpt>
      <trkpt lat="43.68139" lon="6.84988">
        <ele>692</ele>
        <time>2009-02-11T14:07:33Z</time>
      </trkpt>
      <trkpt lat="43.68118" lon="6.84981">
        <ele>691</ele>
        <time>2009-02-11T14:07:39Z</time>
      </trkpt>
      <trkpt lat="43.68099" lon="6.84978">
        <ele>690</ele>
        <time>2009-02-11T14:07:44Z</time>
      </trkpt>
      <trkpt lat="43.68072" lon="6.84975">
        <ele>689</ele>
        <time>2009-02-11T14:07:51Z</time>
      </trkpt>
      <trkpt lat="43.68056" lon="6.84977">
        <ele>689</ele>
        <time>2009-02-11T14:07:55Z</time>
      </trkpt>
      <trkpt lat="43.6804" lon="6.84984">
        <ele>684</ele>
        <time>2009-02-11T14:07:58Z</time>
      </trkpt>
      <trkpt lat="43.68011" lon="6.84989">
        <ele>680</ele>
        <time>2009-02-11T14:08:04Z</time>
      </trkpt>
      <trkpt lat="43.67996" lon="6.85003">
        <ele>681</ele>
        <time>2009-02-11T14:08:08Z</time>
      </trkpt>
      <trkpt lat="43.67984" lon="6.85033">
        <ele>683</ele>
        <time>2009-02-11T14:08:14Z</time>
      </trkpt>
      <trkpt lat="43.67976" lon="6.85062">
        <ele>685</ele>
        <time>2009-02-11T14:08:21Z</time>
      </trkpt>
      <trkpt lat="43.6797" lon="6.85067">
        <ele>686</ele>
        <time>2009-02-11T14:08:23Z</time>
      </trkpt>
      <trkpt lat="43.67965" lon="6.85078">
        <ele>686</ele>
        <time>2009-02-11T14:08:26Z</time>
      </trkpt>
      <trkpt lat="43.67954" lon="6.85079">
        <ele>686</ele>
        <time>2009-02-11T14:08:30Z</time>
      </trkpt>
      <trkpt lat="43.67951" lon="6.85078">
        <ele>685</ele>
        <time>2009-02-11T14:08:31Z</time>
      </trkpt>
      <trkpt lat="43.6795" lon="6.85078">
        <ele>685</ele>
        <time>2009-02-11T14:08:36Z</time>
      </trkpt>
      <trkpt lat="43.67951" lon="6.85078">
        <ele>685</ele>
        <time>2009-02-11T14:08:39Z</time>
      </trkpt>
      <trkpt lat="43.67957" lon="6.85087">
        <ele>687</ele>
        <time>2009-02-11T14:08:44Z</time>
      </trkpt>
      <trkpt lat="43.67955" lon="6.85091">
        <ele>687</ele>
        <time>2009-02-11T14:08:46Z</time>
      </trkpt>
      <trkpt lat="43.67952" lon="6.85096">
        <ele>687</ele>
        <time>2009-02-11T14:08:49Z</time>
      </trkpt>
      <trkpt lat="43.67953" lon="6.85096">
        <ele>687</ele>
        <time>2009-02-11T14:08:56Z</time>
      </trkpt>
      <trkpt lat="43.67955" lon="6.8509">
        <ele>687</ele>
        <time>2009-02-11T14:09:01Z</time>
      </trkpt>
      <trkpt lat="43.67961" lon="6.85079">
        <ele>686</ele>
        <time>2009-02-11T14:09:06Z</time>
      </trkpt>
      <trkpt lat="43.6797" lon="6.85066">
        <ele>685</ele>
        <time>2009-02-11T14:09:12Z</time>
      </trkpt>
      <trkpt lat="43.67978" lon="6.85059">
        <ele>685</ele>
        <time>2009-02-11T14:09:16Z</time>
      </trkpt>
      <trkpt lat="43.67984" lon="6.8506">
        <ele>685</ele>
        <time>2009-02-11T14:09:19Z</time>
      </trkpt>
      <trkpt lat="43.67989" lon="6.85065">
        <ele>686</ele>
        <time>2009-02-11T14:09:24Z</time>
      </trkpt>
      <trkpt lat="43.67988" lon="6.85063">
        <ele>686</ele>
        <time>2009-02-11T14:09:28Z</time>
      </trkpt>
      <trkpt lat="43.67987" lon="6.85063">
        <ele>686</ele>
        <time>2009-02-11T14:09:39Z</time>
      </trkpt>
      <trkpt lat="43.67987" lon="6.85065">
        <ele>686</ele>
        <time>2009-02-11T14:10:03Z</time>
      </trkpt>
      <trkpt lat="43.67986" lon="6.85068">
        <ele>686</ele>
        <time>2009-02-11T14:10:14Z</time>
      </trkpt>
      <trkpt lat="43.67987" lon="6.85066">
        <ele>686</ele>
        <time>2009-02-11T14:10:22Z</time>
      </trkpt>
      <trkpt lat="43.67986" lon="6.85065">
        <ele>686</ele>
        <time>2009-02-11T14:10:24Z</time>
      </trkpt>
      <trkpt lat="43.67974" lon="6.85064">
        <ele>686</ele>
        <time>2009-02-11T14:10:29Z</time>
      </trkpt>
      <trkpt lat="43.67969" lon="6.8507">
        <ele>686</ele>
        <time>2009-02-11T14:10:31Z</time>
      </trkpt>
      <trkpt lat="43.67966" lon="6.85077">
        <ele>686</ele>
        <time>2009-02-11T14:10:33Z</time>
      </trkpt>
      <trkpt lat="43.67954" lon="6.85078">
        <ele>686</ele>
        <time>2009-02-11T14:10:37Z</time>
      </trkpt>
      <trkpt lat="43.67927" lon="6.8507">
        <ele>683</ele>
        <time>2009-02-11T14:10:45Z</time>
      </trkpt>
      <trkpt lat="43.67908" lon="6.85068">
        <ele>682</ele>
        <time>2009-02-11T14:10:51Z</time>
      </trkpt>
      <trkpt lat="43.67887" lon="6.85063">
        <ele>680</ele>
        <time>2009-02-11T14:10:58Z</time>
      </trkpt>
      <trkpt lat="43.67885" lon="6.85062">
        <ele>679</ele>
        <time>2009-02-11T14:10:59Z</time>
      </trkpt>
      <trkpt lat="43.67879" lon="6.85064">
        <ele>679</ele>
        <time>2009-02-11T14:11:04Z</time>
      </trkpt>
      <trkpt lat="43.67881" lon="6.8507">
        <ele>680</ele>
        <time>2009-02-11T14:11:18Z</time>
      </trkpt>
      <trkpt lat="43.67894" lon="6.85069">
        <ele>680</ele>
        <time>2009-02-11T14:11:23Z</time>
      </trkpt>
      <trkpt lat="43.67902" lon="6.8507">
        <ele>681</ele>
        <time>2009-02-11T14:11:25Z</time>
      </trkpt>
      <trkpt lat="43.67925" lon="6.8507">
        <ele>683</ele>
        <time>2009-02-11T14:11:32Z</time>
      </trkpt>
      <trkpt lat="43.67945" lon="6.85072">
        <ele>684</ele>
        <time>2009-02-11T14:11:39Z</time>
      </trkpt>
      <trkpt lat="43.67942" lon="6.85083">
        <ele>685</ele>
        <time>2009-02-11T14:11:43Z</time>
      </trkpt>
      <trkpt lat="43.67939" lon="6.85088">
        <ele>685</ele>
        <time>2009-02-11T14:11:45Z</time>
      </trkpt>
      <trkpt lat="43.67936" lon="6.85095">
        <ele>686</ele>
        <time>2009-02-11T14:11:47Z</time>
      </trkpt>
      <trkpt lat="43.67937" lon="6.85105">
        <ele>686</ele>
        <time>2009-02-11T14:11:51Z</time>
      </trkpt>
      <trkpt lat="43.67943" lon="6.851">
        <ele>687</ele>
        <time>2009-02-11T14:11:56Z</time>
      </trkpt>
      <trkpt lat="43.67952" lon="6.85097">
        <ele>687</ele>
        <time>2009-02-11T14:12:00Z</time>
      </trkpt>
      <trkpt lat="43.67954" lon="6.85095">
        <ele>687</ele>
        <time>2009-02-11T14:12:01Z</time>
      </trkpt>
      <trkpt lat="43.67968" lon="6.85074">
        <ele>686</ele>
        <time>2009-02-11T14:12:09Z</time>
      </trkpt>
      <trkpt lat="43.67974" lon="6.85062">
        <ele>685</ele>
        <time>2009-02-11T14:12:13Z</time>
      </trkpt>
      <trkpt lat="43.67985" lon="6.85066">
        <ele>686</ele>
        <time>2009-02-11T14:12:18Z</time>
      </trkpt>
      <trkpt lat="43.67985" lon="6.85078">
        <ele>687</ele>
        <time>2009-02-11T14:12:22Z</time>
      </trkpt>
      <trkpt lat="43.67991" lon="6.85086">
        <ele>688</ele>
        <time>2009-02-11T14:12:26Z</time>
      </trkpt>
      <trkpt lat="43.67999" lon="6.85102">
        <ele>690</ele>
        <time>2009-02-11T14:12:31Z</time>
      </trkpt>
      <trkpt lat="43.68006" lon="6.85116">
        <ele>691</ele>
        <time>2009-02-11T14:12:36Z</time>
      </trkpt>
      <trkpt lat="43.68011" lon="6.85125">
        <ele>692</ele>
        <time>2009-02-11T14:12:40Z</time>
      </trkpt>
      <trkpt lat="43.68008" lon="6.85138">
        <ele>693</ele>
        <time>2009-02-11T14:12:45Z</time>
      </trkpt>
      <trkpt lat="43.68009" lon="6.85147">
        <ele>694</ele>
        <time>2009-02-11T14:12:48Z</time>
      </trkpt>
      <trkpt lat="43.68015" lon="6.85173">
        <ele>697</ele>
        <time>2009-02-11T14:12:57Z</time>
      </trkpt>
      <trkpt lat="43.68013" lon="6.85191">
        <ele>698</ele>
        <time>2009-02-11T14:13:03Z</time>
      </trkpt>
      <trkpt lat="43.68009" lon="6.8521">
        <ele>699</ele>
        <time>2009-02-11T14:13:10Z</time>
      </trkpt>
      <trkpt lat="43.68009" lon="6.85222">
        <ele>699</ele>
        <time>2009-02-11T14:13:15Z</time>
      </trkpt>
      <trkpt lat="43.68008" lon="6.85241">
        <ele>700</ele>
        <time>2009-02-11T14:13:22Z</time>
      </trkpt>
      <trkpt lat="43.68001" lon="6.85252">
        <ele>700</ele>
        <time>2009-02-11T14:13:27Z</time>
      </trkpt>
      <trkpt lat="43.67995" lon="6.85263">
        <ele>700</ele>
        <time>2009-02-11T14:13:33Z</time>
      </trkpt>
      <trkpt lat="43.67997" lon="6.85278">
        <ele>700</ele>
        <time>2009-02-11T14:13:39Z</time>
      </trkpt>
      <trkpt lat="43.67997" lon="6.85283">
        <ele>700</ele>
        <time>2009-02-11T14:13:41Z</time>
      </trkpt>
      <trkpt lat="43.67997" lon="6.85291">
        <ele>700</ele>
        <time>2009-02-11T14:13:44Z</time>
      </trkpt>
      <trkpt lat="43.67989" lon="6.85297">
        <ele>700</ele>
        <time>2009-02-11T14:13:50Z</time>
      </trkpt>
      <trkpt lat="43.67987" lon="6.853">
        <ele>700</ele>
        <time>2009-02-11T14:13:52Z</time>
      </trkpt>
      <trkpt lat="43.67986" lon="6.85317">
        <ele>700</ele>
        <time>2009-02-11T14:13:58Z</time>
      </trkpt>
      <trkpt lat="43.67984" lon="6.85333">
        <ele>700</ele>
        <time>2009-02-11T14:14:03Z</time>
      </trkpt>
      <trkpt lat="43.67985" lon="6.85339">
        <ele>700</ele>
        <time>2009-02-11T14:14:05Z</time>
      </trkpt>
      <trkpt lat="43.67975" lon="6.85348">
        <ele>700</ele>
        <time>2009-02-11T14:14:12Z</time>
      </trkpt>
      <trkpt lat="43.67965" lon="6.85355">
        <ele>700</ele>
        <time>2009-02-11T14:14:17Z</time>
      </trkpt>
      <trkpt lat="43.67964" lon="6.85359">
        <ele>700</ele>
        <time>2009-02-11T14:14:22Z</time>
      </trkpt>
      <trkpt lat="43.67963" lon="6.8536">
        <ele>700</ele>
        <time>2009-02-11T14:14:25Z</time>
      </trkpt>
      <trkpt lat="43.67958" lon="6.85358">
        <ele>700</ele>
        <time>2009-02-11T14:14:29Z</time>
      </trkpt>
      <trkpt lat="43.67953" lon="6.85357">
        <ele>700</ele>
        <time>2009-02-11T14:14:35Z</time>
      </trkpt>
      <trkpt lat="43.67945" lon="6.85359">
        <ele>700</ele>
        <time>2009-02-11T14:14:41Z</time>
      </trkpt>
      <trkpt lat="43.67936" lon="6.8536">
        <ele>700</ele>
        <time>2009-02-11T14:14:46Z</time>
      </trkpt>
      <trkpt lat="43.67934" lon="6.8536">
        <ele>700</ele>
        <time>2009-02-11T14:14:49Z</time>
      </trkpt>
      <trkpt lat="43.67933" lon="6.85359">
        <ele>700</ele>
        <time>2009-02-11T14:14:53Z</time>
      </trkpt>
      <trkpt lat="43.67935" lon="6.85359">
        <ele>700</ele>
        <time>2009-02-11T14:14:54Z</time>
      </trkpt>
      <trkpt lat="43.67948" lon="6.85358">
        <ele>700</ele>
        <time>2009-02-11T14:15:00Z</time>
      </trkpt>
      <trkpt lat="43.67958" lon="6.85357">
        <ele>700</ele>
        <time>2009-02-11T14:15:05Z</time>
      </trkpt>
      <trkpt lat="43.67966" lon="6.8536">
        <ele>700</ele>
        <time>2009-02-11T14:15:10Z</time>
      </trkpt>
      <trkpt lat="43.67969" lon="6.85364">
        <ele>700</ele>
        <time>2009-02-11T14:15:13Z</time>
      </trkpt>
      <trkpt lat="43.6797" lon="6.85372">
        <ele>700</ele>
        <time>2009-02-11T14:15:17Z</time>
      </trkpt>
      <trkpt lat="43.67963" lon="6.85377">
        <ele>700</ele>
        <time>2009-02-11T14:15:21Z</time>
      </trkpt>
      <trkpt lat="43.67954" lon="6.85381">
        <ele>700</ele>
        <time>2009-02-11T14:15:26Z</time>
      </trkpt>
      <trkpt lat="43.67944" lon="6.85382">
        <ele>700</ele>
        <time>2009-02-11T14:15:30Z</time>
      </trkpt>
      <trkpt lat="43.67932" lon="6.85379">
        <ele>700</ele>
        <time>2009-02-11T14:15:35Z</time>
      </trkpt>
      <trkpt lat="43.6792" lon="6.85386">
        <ele>700</ele>
        <time>2009-02-11T14:15:41Z</time>
      </trkpt>
      <trkpt lat="43.67917" lon="6.85389">
        <ele>700</ele>
        <time>2009-02-11T14:15:43Z</time>
      </trkpt>
      <trkpt lat="43.67909" lon="6.85394">
        <ele>699</ele>
        <time>2009-02-11T14:15:48Z</time>
      </trkpt>
      <trkpt lat="43.679" lon="6.85395">
        <ele>698</ele>
        <time>2009-02-11T14:15:52Z</time>
      </trkpt>
      <trkpt lat="43.67899" lon="6.85397">
        <ele>698</ele>
        <time>2009-02-11T14:16:00Z</time>
      </trkpt>
      <trkpt lat="43.67897" lon="6.85399">
        <ele>698</ele>
        <time>2009-02-11T14:16:02Z</time>
      </trkpt>
      <trkpt lat="43.67897" lon="6.85405">
        <ele>698</ele>
        <time>2009-02-11T14:16:08Z</time>
      </trkpt>
      <trkpt lat="43.67898" lon="6.85406">
        <ele>698</ele>
        <time>2009-02-11T14:16:09Z</time>
      </trkpt>
      <trkpt lat="43.67904" lon="6.85413">
        <ele>698</ele>
        <time>2009-02-11T14:16:16Z</time>
      </trkpt>
      <trkpt lat="43.67901" lon="6.85417">
        <ele>698</ele>
        <time>2009-02-11T14:16:21Z</time>
      </trkpt>
      <trkpt lat="43.67899" lon="6.85423">
        <ele>697</ele>
        <time>2009-02-11T14:16:27Z</time>
      </trkpt>
      <trkpt lat="43.67897" lon="6.85424">
        <ele>697</ele>
        <time>2009-02-11T14:16:28Z</time>
      </trkpt>
      <trkpt lat="43.67886" lon="6.8543">
        <ele>695</ele>
        <time>2009-02-11T14:16:34Z</time>
      </trkpt>
      <trkpt lat="43.6788" lon="6.85441">
        <ele>693</ele>
        <time>2009-02-11T14:16:38Z</time>
      </trkpt>
      <trkpt lat="43.67879" lon="6.85448">
        <ele>693</ele>
        <time>2009-02-11T14:16:41Z</time>
      </trkpt>
      <trkpt lat="43.67881" lon="6.85455">
        <ele>693</ele>
        <time>2009-02-11T14:16:44Z</time>
      </trkpt>
      <trkpt lat="43.6788" lon="6.85457">
        <ele>692</ele>
        <time>2009-02-11T14:16:49Z</time>
      </trkpt>
      <trkpt lat="43.67878" lon="6.85463">
        <ele>692</ele>
        <time>2009-02-11T14:16:54Z</time>
      </trkpt>
      <trkpt lat="43.67879" lon="6.85466">
        <ele>692</ele>
        <time>2009-02-11T14:16:58Z</time>
      </trkpt>
      <trkpt lat="43.6789" lon="6.85474">
        <ele>693</ele>
        <time>2009-02-11T14:17:05Z</time>
      </trkpt>
      <trkpt lat="43.679" lon="6.8548">
        <ele>695</ele>
        <time>2009-02-11T14:17:10Z</time>
      </trkpt>
      <trkpt lat="43.67914" lon="6.85493">
        <ele>699</ele>
        <time>2009-02-11T14:17:17Z</time>
      </trkpt>
      <trkpt lat="43.67925" lon="6.85501">
        <ele>699</ele>
        <time>2009-02-11T14:17:22Z</time>
      </trkpt>
      <trkpt lat="43.67927" lon="6.85518">
        <ele>699</ele>
        <time>2009-02-11T14:17:27Z</time>
      </trkpt>
      <trkpt lat="43.67927" lon="6.85522">
        <ele>699</ele>
        <time>2009-02-11T14:17:28Z</time>
      </trkpt>
      <trkpt lat="43.67927" lon="6.85534">
        <ele>698</ele>
        <time>2009-02-11T14:17:32Z</time>
      </trkpt>
      <trkpt lat="43.67933" lon="6.85544">
        <ele>697</ele>
        <time>2009-02-11T14:17:36Z</time>
      </trkpt>
      <trkpt lat="43.67942" lon="6.85551">
        <ele>696</ele>
        <time>2009-02-11T14:17:41Z</time>
      </trkpt>
      <trkpt lat="43.67947" lon="6.85562">
        <ele>695</ele>
        <time>2009-02-11T14:17:46Z</time>
      </trkpt>
      <trkpt lat="43.67942" lon="6.85566">
        <ele>695</ele>
        <time>2009-02-11T14:17:50Z</time>
      </trkpt>
      <trkpt lat="43.67938" lon="6.85568">
        <ele>695</ele>
        <time>2009-02-11T14:17:55Z</time>
      </trkpt>
      <trkpt lat="43.67934" lon="6.85574">
        <ele>694</ele>
        <time>2009-02-11T14:17:59Z</time>
      </trkpt>
      <trkpt lat="43.67927" lon="6.85582">
        <ele>694</ele>
        <time>2009-02-11T14:18:05Z</time>
      </trkpt>
      <trkpt lat="43.67927" lon="6.85588">
        <ele>693</ele>
        <time>2009-02-11T14:18:10Z</time>
      </trkpt>
      <trkpt lat="43.67929" lon="6.85595">
        <ele>692</ele>
        <time>2009-02-11T14:18:17Z</time>
      </trkpt>
      <trkpt lat="43.67927" lon="6.85601">
        <ele>692</ele>
        <time>2009-02-11T14:18:35Z</time>
      </trkpt>
      <trkpt lat="43.67934" lon="6.85606">
        <ele>691</ele>
        <time>2009-02-11T14:18:43Z</time>
      </trkpt>
      <trkpt lat="43.67939" lon="6.85609">
        <ele>691</ele>
        <time>2009-02-11T14:18:50Z</time>
      </trkpt>
      <trkpt lat="43.67939" lon="6.85615">
        <ele>690</ele>
        <time>2009-02-11T14:18:55Z</time>
      </trkpt>
      <trkpt lat="43.67939" lon="6.85623">
        <ele>690</ele>
        <time>2009-02-11T14:19:02Z</time>
      </trkpt>
      <trkpt lat="43.67945" lon="6.85628">
        <ele>689</ele>
        <time>2009-02-11T14:19:09Z</time>
      </trkpt>
      <trkpt lat="43.67949" lon="6.85634">
        <ele>689</ele>
        <time>2009-02-11T14:19:13Z</time>
      </trkpt>
      <trkpt lat="43.67949" lon="6.85644">
        <ele>688</ele>
        <time>2009-02-11T14:19:18Z</time>
      </trkpt>
      <trkpt lat="43.67938" lon="6.85653">
        <ele>687</ele>
        <time>2009-02-11T14:19:24Z</time>
      </trkpt>
      <trkpt lat="43.67929" lon="6.85662">
        <ele>687</ele>
        <time>2009-02-11T14:19:29Z</time>
      </trkpt>
      <trkpt lat="43.67928" lon="6.85663">
        <ele>687</ele>
        <time>2009-02-11T14:19:30Z</time>
      </trkpt>
      <trkpt lat="43.6792" lon="6.85666">
        <ele>687</ele>
        <time>2009-02-11T14:19:33Z</time>
      </trkpt>
      <trkpt lat="43.67905" lon="6.85674">
        <ele>684</ele>
        <time>2009-02-11T14:19:39Z</time>
      </trkpt>
      <trkpt lat="43.67897" lon="6.85686">
        <ele>683</ele>
        <time>2009-02-11T14:19:44Z</time>
      </trkpt>
      <trkpt lat="43.6789" lon="6.85697">
        <ele>681</ele>
        <time>2009-02-11T14:19:49Z</time>
      </trkpt>
      <trkpt lat="43.67884" lon="6.85701">
        <ele>681</ele>
        <time>2009-02-11T14:19:52Z</time>
      </trkpt>
      <trkpt lat="43.67873" lon="6.85716">
        <ele>679</ele>
        <time>2009-02-11T14:19:58Z</time>
      </trkpt>
      <trkpt lat="43.67868" lon="6.85722">
        <ele>679</ele>
        <time>2009-02-11T14:20:02Z</time>
      </trkpt>
      <trkpt lat="43.67863" lon="6.85729">
        <ele>678</ele>
        <time>2009-02-11T14:20:06Z</time>
      </trkpt>
      <trkpt lat="43.67856" lon="6.85729">
        <ele>677</ele>
        <time>2009-02-11T14:20:11Z</time>
      </trkpt>
      <trkpt lat="43.67849" lon="6.85733">
        <ele>676</ele>
        <time>2009-02-11T14:20:16Z</time>
      </trkpt>
      <trkpt lat="43.67849" lon="6.85734">
        <ele>675</ele>
        <time>2009-02-11T14:20:17Z</time>
      </trkpt>
      <trkpt lat="43.67849" lon="6.85738">
        <ele>675</ele>
        <time>2009-02-11T14:20:20Z</time>
      </trkpt>
      <trkpt lat="43.67842" lon="6.85741">
        <ele>674</ele>
        <time>2009-02-11T14:20:25Z</time>
      </trkpt>
      <trkpt lat="43.67837" lon="6.85739">
        <ele>673</ele>
        <time>2009-02-11T14:20:27Z</time>
      </trkpt>
      <trkpt lat="43.67821" lon="6.85745">
        <ele>670</ele>
        <time>2009-02-11T14:20:32Z</time>
      </trkpt>
      <trkpt lat="43.67809" lon="6.8575">
        <ele>667</ele>
        <time>2009-02-11T14:20:36Z</time>
      </trkpt>
      <trkpt lat="43.678" lon="6.85757">
        <ele>665</ele>
        <time>2009-02-11T14:20:39Z</time>
      </trkpt>
      <trkpt lat="43.67783" lon="6.85771">
        <ele>662</ele>
        <time>2009-02-11T14:20:45Z</time>
      </trkpt>
      <trkpt lat="43.6777" lon="6.85773">
        <ele>661</ele>
        <time>2009-02-11T14:20:49Z</time>
      </trkpt>
      <trkpt lat="43.67754" lon="6.8578">
        <ele>660</ele>
        <time>2009-02-11T14:20:53Z</time>
      </trkpt>
      <trkpt lat="43.67741" lon="6.85787">
        <ele>658</ele>
        <time>2009-02-11T14:20:56Z</time>
      </trkpt>
      <trkpt lat="43.67724" lon="6.85792">
        <ele>657</ele>
        <time>2009-02-11T14:21:00Z</time>
      </trkpt>
      <trkpt lat="43.67719" lon="6.85799">
        <ele>656</ele>
        <time>2009-02-11T14:21:05Z</time>
      </trkpt>
      <trkpt lat="43.67715" lon="6.85801">
        <ele>656</ele>
        <time>2009-02-11T14:21:09Z</time>
      </trkpt>
      <trkpt lat="43.67712" lon="6.85797">
        <ele>656</ele>
        <time>2009-02-11T14:21:15Z</time>
      </trkpt>
      <trkpt lat="43.67711" lon="6.85797">
        <ele>656</ele>
        <time>2009-02-11T14:21:16Z</time>
      </trkpt>
      <trkpt lat="43.67703" lon="6.85801">
        <ele>655</ele>
        <time>2009-02-11T14:21:22Z</time>
      </trkpt>
      <trkpt lat="43.67702" lon="6.85805">
        <ele>655</ele>
        <time>2009-02-11T14:21:26Z</time>
      </trkpt>
      <trkpt lat="43.67698" lon="6.85812">
        <ele>654</ele>
        <time>2009-02-11T14:21:31Z</time>
      </trkpt>
      <trkpt lat="43.67698" lon="6.85813">
        <ele>654</ele>
        <time>2009-02-11T14:21:32Z</time>
      </trkpt>
      <trkpt lat="43.67694" lon="6.85827">
        <ele>654</ele>
        <time>2009-02-11T14:21:38Z</time>
      </trkpt>
      <trkpt lat="43.67683" lon="6.85835">
        <ele>653</ele>
        <time>2009-02-11T14:21:42Z</time>
      </trkpt>
      <trkpt lat="43.67676" lon="6.85829">
        <ele>652</ele>
        <time>2009-02-11T14:21:47Z</time>
      </trkpt>
      <trkpt lat="43.67673" lon="6.85828">
        <ele>652</ele>
        <time>2009-02-11T14:21:49Z</time>
      </trkpt>
      <trkpt lat="43.67665" lon="6.85826">
        <ele>652</ele>
        <time>2009-02-11T14:21:56Z</time>
      </trkpt>
      <trkpt lat="43.6766" lon="6.85825">
        <ele>652</ele>
        <time>2009-02-11T14:22:00Z</time>
      </trkpt>
      <trkpt lat="43.67639" lon="6.85828">
        <ele>651</ele>
        <time>2009-02-11T14:22:07Z</time>
      </trkpt>
      <trkpt lat="43.67633" lon="6.85828">
        <ele>651</ele>
        <time>2009-02-11T14:22:09Z</time>
      </trkpt>
      <trkpt lat="43.6762" lon="6.85826">
        <ele>650</ele>
        <time>2009-02-11T14:22:14Z</time>
      </trkpt>
      <trkpt lat="43.67613" lon="6.85831">
        <ele>650</ele>
        <time>2009-02-11T14:22:17Z</time>
      </trkpt>
      <trkpt lat="43.67615" lon="6.85844">
        <ele>650</ele>
        <time>2009-02-11T14:22:21Z</time>
      </trkpt>
      <trkpt lat="43.6762" lon="6.85861">
        <ele>651</ele>
        <time>2009-02-11T14:22:25Z</time>
      </trkpt>
      <trkpt lat="43.6761" lon="6.85872">
        <ele>651</ele>
        <time>2009-02-11T14:22:29Z</time>
      </trkpt>
      <trkpt lat="43.67604" lon="6.85889">
        <ele>652</ele>
        <time>2009-02-11T14:22:33Z</time>
      </trkpt>
      <trkpt lat="43.67601" lon="6.85897">
        <ele>652</ele>
        <time>2009-02-11T14:22:35Z</time>
      </trkpt>
      <trkpt lat="43.67599" lon="6.85911">
        <ele>652</ele>
        <time>2009-02-11T14:22:41Z</time>
      </trkpt>
      <trkpt lat="43.67596" lon="6.85924">
        <ele>653</ele>
        <time>2009-02-11T14:22:45Z</time>
      </trkpt>
      <trkpt lat="43.6759" lon="6.85947">
        <ele>654</ele>
        <time>2009-02-11T14:22:50Z</time>
      </trkpt>
      <trkpt lat="43.67578" lon="6.85971">
        <ele>654</ele>
        <time>2009-02-11T14:22:56Z</time>
      </trkpt>
      <trkpt lat="43.67576" lon="6.8599">
        <ele>655</ele>
        <time>2009-02-11T14:23:00Z</time>
      </trkpt>
      <trkpt lat="43.67577" lon="6.86014">
        <ele>656</ele>
        <time>2009-02-11T14:23:05Z</time>
      </trkpt>
      <trkpt lat="43.67579" lon="6.86038">
        <ele>658</ele>
        <time>2009-02-11T14:23:10Z</time>
      </trkpt>
      <trkpt lat="43.67577" lon="6.86051">
        <ele>658</ele>
        <time>2009-02-11T14:23:13Z</time>
      </trkpt>
      <trkpt lat="43.67567" lon="6.8606">
        <ele>658</ele>
        <time>2009-02-11T14:23:18Z</time>
      </trkpt>
      <trkpt lat="43.67562" lon="6.86064">
        <ele>658</ele>
        <time>2009-02-11T14:23:23Z</time>
      </trkpt>
      <trkpt lat="43.67559" lon="6.86068">
        <ele>658</ele>
        <time>2009-02-11T14:23:27Z</time>
      </trkpt>
      <trkpt lat="43.67552" lon="6.86063">
        <ele>658</ele>
        <time>2009-02-11T14:23:34Z</time>
      </trkpt>
      <trkpt lat="43.67549" lon="6.86066">
        <ele>658</ele>
        <time>2009-02-11T14:23:39Z</time>
      </trkpt>
      <trkpt lat="43.67551" lon="6.86074">
        <ele>659</ele>
        <time>2009-02-11T14:23:42Z</time>
      </trkpt>
      <trkpt lat="43.6755" lon="6.86103">
        <ele>661</ele>
        <time>2009-02-11T14:23:49Z</time>
      </trkpt>
      <trkpt lat="43.67548" lon="6.86123">
        <ele>662</ele>
        <time>2009-02-11T14:23:54Z</time>
      </trkpt>
      <trkpt lat="43.67547" lon="6.86144">
        <ele>663</ele>
        <time>2009-02-11T14:23:59Z</time>
      </trkpt>
      <trkpt lat="43.67535" lon="6.86164">
        <ele>665</ele>
        <time>2009-02-11T14:24:05Z</time>
      </trkpt>
      <trkpt lat="43.67519" lon="6.86177">
        <ele>665</ele>
        <time>2009-02-11T14:24:11Z</time>
      </trkpt>
      <trkpt lat="43.67503" lon="6.86193">
        <ele>665</ele>
        <time>2009-02-11T14:24:17Z</time>
      </trkpt>
      <trkpt lat="43.6748" lon="6.86203">
        <ele>664</ele>
        <time>2009-02-11T14:24:24Z</time>
      </trkpt>
      <trkpt lat="43.67471" lon="6.86206">
        <ele>664</ele>
        <time>2009-02-11T14:24:27Z</time>
      </trkpt>
      <trkpt lat="43.67459" lon="6.86209">
        <ele>665</ele>
        <time>2009-02-11T14:24:31Z</time>
      </trkpt>
      <trkpt lat="43.67458" lon="6.86213">
        <ele>665</ele>
        <time>2009-02-11T14:24:32Z</time>
      </trkpt>
      <trkpt lat="43.67443" lon="6.86247">
        <ele>667</ele>
        <time>2009-02-11T14:24:41Z</time>
      </trkpt>
      <trkpt lat="43.67434" lon="6.86267">
        <ele>668</ele>
        <time>2009-02-11T14:24:47Z</time>
      </trkpt>
      <trkpt lat="43.67419" lon="6.86301">
        <ele>670</ele>
        <time>2009-02-11T14:24:56Z</time>
      </trkpt>
      <trkpt lat="43.67415" lon="6.86321">
        <ele>672</ele>
        <time>2009-02-11T14:25:02Z</time>
      </trkpt>
      <trkpt lat="43.67408" lon="6.86338">
        <ele>672</ele>
        <time>2009-02-11T14:25:08Z</time>
      </trkpt>
      <trkpt lat="43.67405" lon="6.8635">
        <ele>673</ele>
        <time>2009-02-11T14:25:13Z</time>
      </trkpt>
      <trkpt lat="43.67405" lon="6.86373">
        <ele>674</ele>
        <time>2009-02-11T14:25:21Z</time>
      </trkpt>
      <trkpt lat="43.67405" lon="6.86389">
        <ele>675</ele>
        <time>2009-02-11T14:25:27Z</time>
      </trkpt>
      <trkpt lat="43.67402" lon="6.86407">
        <ele>676</ele>
        <time>2009-02-11T14:25:33Z</time>
      </trkpt>
      <trkpt lat="43.67397" lon="6.86427">
        <ele>677</ele>
        <time>2009-02-11T14:25:41Z</time>
      </trkpt>
      <trkpt lat="43.67391" lon="6.86445">
        <ele>679</ele>
        <time>2009-02-11T14:25:49Z</time>
      </trkpt>
      <trkpt lat="43.67385" lon="6.86462">
        <ele>681</ele>
        <time>2009-02-11T14:25:56Z</time>
      </trkpt>
      <trkpt lat="43.67379" lon="6.86479">
        <ele>685</ele>
        <time>2009-02-11T14:26:03Z</time>
      </trkpt>
      <trkpt lat="43.67369" lon="6.86488">
        <ele>688</ele>
        <time>2009-02-11T14:26:10Z</time>
      </trkpt>
      <trkpt lat="43.67359" lon="6.86489">
        <ele>690</ele>
        <time>2009-02-11T14:26:16Z</time>
      </trkpt>
      <trkpt lat="43.67346" lon="6.86489">
        <ele>690</ele>
        <time>2009-02-11T14:26:24Z</time>
      </trkpt>
      <trkpt lat="43.67338" lon="6.86492">
        <ele>690</ele>
        <time>2009-02-11T14:26:29Z</time>
      </trkpt>
      <trkpt lat="43.67322" lon="6.86495">
        <ele>692</ele>
        <time>2009-02-11T14:26:38Z</time>
      </trkpt>
      <trkpt lat="43.67306" lon="6.86499">
        <ele>693</ele>
        <time>2009-02-11T14:26:47Z</time>
      </trkpt>
      <trkpt lat="43.67294" lon="6.86506">
        <ele>695</ele>
        <time>2009-02-11T14:26:55Z</time>
      </trkpt>
      <trkpt lat="43.67286" lon="6.86517">
        <ele>697</ele>
        <time>2009-02-11T14:27:02Z</time>
      </trkpt>
      <trkpt lat="43.67277" lon="6.86524">
        <ele>699</ele>
        <time>2009-02-11T14:27:08Z</time>
      </trkpt>
      <trkpt lat="43.67268" lon="6.86528">
        <ele>699</ele>
        <time>2009-02-11T14:27:14Z</time>
      </trkpt>
      <trkpt lat="43.6726" lon="6.86537">
        <ele>699</ele>
        <time>2009-02-11T14:27:20Z</time>
      </trkpt>
      <trkpt lat="43.6725" lon="6.86544">
        <ele>700</ele>
        <time>2009-02-11T14:27:26Z</time>
      </trkpt>
      <trkpt lat="43.67236" lon="6.86549">
        <ele>702</ele>
        <time>2009-02-11T14:27:33Z</time>
      </trkpt>
      <trkpt lat="43.67222" lon="6.86557">
        <ele>704</ele>
        <time>2009-02-11T14:27:40Z</time>
      </trkpt>
      <trkpt lat="43.67216" lon="6.86572">
        <ele>705</ele>
        <time>2009-02-11T14:27:46Z</time>
      </trkpt>
      <trkpt lat="43.67199" lon="6.86581">
        <ele>706</ele>
        <time>2009-02-11T14:27:54Z</time>
      </trkpt>
      <trkpt lat="43.67179" lon="6.86587">
        <ele>708</ele>
        <time>2009-02-11T14:28:02Z</time>
      </trkpt>
      <trkpt lat="43.67167" lon="6.86587">
        <ele>709</ele>
        <time>2009-02-11T14:28:07Z</time>
      </trkpt>
      <trkpt lat="43.67161" lon="6.86596">
        <ele>710</ele>
        <time>2009-02-11T14:28:12Z</time>
      </trkpt>
      <trkpt lat="43.67163" lon="6.86599">
        <ele>710</ele>
        <time>2009-02-11T14:28:14Z</time>
      </trkpt>
      <trkpt lat="43.6717" lon="6.8661">
        <ele>711</ele>
        <time>2009-02-11T14:28:20Z</time>
      </trkpt>
      <trkpt lat="43.67174" lon="6.86626">
        <ele>713</ele>
        <time>2009-02-11T14:28:27Z</time>
      </trkpt>
      <trkpt lat="43.67175" lon="6.8663">
        <ele>713</ele>
        <time>2009-02-11T14:28:29Z</time>
      </trkpt>
      <trkpt lat="43.67185" lon="6.8664">
        <ele>713</ele>
        <time>2009-02-11T14:28:36Z</time>
      </trkpt>
      <trkpt lat="43.67198" lon="6.86646">
        <ele>713</ele>
        <time>2009-02-11T14:28:42Z</time>
      </trkpt>
      <trkpt lat="43.67208" lon="6.86657">
        <ele>713</ele>
        <time>2009-02-11T14:28:48Z</time>
      </trkpt>
      <trkpt lat="43.67214" lon="6.86672">
        <ele>714</ele>
        <time>2009-02-11T14:28:53Z</time>
      </trkpt>
      <trkpt lat="43.67213" lon="6.86699">
        <ele>717</ele>
        <time>2009-02-11T14:29:01Z</time>
      </trkpt>
      <trkpt lat="43.67218" lon="6.86718">
        <ele>719</ele>
        <time>2009-02-11T14:29:07Z</time>
      </trkpt>
      <trkpt lat="43.67221" lon="6.8674">
        <ele>720</ele>
        <time>2009-02-11T14:29:12Z</time>
      </trkpt>
      <trkpt lat="43.67217" lon="6.86766">
        <ele>720</ele>
        <time>2009-02-11T14:29:17Z</time>
      </trkpt>
      <trkpt lat="43.67216" lon="6.86808">
        <ele>720</ele>
        <time>2009-02-11T14:29:25Z</time>
      </trkpt>
      <trkpt lat="43.67217" lon="6.86821">
        <ele>720</ele>
        <time>2009-02-11T14:29:27Z</time>
      </trkpt>
      <trkpt lat="43.67215" lon="6.86861">
        <ele>720</ele>
        <time>2009-02-11T14:29:33Z</time>
      </trkpt>
      <trkpt lat="43.67218" lon="6.86904">
        <ele>720</ele>
        <time>2009-02-11T14:29:40Z</time>
      </trkpt>
      <trkpt lat="43.67221" lon="6.8692">
        <ele>720</ele>
        <time>2009-02-11T14:29:43Z</time>
      </trkpt>
      <trkpt lat="43.67224" lon="6.86932">
        <ele>720</ele>
        <time>2009-02-11T14:29:45Z</time>
      </trkpt>
      <trkpt lat="43.6723" lon="6.86953">
        <ele>720</ele>
        <time>2009-02-11T14:29:49Z</time>
      </trkpt>
      <trkpt lat="43.67233" lon="6.86998">
        <ele>720</ele>
        <time>2009-02-11T14:29:57Z</time>
      </trkpt>
      <trkpt lat="43.67236" lon="6.87023">
        <ele>720</ele>
        <time>2009-02-11T14:30:02Z</time>
      </trkpt>
      <trkpt lat="43.67232" lon="6.87045">
        <ele>720</ele>
        <time>2009-02-11T14:30:06Z</time>
      </trkpt>
      <trkpt lat="43.67229" lon="6.87053">
        <ele>720</ele>
        <time>2009-02-11T14:30:08Z</time>
      </trkpt>
      <trkpt lat="43.67222" lon="6.87057">
        <ele>720</ele>
        <time>2009-02-11T14:30:13Z</time>
      </trkpt>
      <trkpt lat="43.67222" lon="6.87056">
        <ele>720</ele>
        <time>2009-02-11T14:30:24Z</time>
      </trkpt>
      <trkpt lat="43.67221" lon="6.87054">
        <ele>720</ele>
        <time>2009-02-11T14:30:39Z</time>
      </trkpt>
      <trkpt lat="43.6722" lon="6.87055">
        <ele>720</ele>
        <time>2009-02-11T14:30:50Z</time>
      </trkpt>
      <trkpt lat="43.6722" lon="6.87056">
        <ele>720</ele>
        <time>2009-02-11T14:30:51Z</time>
      </trkpt>
      <trkpt lat="43.67218" lon="6.87068">
        <ele>720</ele>
        <time>2009-02-11T14:30:55Z</time>
      </trkpt>
      <trkpt lat="43.67229" lon="6.8708">
        <ele>720</ele>
        <time>2009-02-11T14:31:00Z</time>
      </trkpt>
      <trkpt lat="43.67233" lon="6.87084">
        <ele>720</ele>
        <time>2009-02-11T14:31:01Z</time>
      </trkpt>
      <trkpt lat="43.67267" lon="6.87109">
        <ele>720</ele>
        <time>2009-02-11T14:31:09Z</time>
      </trkpt>
      <trkpt lat="43.67295" lon="6.8713">
        <ele>720</ele>
        <time>2009-02-11T14:31:16Z</time>
      </trkpt>
      <trkpt lat="43.67304" lon="6.87138">
        <ele>720</ele>
        <time>2009-02-11T14:31:18Z</time>
      </trkpt>
      <trkpt lat="43.67323" lon="6.87153">
        <ele>720</ele>
        <time>2009-02-11T14:31:22Z</time>
      </trkpt>
      <trkpt lat="43.67343" lon="6.87173">
        <ele>720</ele>
        <time>2009-02-11T14:31:26Z</time>
      </trkpt>
      <trkpt lat="43.6736" lon="6.87182">
        <ele>720</ele>
        <time>2009-02-11T14:31:30Z</time>
      </trkpt>
      <trkpt lat="43.67371" lon="6.87189">
        <ele>720</ele>
        <time>2009-02-11T14:31:36Z</time>
      </trkpt>
      <trkpt lat="43.67381" lon="6.872">
        <ele>721</ele>
        <time>2009-02-11T14:31:43Z</time>
      </trkpt>
      <trkpt lat="43.67389" lon="6.87206">
        <ele>721</ele>
        <time>2009-02-11T14:31:48Z</time>
      </trkpt>
      <trkpt lat="43.67393" lon="6.87213">
        <ele>721</ele>
        <time>2009-02-11T14:31:53Z</time>
      </trkpt>
      <trkpt lat="43.67394" lon="6.87214">
        <ele>721</ele>
        <time>2009-02-11T14:31:59Z</time>
      </trkpt>
      <trkpt lat="43.67397" lon="6.87217">
        <ele>721</ele>
        <time>2009-02-11T14:32:07Z</time>
      </trkpt>
      <trkpt lat="43.67403" lon="6.87225">
        <ele>721</ele>
        <time>2009-02-11T14:32:12Z</time>
      </trkpt>
      <trkpt lat="43.67422" lon="6.87241">
        <ele>722</ele>
        <time>2009-02-11T14:32:21Z</time>
      </trkpt>
      <trkpt lat="43.67431" lon="6.87256">
        <ele>723</ele>
        <time>2009-02-11T14:32:27Z</time>
      </trkpt>
      <trkpt lat="43.67435" lon="6.87279">
        <ele>724</ele>
        <time>2009-02-11T14:32:34Z</time>
      </trkpt>
      <trkpt lat="43.67435" lon="6.87296">
        <ele>724</ele>
        <time>2009-02-11T14:32:39Z</time>
      </trkpt>
      <trkpt lat="43.67435" lon="6.87312">
        <ele>724</ele>
        <time>2009-02-11T14:32:44Z</time>
      </trkpt>
      <trkpt lat="43.67427" lon="6.87326">
        <ele>724</ele>
        <time>2009-02-11T14:32:50Z</time>
      </trkpt>
      <trkpt lat="43.67423" lon="6.87338">
        <ele>723</ele>
        <time>2009-02-11T14:32:54Z</time>
      </trkpt>
      <trkpt lat="43.67411" lon="6.87349">
        <ele>722</ele>
        <time>2009-02-11T14:32:58Z</time>
      </trkpt>
      <trkpt lat="43.67406" lon="6.87375">
        <ele>722</ele>
        <time>2009-02-11T14:33:02Z</time>
      </trkpt>
      <trkpt lat="43.67414" lon="6.87402">
        <ele>723</ele>
        <time>2009-02-11T14:33:06Z</time>
      </trkpt>
      <trkpt lat="43.67418" lon="6.87427">
        <ele>724</ele>
        <time>2009-02-11T14:33:11Z</time>
      </trkpt>
      <trkpt lat="43.6742" lon="6.87447">
        <ele>724</ele>
        <time>2009-02-11T14:33:16Z</time>
      </trkpt>
      <trkpt lat="43.67424" lon="6.87457">
        <ele>724</ele>
        <time>2009-02-11T14:33:18Z</time>
      </trkpt>
      <trkpt lat="43.67423" lon="6.87479">
        <ele>724</ele>
        <time>2009-02-11T14:33:22Z</time>
      </trkpt>
      <trkpt lat="43.67422" lon="6.87493">
        <ele>724</ele>
        <time>2009-02-11T14:33:24Z</time>
      </trkpt>
      <trkpt lat="43.67427" lon="6.87515">
        <ele>725</ele>
        <time>2009-02-11T14:33:27Z</time>
      </trkpt>
      <trkpt lat="43.67427" lon="6.87555">
        <ele>726</ele>
        <time>2009-02-11T14:33:33Z</time>
      </trkpt>
      <trkpt lat="43.67427" lon="6.87579">
        <ele>725</ele>
        <time>2009-02-11T14:33:37Z</time>
      </trkpt>
      <trkpt lat="43.67424" lon="6.87597">
        <ele>724</ele>
        <time>2009-02-11T14:33:41Z</time>
      </trkpt>
      <trkpt lat="43.67427" lon="6.87618">
        <ele>724</ele>
        <time>2009-02-11T14:33:46Z</time>
      </trkpt>
      <trkpt lat="43.67431" lon="6.87628">
        <ele>724</ele>
        <time>2009-02-11T14:33:48Z</time>
      </trkpt>
      <trkpt lat="43.67445" lon="6.87653">
        <ele>725</ele>
        <time>2009-02-11T14:33:53Z</time>
      </trkpt>
      <trkpt lat="43.67449" lon="6.87662">
        <ele>725</ele>
        <time>2009-02-11T14:33:55Z</time>
      </trkpt>
      <trkpt lat="43.67455" lon="6.87672">
        <ele>725</ele>
        <time>2009-02-11T14:33:57Z</time>
      </trkpt>
      <trkpt lat="43.67469" lon="6.87687">
        <ele>726</ele>
        <time>2009-02-11T14:34:01Z</time>
      </trkpt>
      <trkpt lat="43.67479" lon="6.87706">
        <ele>726</ele>
        <time>2009-02-11T14:34:06Z</time>
      </trkpt>
      <trkpt lat="43.67486" lon="6.87712">
        <ele>726</ele>
        <time>2009-02-11T14:34:10Z</time>
      </trkpt>
      <trkpt lat="43.67491" lon="6.87718">
        <ele>727</ele>
        <time>2009-02-11T14:34:14Z</time>
      </trkpt>
      <trkpt lat="43.67496" lon="6.87724">
        <ele>727</ele>
        <time>2009-02-11T14:34:17Z</time>
      </trkpt>
      <trkpt lat="43.67499" lon="6.87738">
        <ele>726</ele>
        <time>2009-02-11T14:34:22Z</time>
      </trkpt>
      <trkpt lat="43.67507" lon="6.87762">
        <ele>726</ele>
        <time>2009-02-11T14:34:29Z</time>
      </trkpt>
      <trkpt lat="43.67507" lon="6.87778">
        <ele>725</ele>
        <time>2009-02-11T14:34:33Z</time>
      </trkpt>
      <trkpt lat="43.67506" lon="6.87782">
        <ele>725</ele>
        <time>2009-02-11T14:34:34Z</time>
      </trkpt>
      <trkpt lat="43.67497" lon="6.87794">
        <ele>724</ele>
        <time>2009-02-11T14:34:39Z</time>
      </trkpt>
      <trkpt lat="43.67495" lon="6.87808">
        <ele>723</ele>
        <time>2009-02-11T14:34:44Z</time>
      </trkpt>
      <trkpt lat="43.67495" lon="6.8781">
        <ele>723</ele>
        <time>2009-02-11T14:34:45Z</time>
      </trkpt>
      <trkpt lat="43.67492" lon="6.87828">
        <ele>722</ele>
        <time>2009-02-11T14:34:52Z</time>
      </trkpt>
      <trkpt lat="43.67492" lon="6.87846">
        <ele>721</ele>
        <time>2009-02-11T14:34:58Z</time>
      </trkpt>
      <trkpt lat="43.67492" lon="6.87853">
        <ele>720</ele>
        <time>2009-02-11T14:35:00Z</time>
      </trkpt>
      <trkpt lat="43.67501" lon="6.87866">
        <ele>720</ele>
        <time>2009-02-11T14:35:06Z</time>
      </trkpt>
      <trkpt lat="43.67504" lon="6.8787">
        <ele>721</ele>
        <time>2009-02-11T14:35:08Z</time>
      </trkpt>
      <trkpt lat="43.67511" lon="6.87886">
        <ele>721</ele>
        <time>2009-02-11T14:35:14Z</time>
      </trkpt>
      <trkpt lat="43.67515" lon="6.879">
        <ele>721</ele>
        <time>2009-02-11T14:35:19Z</time>
      </trkpt>
      <trkpt lat="43.67516" lon="6.87913">
        <ele>721</ele>
        <time>2009-02-11T14:35:23Z</time>
      </trkpt>
      <trkpt lat="43.67525" lon="6.87932">
        <ele>720</ele>
        <time>2009-02-11T14:35:30Z</time>
      </trkpt>
      <trkpt lat="43.67533" lon="6.87947">
        <ele>720</ele>
        <time>2009-02-11T14:35:37Z</time>
      </trkpt>
      <trkpt lat="43.67535" lon="6.8796">
        <ele>719</ele>
        <time>2009-02-11T14:35:42Z</time>
      </trkpt>
      <trkpt lat="43.6754" lon="6.87976">
        <ele>719</ele>
        <time>2009-02-11T14:35:48Z</time>
      </trkpt>
      <trkpt lat="43.67542" lon="6.87978">
        <ele>719</ele>
        <time>2009-02-11T14:35:49Z</time>
      </trkpt>
      <trkpt lat="43.67544" lon="6.87992">
        <ele>719</ele>
        <time>2009-02-11T14:35:54Z</time>
      </trkpt>
      <trkpt lat="43.67548" lon="6.88006">
        <ele>719</ele>
        <time>2009-02-11T14:35:59Z</time>
      </trkpt>
      <trkpt lat="43.67546" lon="6.88024">
        <ele>717</ele>
        <time>2009-02-11T14:36:05Z</time>
      </trkpt>
      <trkpt lat="43.67546" lon="6.88039">
        <ele>717</ele>
        <time>2009-02-11T14:36:10Z</time>
      </trkpt>
      <trkpt lat="43.67548" lon="6.88053">
        <ele>716</ele>
        <time>2009-02-11T14:36:15Z</time>
      </trkpt>
      <trkpt lat="43.6755" lon="6.88069">
        <ele>716</ele>
        <time>2009-02-11T14:36:20Z</time>
      </trkpt>
      <trkpt lat="43.67551" lon="6.88089">
        <ele>715</ele>
        <time>2009-02-11T14:36:26Z</time>
      </trkpt>
      <trkpt lat="43.67552" lon="6.88118">
        <ele>714</ele>
        <time>2009-02-11T14:36:34Z</time>
      </trkpt>
      <trkpt lat="43.67559" lon="6.88141">
        <ele>714</ele>
        <time>2009-02-11T14:36:40Z</time>
      </trkpt>
      <trkpt lat="43.67568" lon="6.88162">
        <ele>716</ele>
        <time>2009-02-11T14:36:45Z</time>
      </trkpt>
      <trkpt lat="43.67573" lon="6.88177">
        <ele>717</ele>
        <time>2009-02-11T14:36:48Z</time>
      </trkpt>
      <trkpt lat="43.67583" lon="6.88195">
        <ele>719</ele>
        <time>2009-02-11T14:36:52Z</time>
      </trkpt>
      <trkpt lat="43.6759" lon="6.88214">
        <ele>721</ele>
        <time>2009-02-11T14:36:55Z</time>
      </trkpt>
      <trkpt lat="43.67595" lon="6.88251">
        <ele>722</ele>
        <time>2009-02-11T14:37:00Z</time>
      </trkpt>
      <trkpt lat="43.676" lon="6.88281">
        <ele>722</ele>
        <time>2009-02-11T14:37:04Z</time>
      </trkpt>
      <trkpt lat="43.67597" lon="6.88303">
        <ele>720</ele>
        <time>2009-02-11T14:37:07Z</time>
      </trkpt>
      <trkpt lat="43.67598" lon="6.88345">
        <ele>717</ele>
        <time>2009-02-11T14:37:12Z</time>
      </trkpt>
      <trkpt lat="43.67602" lon="6.88366">
        <ele>716</ele>
        <time>2009-02-11T14:37:15Z</time>
      </trkpt>
      <trkpt lat="43.6761" lon="6.88387">
        <ele>715</ele>
        <time>2009-02-11T14:37:20Z</time>
      </trkpt>
      <trkpt lat="43.67612" lon="6.88392">
        <ele>715</ele>
        <time>2009-02-11T14:37:21Z</time>
      </trkpt>
      <trkpt lat="43.6762" lon="6.88409">
        <ele>713</ele>
        <time>2009-02-11T14:37:24Z</time>
      </trkpt>
      <trkpt lat="43.67625" lon="6.88425">
        <ele>711</ele>
        <time>2009-02-11T14:37:27Z</time>
      </trkpt>
      <trkpt lat="43.67635" lon="6.88454">
        <ele>708</ele>
        <time>2009-02-11T14:37:34Z</time>
      </trkpt>
      <trkpt lat="43.67643" lon="6.88483">
        <ele>705</ele>
        <time>2009-02-11T14:37:40Z</time>
      </trkpt>
      <trkpt lat="43.67649" lon="6.88505">
        <ele>702</ele>
        <time>2009-02-11T14:37:46Z</time>
      </trkpt>
      <trkpt lat="43.67649" lon="6.88524">
        <ele>698</ele>
        <time>2009-02-11T14:37:51Z</time>
      </trkpt>
      <trkpt lat="43.67646" lon="6.8855">
        <ele>695</ele>
        <time>2009-02-11T14:37:57Z</time>
      </trkpt>
      <trkpt lat="43.67642" lon="6.88565">
        <ele>692</ele>
        <time>2009-02-11T14:38:01Z</time>
      </trkpt>
      <trkpt lat="43.6764" lon="6.88569">
        <ele>691</ele>
        <time>2009-02-11T14:38:03Z</time>
      </trkpt>
      <trkpt lat="43.67633" lon="6.88588">
        <ele>687</ele>
        <time>2009-02-11T14:38:09Z</time>
      </trkpt>
      <trkpt lat="43.67618" lon="6.88616">
        <ele>682</ele>
        <time>2009-02-11T14:38:16Z</time>
      </trkpt>
      <trkpt lat="43.67613" lon="6.88633">
        <ele>679</ele>
        <time>2009-02-11T14:38:20Z</time>
      </trkpt>
      <trkpt lat="43.67608" lon="6.8864">
        <ele>678</ele>
        <time>2009-02-11T14:38:22Z</time>
      </trkpt>
      <trkpt lat="43.67601" lon="6.88663">
        <ele>674</ele>
        <time>2009-02-11T14:38:27Z</time>
      </trkpt>
      <trkpt lat="43.67587" lon="6.88681">
        <ele>671</ele>
        <time>2009-02-11T14:38:32Z</time>
      </trkpt>
      <trkpt lat="43.67578" lon="6.88691">
        <ele>669</ele>
        <time>2009-02-11T14:38:36Z</time>
      </trkpt>
      <trkpt lat="43.67577" lon="6.88697">
        <ele>669</ele>
        <time>2009-02-11T14:38:37Z</time>
      </trkpt>
      <trkpt lat="43.6757" lon="6.88719">
        <ele>667</ele>
        <time>2009-02-11T14:38:42Z</time>
      </trkpt>
      <trkpt lat="43.6756" lon="6.88748">
        <ele>665</ele>
        <time>2009-02-11T14:38:48Z</time>
      </trkpt>
      <trkpt lat="43.67556" lon="6.88773">
        <ele>664</ele>
        <time>2009-02-11T14:38:53Z</time>
      </trkpt>
      <trkpt lat="43.67553" lon="6.88791">
        <ele>665</ele>
        <time>2009-02-11T14:38:57Z</time>
      </trkpt>
      <trkpt lat="43.67547" lon="6.8881">
        <ele>665</ele>
        <time>2009-02-11T14:39:02Z</time>
      </trkpt>
      <trkpt lat="43.67546" lon="6.88814">
        <ele>665</ele>
        <time>2009-02-11T14:39:03Z</time>
      </trkpt>
      <trkpt lat="43.67547" lon="6.88837">
        <ele>667</ele>
        <time>2009-02-11T14:39:08Z</time>
      </trkpt>
      <trkpt lat="43.67549" lon="6.88861">
        <ele>666</ele>
        <time>2009-02-11T14:39:12Z</time>
      </trkpt>
      <trkpt lat="43.67554" lon="6.88878">
        <ele>665</ele>
        <time>2009-02-11T14:39:16Z</time>
      </trkpt>
      <trkpt lat="43.67555" lon="6.88882">
        <ele>664</ele>
        <time>2009-02-11T14:39:17Z</time>
      </trkpt>
      <trkpt lat="43.67565" lon="6.88898">
        <ele>665</ele>
        <time>2009-02-11T14:39:22Z</time>
      </trkpt>
      <trkpt lat="43.67569" lon="6.88905">
        <ele>664</ele>
        <time>2009-02-11T14:39:24Z</time>
      </trkpt>
      <trkpt lat="43.67573" lon="6.88924">
        <ele>662</ele>
        <time>2009-02-11T14:39:29Z</time>
      </trkpt>
      <trkpt lat="43.67567" lon="6.88937">
        <ele>660</ele>
        <time>2009-02-11T14:39:33Z</time>
      </trkpt>
      <trkpt lat="43.67568" lon="6.88957">
        <ele>656</ele>
        <time>2009-02-11T14:39:38Z</time>
      </trkpt>
      <trkpt lat="43.67574" lon="6.88973">
        <ele>654</ele>
        <time>2009-02-11T14:39:42Z</time>
      </trkpt>
      <trkpt lat="43.67577" lon="6.8898">
        <ele>653</ele>
        <time>2009-02-11T14:39:44Z</time>
      </trkpt>
      <trkpt lat="43.67575" lon="6.88997">
        <ele>649</ele>
        <time>2009-02-11T14:39:48Z</time>
      </trkpt>
      <trkpt lat="43.67573" lon="6.89011">
        <ele>646</ele>
        <time>2009-02-11T14:39:52Z</time>
      </trkpt>
      <trkpt lat="43.67566" lon="6.89023">
        <ele>644</ele>
        <time>2009-02-11T14:39:56Z</time>
      </trkpt>
      <trkpt lat="43.67566" lon="6.89028">
        <ele>643</ele>
        <time>2009-02-11T14:39:57Z</time>
      </trkpt>
      <trkpt lat="43.67574" lon="6.89059">
        <ele>637</ele>
        <time>2009-02-11T14:40:03Z</time>
      </trkpt>
      <trkpt lat="43.67578" lon="6.89071">
        <ele>635</ele>
        <time>2009-02-11T14:40:06Z</time>
      </trkpt>
      <trkpt lat="43.67571" lon="6.89092">
        <ele>628</ele>
        <time>2009-02-11T14:40:11Z</time>
      </trkpt>
      <trkpt lat="43.67569" lon="6.89096">
        <ele>627</ele>
        <time>2009-02-11T14:40:12Z</time>
      </trkpt>
      <trkpt lat="43.67576" lon="6.89107">
        <ele>625</ele>
        <time>2009-02-11T14:40:16Z</time>
      </trkpt>
      <trkpt lat="43.67581" lon="6.89109">
        <ele>626</ele>
        <time>2009-02-11T14:40:17Z</time>
      </trkpt>
      <trkpt lat="43.67586" lon="6.89113">
        <ele>626</ele>
        <time>2009-02-11T14:40:19Z</time>
      </trkpt>
      <trkpt lat="43.67583" lon="6.89129">
        <ele>621</ele>
        <time>2009-02-11T14:40:23Z</time>
      </trkpt>
      <trkpt lat="43.6758" lon="6.89133">
        <ele>620</ele>
        <time>2009-02-11T14:40:24Z</time>
      </trkpt>
      <trkpt lat="43.67566" lon="6.89151">
        <ele>619</ele>
        <time>2009-02-11T14:40:29Z</time>
      </trkpt>
      <trkpt lat="43.67563" lon="6.89163">
        <ele>619</ele>
        <time>2009-02-11T14:40:32Z</time>
      </trkpt>
      <trkpt lat="43.67563" lon="6.89179">
        <ele>620</ele>
        <time>2009-02-11T14:40:37Z</time>
      </trkpt>
      <trkpt lat="43.67559" lon="6.89184">
        <ele>620</ele>
        <time>2009-02-11T14:40:39Z</time>
      </trkpt>
      <trkpt lat="43.67545" lon="6.89202">
        <ele>620</ele>
        <time>2009-02-11T14:40:45Z</time>
      </trkpt>
      <trkpt lat="43.6754" lon="6.8921">
        <ele>620</ele>
        <time>2009-02-11T14:40:48Z</time>
      </trkpt>
      <trkpt lat="43.67538" lon="6.89214">
        <ele>620</ele>
        <time>2009-02-11T14:40:53Z</time>
      </trkpt>
      <trkpt lat="43.67538" lon="6.89215">
        <ele>620</ele>
        <time>2009-02-11T14:41:04Z</time>
      </trkpt>
      <trkpt lat="43.67541" lon="6.89215">
        <ele>620</ele>
        <time>2009-02-11T14:41:16Z</time>
      </trkpt>
      <trkpt lat="43.6754" lon="6.89215">
        <ele>620</ele>
        <time>2009-02-11T14:41:27Z</time>
      </trkpt>
      <trkpt lat="43.67539" lon="6.89215">
        <ele>620</ele>
        <time>2009-02-11T14:41:40Z</time>
      </trkpt>
      <trkpt lat="43.67539" lon="6.89216">
        <ele>620</ele>
        <time>2009-02-11T14:41:50Z</time>
      </trkpt>
      <trkpt lat="43.67542" lon="6.89218">
        <ele>620</ele>
        <time>2009-02-11T14:42:01Z</time>
      </trkpt>
      <trkpt lat="43.67542" lon="6.89219">
        <ele>620</ele>
        <time>2009-02-11T14:42:08Z</time>
      </trkpt>
      <trkpt lat="43.67542" lon="6.89221">
        <ele>620</ele>
        <time>2009-02-11T14:42:14Z</time>
      </trkpt>
      <trkpt lat="43.67539" lon="6.89222">
        <ele>620</ele>
        <time>2009-02-11T14:42:24Z</time>
      </trkpt>
      <trkpt lat="43.67539" lon="6.89217">
        <ele>620</ele>
        <time>2009-02-11T14:42:39Z</time>
      </trkpt>
      <trkpt lat="43.67538" lon="6.89214">
        <ele>620</ele>
        <time>2009-02-11T14:42:49Z</time>
      </trkpt>
      <trkpt lat="43.67538" lon="6.89213">
        <ele>620</ele>
        <time>2009-02-11T14:42:51Z</time>
      </trkpt>
      <trkpt lat="43.67527" lon="6.89203">
        <ele>619</ele>
        <time>2009-02-11T14:42:57Z</time>
      </trkpt>
      <trkpt lat="43.67523" lon="6.89202">
        <ele>619</ele>
        <time>2009-02-11T14:42:59Z</time>
      </trkpt>
      <trkpt lat="43.6751" lon="6.89192">
        <ele>619</ele>
        <time>2009-02-11T14:43:04Z</time>
      </trkpt>
      <trkpt lat="43.67506" lon="6.89187">
        <ele>618</ele>
        <time>2009-02-11T14:43:07Z</time>
      </trkpt>
      <trkpt lat="43.67491" lon="6.89179">
        <ele>617</ele>
        <time>2009-02-11T14:43:12Z</time>
      </trkpt>
      <trkpt lat="43.67479" lon="6.89169">
        <ele>615</ele>
        <time>2009-02-11T14:43:16Z</time>
      </trkpt>
      <trkpt lat="43.67461" lon="6.8915">
        <ele>611</ele>
        <time>2009-02-11T14:43:22Z</time>
      </trkpt>
      <trkpt lat="43.67446" lon="6.89134">
        <ele>608</ele>
        <time>2009-02-11T14:43:27Z</time>
      </trkpt>
      <trkpt lat="43.67427" lon="6.89117">
        <ele>602</ele>
        <time>2009-02-11T14:43:32Z</time>
      </trkpt>
      <trkpt lat="43.67411" lon="6.89104">
        <ele>600</ele>
        <time>2009-02-11T14:43:36Z</time>
      </trkpt>
      <trkpt lat="43.67393" lon="6.89092">
        <ele>600</ele>
        <time>2009-02-11T14:43:41Z</time>
      </trkpt>
      <trkpt lat="43.67378" lon="6.89074">
        <ele>600</ele>
        <time>2009-02-11T14:43:46Z</time>
      </trkpt>
      <trkpt lat="43.67376" lon="6.89074">
        <ele>600</ele>
        <time>2009-02-11T14:43:47Z</time>
      </trkpt>
      <trkpt lat="43.67365" lon="6.89066">
        <ele>600</ele>
        <time>2009-02-11T14:43:52Z</time>
      </trkpt>
      <trkpt lat="43.67354" lon="6.89056">
        <ele>600</ele>
        <time>2009-02-11T14:43:56Z</time>
      </trkpt>
      <trkpt lat="43.67343" lon="6.89043">
        <ele>600</ele>
        <time>2009-02-11T14:44:01Z</time>
      </trkpt>
      <trkpt lat="43.67333" lon="6.89033">
        <ele>599</ele>
        <time>2009-02-11T14:44:05Z</time>
      </trkpt>
      <trkpt lat="43.67318" lon="6.89022">
        <ele>599</ele>
        <time>2009-02-11T14:44:09Z</time>
      </trkpt>
      <trkpt lat="43.67303" lon="6.89018">
        <ele>598</ele>
        <time>2009-02-11T14:44:12Z</time>
      </trkpt>
      <trkpt lat="43.6729" lon="6.89007">
        <ele>597</ele>
        <time>2009-02-11T14:44:16Z</time>
      </trkpt>
      <trkpt lat="43.67287" lon="6.89003">
        <ele>596</ele>
        <time>2009-02-11T14:44:22Z</time>
      </trkpt>
      <trkpt lat="43.67282" lon="6.89004">
        <ele>596</ele>
        <time>2009-02-11T14:44:27Z</time>
      </trkpt>
      <trkpt lat="43.6728" lon="6.89003">
        <ele>596</ele>
        <time>2009-02-11T14:44:31Z</time>
      </trkpt>
      <trkpt lat="43.67276" lon="6.89">
        <ele>595</ele>
        <time>2009-02-11T14:44:35Z</time>
      </trkpt>
      <trkpt lat="43.67271" lon="6.89">
        <ele>594</ele>
        <time>2009-02-11T14:44:42Z</time>
      </trkpt>
      <trkpt lat="43.6727" lon="6.88999">
        <ele>594</ele>
        <time>2009-02-11T14:44:43Z</time>
      </trkpt>
      <trkpt lat="43.67264" lon="6.8899">
        <ele>592</ele>
        <time>2009-02-11T14:44:47Z</time>
      </trkpt>
      <trkpt lat="43.6726" lon="6.88971">
        <ele>590</ele>
        <time>2009-02-11T14:44:51Z</time>
      </trkpt>
      <trkpt lat="43.67256" lon="6.88958">
        <ele>589</ele>
        <time>2009-02-11T14:44:55Z</time>
      </trkpt>
      <trkpt lat="43.67257" lon="6.88952">
        <ele>588</ele>
        <time>2009-02-11T14:45:02Z</time>
      </trkpt>
      <trkpt lat="43.67257" lon="6.8895">
        <ele>588</ele>
        <time>2009-02-11T14:45:04Z</time>
      </trkpt>
      <trkpt lat="43.67253" lon="6.88944">
        <ele>587</ele>
        <time>2009-02-11T14:45:10Z</time>
      </trkpt>
      <trkpt lat="43.67253" lon="6.88943">
        <ele>587</ele>
        <time>2009-02-11T14:45:11Z</time>
      </trkpt>
      <trkpt lat="43.6725" lon="6.88935">
        <ele>586</ele>
        <time>2009-02-11T14:45:15Z</time>
      </trkpt>
      <trkpt lat="43.67247" lon="6.88921">
        <ele>584</ele>
        <time>2009-02-11T14:45:22Z</time>
      </trkpt>
      <trkpt lat="43.67244" lon="6.88914">
        <ele>583</ele>
        <time>2009-02-11T14:45:25Z</time>
      </trkpt>
      <trkpt lat="43.67242" lon="6.88909">
        <ele>583</ele>
        <time>2009-02-11T14:45:31Z</time>
      </trkpt>
      <trkpt lat="43.67239" lon="6.88907">
        <ele>582</ele>
        <time>2009-02-11T14:45:36Z</time>
      </trkpt>
      <trkpt lat="43.67233" lon="6.88889">
        <ele>580</ele>
        <time>2009-02-11T14:45:43Z</time>
      </trkpt>
      <trkpt lat="43.67229" lon="6.88877">
        <ele>579</ele>
        <time>2009-02-11T14:45:46Z</time>
      </trkpt>
      <trkpt lat="43.67234" lon="6.88868">
        <ele>580</ele>
        <time>2009-02-11T14:45:51Z</time>
      </trkpt>
      <trkpt lat="43.67234" lon="6.88864">
        <ele>579</ele>
        <time>2009-02-11T14:45:52Z</time>
      </trkpt>
      <trkpt lat="43.67229" lon="6.8885">
        <ele>580</ele>
        <time>2009-02-11T14:45:57Z</time>
      </trkpt>
      <trkpt lat="43.67227" lon="6.88848">
        <ele>580</ele>
        <time>2009-02-11T14:46:07Z</time>
      </trkpt>
      <trkpt lat="43.67228" lon="6.88856">
        <ele>579</ele>
        <time>2009-02-11T14:46:12Z</time>
      </trkpt>
      <trkpt lat="43.67231" lon="6.88866">
        <ele>579</ele>
        <time>2009-02-11T14:46:20Z</time>
      </trkpt>
      <trkpt lat="43.67231" lon="6.8887">
        <ele>579</ele>
        <time>2009-02-11T14:46:28Z</time>
      </trkpt>
      <trkpt lat="43.6723" lon="6.88873">
        <ele>579</ele>
        <time>2009-02-11T14:46:35Z</time>
      </trkpt>
      <trkpt lat="43.67229" lon="6.88876">
        <ele>579</ele>
        <time>2009-02-11T14:46:41Z</time>
      </trkpt>
      <trkpt lat="43.67229" lon="6.88876">
        <ele>579</ele>
        <time>2009-02-11T14:46:47Z</time>
      </trkpt>
      <trkpt lat="43.6723" lon="6.88876">
        <ele>579</ele>
        <time>2009-02-11T14:46:54Z</time>
      </trkpt>
      <trkpt lat="43.67228" lon="6.88877">
        <ele>579</ele>
        <time>2009-02-11T14:47:08Z</time>
      </trkpt>
      <trkpt lat="43.67229" lon="6.88876">
        <ele>579</ele>
        <time>2009-02-11T14:47:15Z</time>
      </trkpt>
      <trkpt lat="43.67229" lon="6.88877">
        <ele>579</ele>
        <time>2009-02-11T14:47:24Z</time>
      </trkpt>
      <trkpt lat="43.67232" lon="6.88878">
        <ele>580</ele>
        <time>2009-02-11T14:47:42Z</time>
      </trkpt>
      <trkpt lat="43.67232" lon="6.8888">
        <ele>580</ele>
        <time>2009-02-11T14:47:47Z</time>
      </trkpt>
      <trkpt lat="43.67235" lon="6.88889">
        <ele>580</ele>
        <time>2009-02-11T14:47:53Z</time>
      </trkpt>
      <trkpt lat="43.67238" lon="6.88902">
        <ele>582</ele>
        <time>2009-02-11T14:48:01Z</time>
      </trkpt>
      <trkpt lat="43.67239" lon="6.88905">
        <ele>582</ele>
        <time>2009-02-11T14:48:10Z</time>
      </trkpt>
      <trkpt lat="43.67239" lon="6.88905">
        <ele>582</ele>
        <time>2009-02-11T14:48:22Z</time>
      </trkpt>
      <trkpt lat="43.6724" lon="6.88908">
        <ele>582</ele>
        <time>2009-02-11T14:48:33Z</time>
      </trkpt>
      <trkpt lat="43.67241" lon="6.88907">
        <ele>582</ele>
        <time>2009-02-11T14:48:41Z</time>
      </trkpt>
      <trkpt lat="43.67239" lon="6.88906">
        <ele>582</ele>
        <time>2009-02-11T14:48:51Z</time>
      </trkpt>
      <trkpt lat="43.67238" lon="6.88903">
        <ele>582</ele>
        <time>2009-02-11T14:48:53Z</time>
      </trkpt>
      <trkpt lat="43.67231" lon="6.88885">
        <ele>580</ele>
        <time>2009-02-11T14:48:59Z</time>
      </trkpt>
      <trkpt lat="43.6723" lon="6.88874">
        <ele>579</ele>
        <time>2009-02-11T14:49:03Z</time>
      </trkpt>
      <trkpt lat="43.67231" lon="6.8887">
        <ele>579</ele>
        <time>2009-02-11T14:49:05Z</time>
      </trkpt>
      <trkpt lat="43.67231" lon="6.88863">
        <ele>579</ele>
        <time>2009-02-11T14:49:07Z</time>
      </trkpt>
      <trkpt lat="43.67225" lon="6.88846">
        <ele>579</ele>
        <time>2009-02-11T14:49:13Z</time>
      </trkpt>
      <trkpt lat="43.67226" lon="6.88846">
        <ele>579</ele>
        <time>2009-02-11T14:49:14Z</time>
      </trkpt>
      <trkpt lat="43.67223" lon="6.8884">
        <ele>579</ele>
        <time>2009-02-11T14:49:26Z</time>
      </trkpt>
      <trkpt lat="43.6722" lon="6.88837">
        <ele>579</ele>
        <time>2009-02-11T14:49:32Z</time>
      </trkpt>
      <trkpt lat="43.67218" lon="6.88832">
        <ele>579</ele>
        <time>2009-02-11T14:49:39Z</time>
      </trkpt>
      <trkpt lat="43.67213" lon="6.88827">
        <ele>579</ele>
        <time>2009-02-11T14:49:44Z</time>
      </trkpt>
      <trkpt lat="43.67212" lon="6.88826">
        <ele>579</ele>
        <time>2009-02-11T14:49:45Z</time>
      </trkpt>
      <trkpt lat="43.67196" lon="6.88816">
        <ele>579</ele>
        <time>2009-02-11T14:49:51Z</time>
      </trkpt>
      <trkpt lat="43.67181" lon="6.88807">
        <ele>576</ele>
        <time>2009-02-11T14:49:56Z</time>
      </trkpt>
      <trkpt lat="43.67173" lon="6.88803">
        <ele>575</ele>
        <time>2009-02-11T14:49:59Z</time>
      </trkpt>
      <trkpt lat="43.67163" lon="6.88803">
        <ele>573</ele>
        <time>2009-02-11T14:50:03Z</time>
      </trkpt>
      <trkpt lat="43.67155" lon="6.88804">
        <ele>571</ele>
        <time>2009-02-11T14:50:06Z</time>
      </trkpt>
      <trkpt lat="43.67135" lon="6.88803">
        <ele>568</ele>
        <time>2009-02-11T14:50:12Z</time>
      </trkpt>
      <trkpt lat="43.6711" lon="6.88797">
        <ele>564</ele>
        <time>2009-02-11T14:50:17Z</time>
      </trkpt>
      <trkpt lat="43.67106" lon="6.88796">
        <ele>563</ele>
        <time>2009-02-11T14:50:18Z</time>
      </trkpt>
      <trkpt lat="43.6709" lon="6.88786">
        <ele>561</ele>
        <time>2009-02-11T14:50:23Z</time>
      </trkpt>
      <trkpt lat="43.67067" lon="6.8877">
        <ele>558</ele>
        <time>2009-02-11T14:50:29Z</time>
      </trkpt>
      <trkpt lat="43.67057" lon="6.88766">
        <ele>557</ele>
        <time>2009-02-11T14:50:33Z</time>
      </trkpt>
      <trkpt lat="43.67051" lon="6.88761">
        <ele>556</ele>
        <time>2009-02-11T14:50:38Z</time>
      </trkpt>
      <trkpt lat="43.6704" lon="6.8875">
        <ele>553</ele>
        <time>2009-02-11T14:50:44Z</time>
      </trkpt>
      <trkpt lat="43.6704" lon="6.88748">
        <ele>553</ele>
        <time>2009-02-11T14:50:45Z</time>
      </trkpt>
      <trkpt lat="43.67035" lon="6.88741">
        <ele>553</ele>
        <time>2009-02-11T14:50:51Z</time>
      </trkpt>
      <trkpt lat="43.67033" lon="6.88737">
        <ele>553</ele>
        <time>2009-02-11T14:50:53Z</time>
      </trkpt>
      <trkpt lat="43.67031" lon="6.88735">
        <ele>553</ele>
        <time>2009-02-11T14:51:00Z</time>
      </trkpt>
      <trkpt lat="43.6703" lon="6.88734">
        <ele>553</ele>
        <time>2009-02-11T14:51:01Z</time>
      </trkpt>
      <trkpt lat="43.67022" lon="6.88731">
        <ele>552</ele>
        <time>2009-02-11T14:51:06Z</time>
      </trkpt>
      <trkpt lat="43.6702" lon="6.88728">
        <ele>552</ele>
        <time>2009-02-11T14:51:10Z</time>
      </trkpt>
      <trkpt lat="43.67019" lon="6.88728">
        <ele>552</ele>
        <time>2009-02-11T14:51:11Z</time>
      </trkpt>
      <trkpt lat="43.67015" lon="6.88725">
        <ele>552</ele>
        <time>2009-02-11T14:51:15Z</time>
      </trkpt>
      <trkpt lat="43.67007" lon="6.88717">
        <ele>552</ele>
        <time>2009-02-11T14:51:20Z</time>
      </trkpt>
      <trkpt lat="43.66998" lon="6.88714">
        <ele>550</ele>
        <time>2009-02-11T14:51:24Z</time>
      </trkpt>
      <trkpt lat="43.66984" lon="6.88715">
        <ele>545</ele>
        <time>2009-02-11T14:51:28Z</time>
      </trkpt>
      <trkpt lat="43.66962" lon="6.88714">
        <ele>540</ele>
        <time>2009-02-11T14:51:33Z</time>
      </trkpt>
      <trkpt lat="43.66957" lon="6.88713">
        <ele>539</ele>
        <time>2009-02-11T14:51:34Z</time>
      </trkpt>
      <trkpt lat="43.66948" lon="6.8871">
        <ele>538</ele>
        <time>2009-02-11T14:51:36Z</time>
      </trkpt>
      <trkpt lat="43.66942" lon="6.88704">
        <ele>538</ele>
        <time>2009-02-11T14:51:40Z</time>
      </trkpt>
      <trkpt lat="43.66936" lon="6.88699">
        <ele>537</ele>
        <time>2009-02-11T14:51:44Z</time>
      </trkpt>
      <trkpt lat="43.66922" lon="6.8869">
        <ele>535</ele>
        <time>2009-02-11T14:51:48Z</time>
      </trkpt>
      <trkpt lat="43.66912" lon="6.88683">
        <ele>534</ele>
        <time>2009-02-11T14:51:52Z</time>
      </trkpt>
      <trkpt lat="43.66909" lon="6.88679">
        <ele>533</ele>
        <time>2009-02-11T14:51:56Z</time>
      </trkpt>
      <trkpt lat="43.66907" lon="6.88676">
        <ele>533</ele>
        <time>2009-02-11T14:51:57Z</time>
      </trkpt>
      <trkpt lat="43.66896" lon="6.8868">
        <ele>530</ele>
        <time>2009-02-11T14:52:01Z</time>
      </trkpt>
      <trkpt lat="43.66883" lon="6.88683">
        <ele>526</ele>
        <time>2009-02-11T14:52:05Z</time>
      </trkpt>
      <trkpt lat="43.66867" lon="6.88677">
        <ele>523</ele>
        <time>2009-02-11T14:52:10Z</time>
      </trkpt>
      <trkpt lat="43.66845" lon="6.8867">
        <ele>522</ele>
        <time>2009-02-11T14:52:17Z</time>
      </trkpt>
      <trkpt lat="43.66822" lon="6.88667">
        <ele>519</ele>
        <time>2009-02-11T14:52:24Z</time>
      </trkpt>
      <trkpt lat="43.668" lon="6.88677">
        <ele>514</ele>
        <time>2009-02-11T14:52:31Z</time>
      </trkpt>
      <trkpt lat="43.66783" lon="6.88692">
        <ele>509</ele>
        <time>2009-02-11T14:52:37Z</time>
      </trkpt>
      <trkpt lat="43.66763" lon="6.88727">
        <ele>501</ele>
        <time>2009-02-11T14:52:46Z</time>
      </trkpt>
      <trkpt lat="43.66757" lon="6.88757">
        <ele>502</ele>
        <time>2009-02-11T14:52:53Z</time>
      </trkpt>
      <trkpt lat="43.66751" lon="6.88797">
        <ele>507</ele>
        <time>2009-02-11T14:53:02Z</time>
      </trkpt>
      <trkpt lat="43.66747" lon="6.88822">
        <ele>512</ele>
        <time>2009-02-11T14:53:08Z</time>
      </trkpt>
      <trkpt lat="43.66742" lon="6.88856">
        <ele>515</ele>
        <time>2009-02-11T14:53:16Z</time>
      </trkpt>
      <trkpt lat="43.6674" lon="6.88892">
        <ele>520</ele>
        <time>2009-02-11T14:53:25Z</time>
      </trkpt>
      <trkpt lat="43.66742" lon="6.88928">
        <ele>525</ele>
        <time>2009-02-11T14:53:35Z</time>
      </trkpt>
      <trkpt lat="43.66739" lon="6.88957">
        <ele>528</ele>
        <time>2009-02-11T14:53:43Z</time>
      </trkpt>
      <trkpt lat="43.66731" lon="6.8899">
        <ele>527</ele>
        <time>2009-02-11T14:53:53Z</time>
      </trkpt>
      <trkpt lat="43.6672" lon="6.8902">
        <ele>524</ele>
        <time>2009-02-11T14:54:02Z</time>
      </trkpt>
      <trkpt lat="43.66711" lon="6.89047">
        <ele>524</ele>
        <time>2009-02-11T14:54:10Z</time>
      </trkpt>
      <trkpt lat="43.66705" lon="6.89078">
        <ele>523</ele>
        <time>2009-02-11T14:54:18Z</time>
      </trkpt>
      <trkpt lat="43.66699" lon="6.89106">
        <ele>522</ele>
        <time>2009-02-11T14:54:26Z</time>
      </trkpt>
      <trkpt lat="43.66692" lon="6.89138">
        <ele>521</ele>
        <time>2009-02-11T14:54:35Z</time>
      </trkpt>
      <trkpt lat="43.66684" lon="6.89166">
        <ele>521</ele>
        <time>2009-02-11T14:54:43Z</time>
      </trkpt>
      <trkpt lat="43.66679" lon="6.89198">
        <ele>521</ele>
        <time>2009-02-11T14:54:51Z</time>
      </trkpt>
      <trkpt lat="43.66675" lon="6.89228">
        <ele>521</ele>
        <time>2009-02-11T14:54:59Z</time>
      </trkpt>
      <trkpt lat="43.66673" lon="6.89255">
        <ele>522</ele>
        <time>2009-02-11T14:55:06Z</time>
      </trkpt>
      <trkpt lat="43.66673" lon="6.89279">
        <ele>522</ele>
        <time>2009-02-11T14:55:12Z</time>
      </trkpt>
      <trkpt lat="43.66677" lon="6.89308">
        <ele>524</ele>
        <time>2009-02-11T14:55:17Z</time>
      </trkpt>
      <trkpt lat="43.66694" lon="6.89351">
        <ele>528</ele>
        <time>2009-02-11T14:55:24Z</time>
      </trkpt>
      <trkpt lat="43.66726" lon="6.89418">
        <ele>538</ele>
        <time>2009-02-11T14:55:35Z</time>
      </trkpt>
      <trkpt lat="43.66729" lon="6.89425">
        <ele>538</ele>
        <time>2009-02-11T14:55:36Z</time>
      </trkpt>
      <trkpt lat="43.66737" lon="6.89475">
        <ele>538</ele>
        <time>2009-02-11T14:55:43Z</time>
      </trkpt>
      <trkpt lat="43.66741" lon="6.89545">
        <ele>536</ele>
        <time>2009-02-11T14:55:53Z</time>
      </trkpt>
      <trkpt lat="43.66743" lon="6.89567">
        <ele>536</ele>
        <time>2009-02-11T14:55:56Z</time>
      </trkpt>
      <trkpt lat="43.66758" lon="6.89627">
        <ele>537</ele>
        <time>2009-02-11T14:56:04Z</time>
      </trkpt>
      <trkpt lat="43.66779" lon="6.89696">
        <ele>540</ele>
        <time>2009-02-11T14:56:13Z</time>
      </trkpt>
      <trkpt lat="43.66801" lon="6.89764">
        <ele>544</ele>
        <time>2009-02-11T14:56:22Z</time>
      </trkpt>
      <trkpt lat="43.66804" lon="6.8978">
        <ele>544</ele>
        <time>2009-02-11T14:56:24Z</time>
      </trkpt>
      <trkpt lat="43.66801" lon="6.89838">
        <ele>541</ele>
        <time>2009-02-11T14:56:31Z</time>
      </trkpt>
      <trkpt lat="43.66802" lon="6.89846">
        <ele>540</ele>
        <time>2009-02-11T14:56:32Z</time>
      </trkpt>
      <trkpt lat="43.66807" lon="6.89879">
        <ele>540</ele>
        <time>2009-02-11T14:56:36Z</time>
      </trkpt>
      <trkpt lat="43.66834" lon="6.8996">
        <ele>536</ele>
        <time>2009-02-11T14:56:47Z</time>
      </trkpt>
      <trkpt lat="43.6684" lon="6.89974">
        <ele>535</ele>
        <time>2009-02-11T14:56:49Z</time>
      </trkpt>
      <trkpt lat="43.66864" lon="6.90002">
        <ele>533</ele>
        <time>2009-02-11T14:56:54Z</time>
      </trkpt>
      <trkpt lat="43.66899" lon="6.90014">
        <ele>535</ele>
        <time>2009-02-11T14:56:59Z</time>
      </trkpt>
      <trkpt lat="43.66906" lon="6.90013">
        <ele>536</ele>
        <time>2009-02-11T14:57:00Z</time>
      </trkpt>
      <trkpt lat="43.6696" lon="6.90003">
        <ele>541</ele>
        <time>2009-02-11T14:57:07Z</time>
      </trkpt>
      <trkpt lat="43.67014" lon="6.89988">
        <ele>547</ele>
        <time>2009-02-11T14:57:14Z</time>
      </trkpt>
      <trkpt lat="43.67052" lon="6.89973">
        <ele>555</ele>
        <time>2009-02-11T14:57:19Z</time>
      </trkpt>
      <trkpt lat="43.67074" lon="6.89982">
        <ele>555</ele>
        <time>2009-02-11T14:57:22Z</time>
      </trkpt>
      <trkpt lat="43.67072" lon="6.90003">
        <ele>550</ele>
        <time>2009-02-11T14:57:24Z</time>
      </trkpt>
      <trkpt lat="43.67064" lon="6.90013">
        <ele>547</ele>
        <time>2009-02-11T14:57:26Z</time>
      </trkpt>
      <trkpt lat="43.67059" lon="6.90017">
        <ele>546</ele>
        <time>2009-02-11T14:57:27Z</time>
      </trkpt>
      <trkpt lat="43.67023" lon="6.90064">
        <ele>535</ele>
        <time>2009-02-11T14:57:37Z</time>
      </trkpt>
      <trkpt lat="43.6699" lon="6.90107">
        <ele>524</ele>
        <time>2009-02-11T14:57:46Z</time>
      </trkpt>
      <trkpt lat="43.66981" lon="6.90123">
        <ele>521</ele>
        <time>2009-02-11T14:57:49Z</time>
      </trkpt>
      <trkpt lat="43.66969" lon="6.9016">
        <ele>517</ele>
        <time>2009-02-11T14:57:56Z</time>
      </trkpt>
      <trkpt lat="43.66968" lon="6.90165">
        <ele>516</ele>
        <time>2009-02-11T14:57:57Z</time>
      </trkpt>
      <trkpt lat="43.66955" lon="6.90197">
        <ele>514</ele>
        <time>2009-02-11T14:58:04Z</time>
      </trkpt>
      <trkpt lat="43.66935" lon="6.90219">
        <ele>513</ele>
        <time>2009-02-11T14:58:11Z</time>
      </trkpt>
      <trkpt lat="43.66907" lon="6.90246">
        <ele>512</ele>
        <time>2009-02-11T14:58:21Z</time>
      </trkpt>
      <trkpt lat="43.66887" lon="6.90272">
        <ele>510</ele>
        <time>2009-02-11T14:58:29Z</time>
      </trkpt>
      <trkpt lat="43.66872" lon="6.90301">
        <ele>511</ele>
        <time>2009-02-11T14:58:36Z</time>
      </trkpt>
      <trkpt lat="43.66862" lon="6.90345">
        <ele>515</ele>
        <time>2009-02-11T14:58:43Z</time>
      </trkpt>
      <trkpt lat="43.6686" lon="6.90391">
        <ele>520</ele>
        <time>2009-02-11T14:58:48Z</time>
      </trkpt>
      <trkpt lat="43.66865" lon="6.90444">
        <ele>524</ele>
        <time>2009-02-11T14:58:53Z</time>
      </trkpt>
      <trkpt lat="43.66874" lon="6.90488">
        <ele>528</ele>
        <time>2009-02-11T14:58:57Z</time>
      </trkpt>
      <trkpt lat="43.66874" lon="6.90536">
        <ele>532</ele>
        <time>2009-02-11T14:59:01Z</time>
      </trkpt>
      <trkpt lat="43.66871" lon="6.90596">
        <ele>533</ele>
        <time>2009-02-11T14:59:06Z</time>
      </trkpt>
      <trkpt lat="43.6689" lon="6.90722">
        <ele>536</ele>
        <time>2009-02-11T14:59:16Z</time>
      </trkpt>
      <trkpt lat="43.66893" lon="6.90788">
        <ele>536</ele>
        <time>2009-02-11T14:59:21Z</time>
      </trkpt>
      <trkpt lat="43.66882" lon="6.90864">
        <ele>536</ele>
        <time>2009-02-11T14:59:27Z</time>
      </trkpt>
      <trkpt lat="43.66872" lon="6.90947">
        <ele>546</ele>
        <time>2009-02-11T14:59:34Z</time>
      </trkpt>
      <trkpt lat="43.66853" lon="6.90972">
        <ele>548</ele>
        <time>2009-02-11T14:59:38Z</time>
      </trkpt>
      <trkpt lat="43.66838" lon="6.90959">
        <ele>547</ele>
        <time>2009-02-11T14:59:40Z</time>
      </trkpt>
      <trkpt lat="43.66834" lon="6.9095">
        <ele>546</ele>
        <time>2009-02-11T14:59:41Z</time>
      </trkpt>
      <trkpt lat="43.66827" lon="6.90935">
        <ele>544</ele>
        <time>2009-02-11T14:59:43Z</time>
      </trkpt>
      <trkpt lat="43.66796" lon="6.90897">
        <ele>537</ele>
        <time>2009-02-11T14:59:50Z</time>
      </trkpt>
      <trkpt lat="43.66768" lon="6.90869">
        <ele>530</ele>
        <time>2009-02-11T14:59:56Z</time>
      </trkpt>
      <trkpt lat="43.66743" lon="6.90855">
        <ele>525</ele>
        <time>2009-02-11T15:00:01Z</time>
      </trkpt>
      <trkpt lat="43.66715" lon="6.90859">
        <ele>523</ele>
        <time>2009-02-11T15:00:06Z</time>
      </trkpt>
      <trkpt lat="43.667" lon="6.9087">
        <ele>523</ele>
        <time>2009-02-11T15:00:09Z</time>
      </trkpt>
      <trkpt lat="43.66676" lon="6.90901">
        <ele>524</ele>
        <time>2009-02-11T15:00:15Z</time>
      </trkpt>
      <trkpt lat="43.66652" lon="6.90944">
        <ele>528</ele>
        <time>2009-02-11T15:00:22Z</time>
      </trkpt>
      <trkpt lat="43.66628" lon="6.91002">
        <ele>532</ele>
        <time>2009-02-11T15:00:30Z</time>
      </trkpt>
      <trkpt lat="43.66602" lon="6.91054">
        <ele>532</ele>
        <time>2009-02-11T15:00:37Z</time>
      </trkpt>
      <trkpt lat="43.66586" lon="6.91084">
        <ele>532</ele>
        <time>2009-02-11T15:00:41Z</time>
      </trkpt>
      <trkpt lat="43.6655" lon="6.91127">
        <ele>522</ele>
        <time>2009-02-11T15:00:48Z</time>
      </trkpt>
      <trkpt lat="43.66525" lon="6.91164">
        <ele>521</ele>
        <time>2009-02-11T15:00:53Z</time>
      </trkpt>
      <trkpt lat="43.6649" lon="6.91216">
        <ele>515</ele>
        <time>2009-02-11T15:00:59Z</time>
      </trkpt>
      <trkpt lat="43.66476" lon="6.91237">
        <ele>509</ele>
        <time>2009-02-11T15:01:02Z</time>
      </trkpt>
      <trkpt lat="43.6647" lon="6.91245">
        <ele>507</ele>
        <time>2009-02-11T15:01:04Z</time>
      </trkpt>
      <trkpt lat="43.66468" lon="6.91249">
        <ele>507</ele>
        <time>2009-02-11T15:01:09Z</time>
      </trkpt>
      <trkpt lat="43.66469" lon="6.91248">
        <ele>507</ele>
        <time>2009-02-11T15:01:24Z</time>
      </trkpt>
      <trkpt lat="43.6647" lon="6.91246">
        <ele>507</ele>
        <time>2009-02-11T15:01:40Z</time>
      </trkpt>
      <trkpt lat="43.6647" lon="6.91245">
        <ele>507</ele>
        <time>2009-02-11T15:02:05Z</time>
      </trkpt>
      <trkpt lat="43.6647" lon="6.91248">
        <ele>507</ele>
        <time>2009-02-11T15:02:14Z</time>
      </trkpt>
      <trkpt lat="43.6647" lon="6.91249">
        <ele>507</ele>
        <time>2009-02-11T15:02:15Z</time>
      </trkpt>
      <trkpt lat="43.66473" lon="6.91248">
        <ele>508</ele>
        <time>2009-02-11T15:02:19Z</time>
      </trkpt>
      <trkpt lat="43.66472" lon="6.91246">
        <ele>508</ele>
        <time>2009-02-11T15:02:20Z</time>
      </trkpt>
      <trkpt lat="43.66476" lon="6.91233">
        <ele>509</ele>
        <time>2009-02-11T15:02:26Z</time>
      </trkpt>
      <trkpt lat="43.66481" lon="6.91229">
        <ele>511</ele>
        <time>2009-02-11T15:02:29Z</time>
      </trkpt>
      <trkpt lat="43.66494" lon="6.91209">
        <ele>517</ele>
        <time>2009-02-11T15:02:37Z</time>
      </trkpt>
      <trkpt lat="43.66504" lon="6.91193">
        <ele>520</ele>
        <time>2009-02-11T15:02:42Z</time>
      </trkpt>
      <trkpt lat="43.66516" lon="6.91176">
        <ele>521</ele>
        <time>2009-02-11T15:02:48Z</time>
      </trkpt>
      <trkpt lat="43.66523" lon="6.91159">
        <ele>521</ele>
        <time>2009-02-11T15:02:54Z</time>
      </trkpt>
      <trkpt lat="43.66527" lon="6.91142">
        <ele>521</ele>
        <time>2009-02-11T15:02:58Z</time>
      </trkpt>
      <trkpt lat="43.66529" lon="6.91112">
        <ele>521</ele>
        <time>2009-02-11T15:03:04Z</time>
      </trkpt>
      <trkpt lat="43.66516" lon="6.91084">
        <ele>519</ele>
        <time>2009-02-11T15:03:10Z</time>
      </trkpt>
      <trkpt lat="43.66512" lon="6.91064">
        <ele>518</ele>
        <time>2009-02-11T15:03:14Z</time>
      </trkpt>
      <trkpt lat="43.6651" lon="6.91048">
        <ele>516</ele>
        <time>2009-02-11T15:03:19Z</time>
      </trkpt>
      <trkpt lat="43.66508" lon="6.91045">
        <ele>516</ele>
        <time>2009-02-11T15:03:21Z</time>
      </trkpt>
      <trkpt lat="43.66497" lon="6.91049">
        <ele>514</ele>
        <time>2009-02-11T15:03:26Z</time>
      </trkpt>
      <trkpt lat="43.66486" lon="6.91054">
        <ele>509</ele>
        <time>2009-02-11T15:03:31Z</time>
      </trkpt>
      <trkpt lat="43.66478" lon="6.91054">
        <ele>505</ele>
        <time>2009-02-11T15:03:35Z</time>
      </trkpt>
      <trkpt lat="43.66475" lon="6.91041">
        <ele>504</ele>
        <time>2009-02-11T15:03:39Z</time>
      </trkpt>
      <trkpt lat="43.66486" lon="6.9101">
        <ele>507</ele>
        <time>2009-02-11T15:03:45Z</time>
      </trkpt>
      <trkpt lat="43.66505" lon="6.9096">
        <ele>508</ele>
        <time>2009-02-11T15:03:53Z</time>
      </trkpt>
      <trkpt lat="43.66521" lon="6.90917">
        <ele>507</ele>
        <time>2009-02-11T15:04:00Z</time>
      </trkpt>
      <trkpt lat="43.66529" lon="6.90904">
        <ele>507</ele>
        <time>2009-02-11T15:04:03Z</time>
      </trkpt>
      <trkpt lat="43.66535" lon="6.90894">
        <ele>506</ele>
        <time>2009-02-11T15:04:06Z</time>
      </trkpt>
      <trkpt lat="43.6654" lon="6.90885">
        <ele>506</ele>
        <time>2009-02-11T15:04:09Z</time>
      </trkpt>
      <trkpt lat="43.66541" lon="6.90867">
        <ele>505</ele>
        <time>2009-02-11T15:04:14Z</time>
      </trkpt>
      <trkpt lat="43.66541" lon="6.90863">
        <ele>505</ele>
        <time>2009-02-11T15:04:15Z</time>
      </trkpt>
      <trkpt lat="43.66539" lon="6.90861">
        <ele>504</ele>
        <time>2009-02-11T15:04:21Z</time>
      </trkpt>
      <trkpt lat="43.66536" lon="6.90854">
        <ele>503</ele>
        <time>2009-02-11T15:04:26Z</time>
      </trkpt>
      <trkpt lat="43.66537" lon="6.90837">
        <ele>502</ele>
        <time>2009-02-11T15:04:30Z</time>
      </trkpt>
      <trkpt lat="43.66542" lon="6.90806">
        <ele>498</ele>
        <time>2009-02-11T15:04:35Z</time>
      </trkpt>
      <trkpt lat="43.66544" lon="6.90787">
        <ele>496</ele>
        <time>2009-02-11T15:04:38Z</time>
      </trkpt>
      <trkpt lat="43.66553" lon="6.9076">
        <ele>491</ele>
        <time>2009-02-11T15:04:43Z</time>
      </trkpt>
      <trkpt lat="43.66567" lon="6.90743">
        <ele>490</ele>
        <time>2009-02-11T15:04:47Z</time>
      </trkpt>
      <trkpt lat="43.66573" lon="6.90738">
        <ele>490</ele>
        <time>2009-02-11T15:04:49Z</time>
      </trkpt>
      <trkpt lat="43.6659" lon="6.9073">
        <ele>489</ele>
        <time>2009-02-11T15:04:53Z</time>
      </trkpt>
      <trkpt lat="43.66598" lon="6.90724">
        <ele>487</ele>
        <time>2009-02-11T15:04:55Z</time>
      </trkpt>
      <trkpt lat="43.66613" lon="6.90713">
        <ele>485</ele>
        <time>2009-02-11T15:05:00Z</time>
      </trkpt>
      <trkpt lat="43.66621" lon="6.90704">
        <ele>484</ele>
        <time>2009-02-11T15:05:04Z</time>
      </trkpt>
      <trkpt lat="43.66627" lon="6.907">
        <ele>483</ele>
        <time>2009-02-11T15:05:07Z</time>
      </trkpt>
      <trkpt lat="43.66643" lon="6.90684">
        <ele>481</ele>
        <time>2009-02-11T15:05:14Z</time>
      </trkpt>
      <trkpt lat="43.66652" lon="6.90668">
        <ele>481</ele>
        <time>2009-02-11T15:05:19Z</time>
      </trkpt>
      <trkpt lat="43.66662" lon="6.90647">
        <ele>485</ele>
        <time>2009-02-11T15:05:25Z</time>
      </trkpt>
      <trkpt lat="43.66672" lon="6.90634">
        <ele>488</ele>
        <time>2009-02-11T15:05:29Z</time>
      </trkpt>
      <trkpt lat="43.66685" lon="6.90629">
        <ele>491</ele>
        <time>2009-02-11T15:05:34Z</time>
      </trkpt>
      <trkpt lat="43.66685" lon="6.90622">
        <ele>492</ele>
        <time>2009-02-11T15:05:38Z</time>
      </trkpt>
      <trkpt lat="43.66672" lon="6.90607">
        <ele>490</ele>
        <time>2009-02-11T15:05:45Z</time>
      </trkpt>
      <trkpt lat="43.66656" lon="6.90596">
        <ele>487</ele>
        <time>2009-02-11T15:05:52Z</time>
      </trkpt>
      <trkpt lat="43.6664" lon="6.90585">
        <ele>484</ele>
        <time>2009-02-11T15:05:58Z</time>
      </trkpt>
      <trkpt lat="43.66631" lon="6.90573">
        <ele>482</ele>
        <time>2009-02-11T15:06:04Z</time>
      </trkpt>
      <trkpt lat="43.66614" lon="6.90555">
        <ele>477</ele>
        <time>2009-02-11T15:06:13Z</time>
      </trkpt>
      <trkpt lat="43.66597" lon="6.90543">
        <ele>474</ele>
        <time>2009-02-11T15:06:20Z</time>
      </trkpt>
      <trkpt lat="43.66573" lon="6.9053">
        <ele>470</ele>
        <time>2009-02-11T15:06:26Z</time>
      </trkpt>
      <trkpt lat="43.66557" lon="6.90521">
        <ele>465</ele>
        <time>2009-02-11T15:06:30Z</time>
      </trkpt>
      <trkpt lat="43.66547" lon="6.90512">
        <ele>463</ele>
        <time>2009-02-11T15:06:35Z</time>
      </trkpt>
      <trkpt lat="43.66546" lon="6.90512">
        <ele>463</ele>
        <time>2009-02-11T15:06:40Z</time>
      </trkpt>
      <trkpt lat="43.66544" lon="6.90514">
        <ele>462</ele>
        <time>2009-02-11T15:07:01Z</time>
      </trkpt>
      <trkpt lat="43.66546" lon="6.90512">
        <ele>463</ele>
        <time>2009-02-11T15:07:14Z</time>
      </trkpt>
      <trkpt lat="43.66546" lon="6.9051">
        <ele>462</ele>
        <time>2009-02-11T15:07:19Z</time>
      </trkpt>
      <trkpt lat="43.66547" lon="6.90509">
        <ele>462</ele>
        <time>2009-02-11T15:07:25Z</time>
      </trkpt>
      <trkpt lat="43.66547" lon="6.90508">
        <ele>462</ele>
        <time>2009-02-11T15:07:33Z</time>
      </trkpt>
      <trkpt lat="43.66548" lon="6.90512">
        <ele>463</ele>
        <time>2009-02-11T15:07:54Z</time>
      </trkpt>
      <trkpt lat="43.66548" lon="6.9051">
        <ele>463</ele>
        <time>2009-02-11T15:07:56Z</time>
      </trkpt>
      <trkpt lat="43.6655" lon="6.90509">
        <ele>463</ele>
        <time>2009-02-11T15:08:03Z</time>
      </trkpt>
      <trkpt lat="43.66552" lon="6.90508">
        <ele>463</ele>
        <time>2009-02-11T15:08:23Z</time>
      </trkpt>
      <trkpt lat="43.66551" lon="6.90509">
        <ele>463</ele>
        <time>2009-02-11T15:08:34Z</time>
      </trkpt>
      <trkpt lat="43.6655" lon="6.9051">
        <ele>463</ele>
        <time>2009-02-11T15:08:40Z</time>
      </trkpt>
      <trkpt lat="43.66548" lon="6.90512">
        <ele>463</ele>
        <time>2009-02-11T15:08:44Z</time>
      </trkpt>
      <trkpt lat="43.66545" lon="6.90513">
        <ele>462</ele>
        <time>2009-02-11T15:08:53Z</time>
      </trkpt>
      <trkpt lat="43.66537" lon="6.9051">
        <ele>461</ele>
        <time>2009-02-11T15:08:59Z</time>
      </trkpt>
      <trkpt lat="43.66533" lon="6.90512">
        <ele>460</ele>
        <time>2009-02-11T15:09:05Z</time>
      </trkpt>
      <trkpt lat="43.66531" lon="6.90511">
        <ele>459</ele>
        <time>2009-02-11T15:09:12Z</time>
      </trkpt>
      <trkpt lat="43.66532" lon="6.9051">
        <ele>460</ele>
        <time>2009-02-11T15:09:19Z</time>
      </trkpt>
      <trkpt lat="43.66537" lon="6.9051">
        <ele>461</ele>
        <time>2009-02-11T15:09:25Z</time>
      </trkpt>
      <trkpt lat="43.66541" lon="6.90511">
        <ele>461</ele>
        <time>2009-02-11T15:09:30Z</time>
      </trkpt>
      <trkpt lat="43.66544" lon="6.90512">
        <ele>462</ele>
        <time>2009-02-11T15:09:35Z</time>
      </trkpt>
      <trkpt lat="43.66548" lon="6.90517">
        <ele>463</ele>
        <time>2009-02-11T15:09:42Z</time>
      </trkpt>
      <trkpt lat="43.66548" lon="6.90517">
        <ele>463</ele>
        <time>2009-02-11T15:09:50Z</time>
      </trkpt>
      <trkpt lat="43.6655" lon="6.90516">
        <ele>464</ele>
        <time>2009-02-11T15:09:54Z</time>
      </trkpt>
      <trkpt lat="43.66557" lon="6.90518">
        <ele>465</ele>
        <time>2009-02-11T15:10:01Z</time>
      </trkpt>
      <trkpt lat="43.6656" lon="6.90521">
        <ele>466</ele>
        <time>2009-02-11T15:10:04Z</time>
      </trkpt>
      <trkpt lat="43.66564" lon="6.90526">
        <ele>468</ele>
        <time>2009-02-11T15:10:10Z</time>
      </trkpt>
      <trkpt lat="43.66565" lon="6.90526">
        <ele>468</ele>
        <time>2009-02-11T15:10:11Z</time>
      </trkpt>
      <trkpt lat="43.66565" lon="6.90528">
        <ele>468</ele>
        <time>2009-02-11T15:10:21Z</time>
      </trkpt>
      <trkpt lat="43.66565" lon="6.90527">
        <ele>468</ele>
        <time>2009-02-11T15:10:22Z</time>
      </trkpt>
      <trkpt lat="43.66556" lon="6.90519">
        <ele>465</ele>
        <time>2009-02-11T15:10:28Z</time>
      </trkpt>
      <trkpt lat="43.66548" lon="6.90511">
        <ele>463</ele>
        <time>2009-02-11T15:10:33Z</time>
      </trkpt>
      <trkpt lat="43.66548" lon="6.90509">
        <ele>463</ele>
        <time>2009-02-11T15:10:34Z</time>
      </trkpt>
      <trkpt lat="43.66558" lon="6.90491">
        <ele>464</ele>
        <time>2009-02-11T15:10:41Z</time>
      </trkpt>
      <trkpt lat="43.66567" lon="6.90481">
        <ele>466</ele>
        <time>2009-02-11T15:10:46Z</time>
      </trkpt>
      <trkpt lat="43.66568" lon="6.90479">
        <ele>466</ele>
        <time>2009-02-11T15:10:52Z</time>
      </trkpt>
      <trkpt lat="43.66567" lon="6.90479">
        <ele>466</ele>
        <time>2009-02-11T15:10:58Z</time>
      </trkpt>
      <trkpt lat="43.66557" lon="6.90489">
        <ele>463</ele>
        <time>2009-02-11T15:11:04Z</time>
      </trkpt>
      <trkpt lat="43.66552" lon="6.90498">
        <ele>463</ele>
        <time>2009-02-11T15:11:06Z</time>
      </trkpt>
      <trkpt lat="43.66547" lon="6.90509">
        <ele>463</ele>
        <time>2009-02-11T15:11:09Z</time>
      </trkpt>
      <trkpt lat="43.66544" lon="6.90511">
        <ele>462</ele>
        <time>2009-02-11T15:11:16Z</time>
      </trkpt>
      <trkpt lat="43.66538" lon="6.9051">
        <ele>461</ele>
        <time>2009-02-11T15:11:23Z</time>
      </trkpt>
      <trkpt lat="43.66533" lon="6.9051">
        <ele>460</ele>
        <time>2009-02-11T15:11:29Z</time>
      </trkpt>
      <trkpt lat="43.6653" lon="6.90509">
        <ele>459</ele>
        <time>2009-02-11T15:11:35Z</time>
      </trkpt>
      <trkpt lat="43.66531" lon="6.90506">
        <ele>459</ele>
        <time>2009-02-11T15:11:40Z</time>
      </trkpt>
      <trkpt lat="43.66527" lon="6.90505">
        <ele>458</ele>
        <time>2009-02-11T15:11:46Z</time>
      </trkpt>
      <trkpt lat="43.66523" lon="6.90511">
        <ele>457</ele>
        <time>2009-02-11T15:11:54Z</time>
      </trkpt>
      <trkpt lat="43.66522" lon="6.90513">
        <ele>456</ele>
        <time>2009-02-11T15:12:01Z</time>
      </trkpt>
      <trkpt lat="43.6652" lon="6.90512">
        <ele>455</ele>
        <time>2009-02-11T15:12:06Z</time>
      </trkpt>
      <trkpt lat="43.66519" lon="6.9051">
        <ele>455</ele>
        <time>2009-02-11T15:12:10Z</time>
      </trkpt>
      <trkpt lat="43.6652" lon="6.90506">
        <ele>455</ele>
        <time>2009-02-11T15:12:17Z</time>
      </trkpt>
      <trkpt lat="43.6652" lon="6.90504">
        <ele>455</ele>
        <time>2009-02-11T15:12:22Z</time>
      </trkpt>
      <trkpt lat="43.66517" lon="6.90501">
        <ele>453</ele>
        <time>2009-02-11T15:12:27Z</time>
      </trkpt>
      <trkpt lat="43.66515" lon="6.90503">
        <ele>453</ele>
        <time>2009-02-11T15:12:28Z</time>
      </trkpt>
      <trkpt lat="43.66512" lon="6.90507">
        <ele>451</ele>
        <time>2009-02-11T15:12:31Z</time>
      </trkpt>
      <trkpt lat="43.66507" lon="6.9051">
        <ele>449</ele>
        <time>2009-02-11T15:12:37Z</time>
      </trkpt>
      <trkpt lat="43.66501" lon="6.90511">
        <ele>446</ele>
        <time>2009-02-11T15:12:43Z</time>
      </trkpt>
      <trkpt lat="43.665" lon="6.90509">
        <ele>446</ele>
        <time>2009-02-11T15:12:49Z</time>
      </trkpt>
      <trkpt lat="43.66502" lon="6.9051">
        <ele>447</ele>
        <time>2009-02-11T15:12:56Z</time>
      </trkpt>
      <trkpt lat="43.66504" lon="6.90493">
        <ele>447</ele>
        <time>2009-02-11T15:13:03Z</time>
      </trkpt>
      <trkpt lat="43.66504" lon="6.90489">
        <ele>447</ele>
        <time>2009-02-11T15:13:08Z</time>
      </trkpt>
      <trkpt lat="43.66499" lon="6.90484">
        <ele>445</ele>
        <time>2009-02-11T15:13:16Z</time>
      </trkpt>
      <trkpt lat="43.66499" lon="6.90478">
        <ele>445</ele>
        <time>2009-02-11T15:13:22Z</time>
      </trkpt>
      <trkpt lat="43.665" lon="6.90476">
        <ele>446</ele>
        <time>2009-02-11T15:13:30Z</time>
      </trkpt>
      <trkpt lat="43.665" lon="6.90476">
        <ele>446</ele>
        <time>2009-02-11T15:13:41Z</time>
      </trkpt>
      <trkpt lat="43.66498" lon="6.90476">
        <ele>445</ele>
        <time>2009-02-11T15:13:52Z</time>
      </trkpt>
      <trkpt lat="43.66498" lon="6.90473">
        <ele>445</ele>
        <time>2009-02-11T15:14:06Z</time>
      </trkpt>
      <trkpt lat="43.66498" lon="6.90474">
        <ele>445</ele>
        <time>2009-02-11T15:14:14Z</time>
      </trkpt>
      <trkpt lat="43.66499" lon="6.90476">
        <ele>445</ele>
        <time>2009-02-11T15:14:22Z</time>
      </trkpt>
      <trkpt lat="43.66496" lon="6.90476">
        <ele>444</ele>
        <time>2009-02-11T15:14:24Z</time>
      </trkpt>
      <trkpt lat="43.6649" lon="6.9048">
        <ele>442</ele>
        <time>2009-02-11T15:14:30Z</time>
      </trkpt>
      <trkpt lat="43.66483" lon="6.90488">
        <ele>440</ele>
        <time>2009-02-11T15:14:39Z</time>
      </trkpt>
      <trkpt lat="43.66481" lon="6.90488">
        <ele>439</ele>
        <time>2009-02-11T15:14:48Z</time>
      </trkpt>
      <trkpt lat="43.66478" lon="6.90486">
        <ele>438</ele>
        <time>2009-02-11T15:14:52Z</time>
      </trkpt>
      <trkpt lat="43.66476" lon="6.9048">
        <ele>437</ele>
        <time>2009-02-11T15:14:57Z</time>
      </trkpt>
      <trkpt lat="43.66475" lon="6.90476">
        <ele>437</ele>
        <time>2009-02-11T15:15:00Z</time>
      </trkpt>
      <trkpt lat="43.66467" lon="6.90467">
        <ele>435</ele>
        <time>2009-02-11T15:15:07Z</time>
      </trkpt>
      <trkpt lat="43.66465" lon="6.90463">
        <ele>434</ele>
        <time>2009-02-11T15:15:13Z</time>
      </trkpt>
      <trkpt lat="43.66465" lon="6.90462">
        <ele>434</ele>
        <time>2009-02-11T15:15:16Z</time>
      </trkpt>
      <trkpt lat="43.66467" lon="6.90453">
        <ele>435</ele>
        <time>2009-02-11T15:15:20Z</time>
      </trkpt>
      <trkpt lat="43.66479" lon="6.90442">
        <ele>439</ele>
        <time>2009-02-11T15:15:26Z</time>
      </trkpt>
      <trkpt lat="43.66476" lon="6.90437">
        <ele>438</ele>
        <time>2009-02-11T15:15:30Z</time>
      </trkpt>
      <trkpt lat="43.66475" lon="6.90437">
        <ele>438</ele>
        <time>2009-02-11T15:15:31Z</time>
      </trkpt>
      <trkpt lat="43.66469" lon="6.90438">
        <ele>436</ele>
        <time>2009-02-11T15:15:36Z</time>
      </trkpt>
      <trkpt lat="43.66458" lon="6.9044">
        <ele>432</ele>
        <time>2009-02-11T15:15:40Z</time>
      </trkpt>
      <trkpt lat="43.66438" lon="6.90441">
        <ele>426</ele>
        <time>2009-02-11T15:15:45Z</time>
      </trkpt>
      <trkpt lat="43.66433" lon="6.90429">
        <ele>424</ele>
        <time>2009-02-11T15:15:49Z</time>
      </trkpt>
      <trkpt lat="43.66435" lon="6.90426">
        <ele>425</ele>
        <time>2009-02-11T15:15:50Z</time>
      </trkpt>
      <trkpt lat="43.66452" lon="6.90406">
        <ele>431</ele>
        <time>2009-02-11T15:15:55Z</time>
      </trkpt>
      <trkpt lat="43.66454" lon="6.90394">
        <ele>431</ele>
        <time>2009-02-11T15:15:59Z</time>
      </trkpt>
      <trkpt lat="43.66451" lon="6.9039">
        <ele>430</ele>
        <time>2009-02-11T15:16:03Z</time>
      </trkpt>
      <trkpt lat="43.66442" lon="6.90393">
        <ele>427</ele>
        <time>2009-02-11T15:16:06Z</time>
      </trkpt>
      <trkpt lat="43.6641" lon="6.90418">
        <ele>416</ele>
        <time>2009-02-11T15:16:14Z</time>
      </trkpt>
      <trkpt lat="43.66407" lon="6.90422">
        <ele>414</ele>
        <time>2009-02-11T15:16:15Z</time>
      </trkpt>
      <trkpt lat="43.66393" lon="6.90447">
        <ele>407</ele>
        <time>2009-02-11T15:16:20Z</time>
      </trkpt>
      <trkpt lat="43.66391" lon="6.90472">
        <ele>406</ele>
        <time>2009-02-11T15:16:24Z</time>
      </trkpt>
      <trkpt lat="43.66403" lon="6.9052">
        <ele>410</ele>
        <time>2009-02-11T15:16:31Z</time>
      </trkpt>
      <trkpt lat="43.66413" lon="6.90557">
        <ele>412</ele>
        <time>2009-02-11T15:16:37Z</time>
      </trkpt>
      <trkpt lat="43.66411" lon="6.9059">
        <ele>409</ele>
        <time>2009-02-11T15:16:42Z</time>
      </trkpt>
      <trkpt lat="43.66399" lon="6.90613">
        <ele>403</ele>
        <time>2009-02-11T15:16:46Z</time>
      </trkpt>
      <trkpt lat="43.66381" lon="6.90629">
        <ele>394</ele>
        <time>2009-02-11T15:16:51Z</time>
      </trkpt>
      <trkpt lat="43.66368" lon="6.9064">
        <ele>385</ele>
        <time>2009-02-11T15:16:55Z</time>
      </trkpt>
      <trkpt lat="43.66364" lon="6.90645">
        <ele>381</ele>
        <time>2009-02-11T15:16:59Z</time>
      </trkpt>
      <trkpt lat="43.6636" lon="6.90647">
        <ele>379</ele>
        <time>2009-02-11T15:17:12Z</time>
      </trkpt>
      <trkpt lat="43.66361" lon="6.90643">
        <ele>380</ele>
        <time>2009-02-11T15:17:51Z</time>
      </trkpt>
      <trkpt lat="43.66362" lon="6.90643">
        <ele>380</ele>
        <time>2009-02-11T15:18:00Z</time>
      </trkpt>
      <trkpt lat="43.66364" lon="6.90643">
        <ele>381</ele>
        <time>2009-02-11T15:18:04Z</time>
      </trkpt>
      <trkpt lat="43.66376" lon="6.90631">
        <ele>390</ele>
        <time>2009-02-11T15:18:09Z</time>
      </trkpt>
      <trkpt lat="43.66386" lon="6.9062">
        <ele>398</ele>
        <time>2009-02-11T15:18:14Z</time>
      </trkpt>
      <trkpt lat="43.66388" lon="6.90619">
        <ele>400</ele>
        <time>2009-02-11T15:18:15Z</time>
      </trkpt>
      <trkpt lat="43.66389" lon="6.90617">
        <ele>400</ele>
        <time>2009-02-11T15:18:26Z</time>
      </trkpt>
      <trkpt lat="43.6639" lon="6.90616">
        <ele>401</ele>
        <time>2009-02-11T15:18:27Z</time>
      </trkpt>
      <trkpt lat="43.66402" lon="6.906">
        <ele>405</ele>
        <time>2009-02-11T15:18:34Z</time>
      </trkpt>
      <trkpt lat="43.66407" lon="6.90592">
        <ele>407</ele>
        <time>2009-02-11T15:18:39Z</time>
      </trkpt>
      <trkpt lat="43.66406" lon="6.9059">
        <ele>407</ele>
        <time>2009-02-11T15:18:51Z</time>
      </trkpt>
      <trkpt lat="43.66408" lon="6.90591">
        <ele>408</ele>
        <time>2009-02-11T15:19:39Z</time>
      </trkpt>
      <trkpt lat="43.66397" lon="6.90593">
        <ele>404</ele>
        <time>2009-02-11T15:20:10Z</time>
      </trkpt>
      <trkpt lat="43.66396" lon="6.90595">
        <ele>404</ele>
        <time>2009-02-11T15:20:12Z</time>
      </trkpt>
      <trkpt lat="43.66391" lon="6.90605">
        <ele>401</ele>
        <time>2009-02-11T15:20:21Z</time>
      </trkpt>
      <trkpt lat="43.66389" lon="6.90613">
        <ele>401</ele>
        <time>2009-02-11T15:20:28Z</time>
      </trkpt>
      <trkpt lat="43.66385" lon="6.9062">
        <ele>397</ele>
        <time>2009-02-11T15:20:33Z</time>
      </trkpt>
      <trkpt lat="43.66368" lon="6.90636">
        <ele>384</ele>
        <time>2009-02-11T15:20:38Z</time>
      </trkpt>
      <trkpt lat="43.66354" lon="6.90661">
        <ele>374</ele>
        <time>2009-02-11T15:20:42Z</time>
      </trkpt>
      <trkpt lat="43.66349" lon="6.90706">
        <ele>370</ele>
        <time>2009-02-11T15:20:47Z</time>
      </trkpt>
      <trkpt lat="43.66354" lon="6.90727">
        <ele>372</ele>
        <time>2009-02-11T15:20:49Z</time>
      </trkpt>
      <trkpt lat="43.66359" lon="6.90744">
        <ele>377</ele>
        <time>2009-02-11T15:20:51Z</time>
      </trkpt>
      <trkpt lat="43.66361" lon="6.90752">
        <ele>380</ele>
        <time>2009-02-11T15:20:53Z</time>
      </trkpt>
      <trkpt lat="43.66361" lon="6.90754">
        <ele>380</ele>
        <time>2009-02-11T15:20:55Z</time>
      </trkpt>
      <trkpt lat="43.66361" lon="6.90753">
        <ele>380</ele>
        <time>2009-02-11T15:21:02Z</time>
      </trkpt>
      <trkpt lat="43.6636" lon="6.90754">
        <ele>380</ele>
        <time>2009-02-11T15:21:08Z</time>
      </trkpt>
      <trkpt lat="43.6636" lon="6.90753">
        <ele>380</ele>
        <time>2009-02-11T15:21:14Z</time>
      </trkpt>
      <trkpt lat="43.66356" lon="6.90738">
        <ele>375</ele>
        <time>2009-02-11T15:21:23Z</time>
      </trkpt>
      <trkpt lat="43.66353" lon="6.90734">
        <ele>372</ele>
        <time>2009-02-11T15:21:33Z</time>
      </trkpt>
      <trkpt lat="43.66352" lon="6.90739">
        <ele>372</ele>
        <time>2009-02-11T15:21:46Z</time>
      </trkpt>
      <trkpt lat="43.66346" lon="6.90746">
        <ele>369</ele>
        <time>2009-02-11T15:21:50Z</time>
      </trkpt>
      <trkpt lat="43.66331" lon="6.90743">
        <ele>358</ele>
        <time>2009-02-11T15:21:55Z</time>
      </trkpt>
      <trkpt lat="43.66316" lon="6.90741">
        <ele>353</ele>
        <time>2009-02-11T15:22:00Z</time>
      </trkpt>
      <trkpt lat="43.66314" lon="6.90742">
        <ele>352</ele>
        <time>2009-02-11T15:22:04Z</time>
      </trkpt>
      <trkpt lat="43.66316" lon="6.90741">
        <ele>353</ele>
        <time>2009-02-11T15:22:10Z</time>
      </trkpt>
      <trkpt lat="43.66316" lon="6.90737">
        <ele>353</ele>
        <time>2009-02-11T15:22:16Z</time>
      </trkpt>
      <trkpt lat="43.66316" lon="6.90735">
        <ele>353</ele>
        <time>2009-02-11T15:22:17Z</time>
      </trkpt>
      <trkpt lat="43.66316" lon="6.90723">
        <ele>353</ele>
        <time>2009-02-11T15:22:22Z</time>
      </trkpt>
      <trkpt lat="43.66313" lon="6.90702">
        <ele>353</ele>
        <time>2009-02-11T15:22:28Z</time>
      </trkpt>
      <trkpt lat="43.66312" lon="6.90698">
        <ele>353</ele>
        <time>2009-02-11T15:22:29Z</time>
      </trkpt>
      <trkpt lat="43.66309" lon="6.90679">
        <ele>353</ele>
        <time>2009-02-11T15:22:34Z</time>
      </trkpt>
      <trkpt lat="43.66297" lon="6.90671">
        <ele>348</ele>
        <time>2009-02-11T15:22:38Z</time>
      </trkpt>
      <trkpt lat="43.66291" lon="6.90673">
        <ele>345</ele>
        <time>2009-02-11T15:22:41Z</time>
      </trkpt>
      <trkpt lat="43.6629" lon="6.90679">
        <ele>345</ele>
        <time>2009-02-11T15:22:43Z</time>
      </trkpt>
      <trkpt lat="43.66288" lon="6.9071">
        <ele>343</ele>
        <time>2009-02-11T15:22:49Z</time>
      </trkpt>
      <trkpt lat="43.66285" lon="6.9073">
        <ele>342</ele>
        <time>2009-02-11T15:22:53Z</time>
      </trkpt>
      <trkpt lat="43.66278" lon="6.90734">
        <ele>340</ele>
        <time>2009-02-11T15:22:57Z</time>
      </trkpt>
      <trkpt lat="43.66273" lon="6.90733">
        <ele>339</ele>
        <time>2009-02-11T15:22:58Z</time>
      </trkpt>
      <trkpt lat="43.66255" lon="6.90729">
        <ele>332</ele>
        <time>2009-02-11T15:23:03Z</time>
      </trkpt>
      <trkpt lat="43.66252" lon="6.90729">
        <ele>332</ele>
        <time>2009-02-11T15:23:04Z</time>
      </trkpt>
      <trkpt lat="43.66246" lon="6.90718">
        <ele>329</ele>
        <time>2009-02-11T15:23:09Z</time>
      </trkpt>
      <trkpt lat="43.66238" lon="6.90707">
        <ele>326</ele>
        <time>2009-02-11T15:23:13Z</time>
      </trkpt>
      <trkpt lat="43.6623" lon="6.90703">
        <ele>323</ele>
        <time>2009-02-11T15:23:17Z</time>
      </trkpt>
      <trkpt lat="43.66229" lon="6.90701">
        <ele>322</ele>
        <time>2009-02-11T15:23:18Z</time>
      </trkpt>
      <trkpt lat="43.66226" lon="6.90694">
        <ele>321</ele>
        <time>2009-02-11T15:23:20Z</time>
      </trkpt>
      <trkpt lat="43.66232" lon="6.90673">
        <ele>323</ele>
        <time>2009-02-11T15:23:25Z</time>
      </trkpt>
      <trkpt lat="43.66233" lon="6.90656">
        <ele>323</ele>
        <time>2009-02-11T15:23:29Z</time>
      </trkpt>
      <trkpt lat="43.6623" lon="6.90654">
        <ele>322</ele>
        <time>2009-02-11T15:23:31Z</time>
      </trkpt>
      <trkpt lat="43.66229" lon="6.9064">
        <ele>321</ele>
        <time>2009-02-11T15:23:35Z</time>
      </trkpt>
      <trkpt lat="43.6623" lon="6.90634">
        <ele>321</ele>
        <time>2009-02-11T15:23:36Z</time>
      </trkpt>
      <trkpt lat="43.6623" lon="6.90627">
        <ele>321</ele>
        <time>2009-02-11T15:23:39Z</time>
      </trkpt>
      <trkpt lat="43.66226" lon="6.90635">
        <ele>320</ele>
        <time>2009-02-11T15:23:45Z</time>
      </trkpt>
      <trkpt lat="43.66217" lon="6.90636">
        <ele>318</ele>
        <time>2009-02-11T15:23:49Z</time>
      </trkpt>
      <trkpt lat="43.66214" lon="6.90623">
        <ele>317</ele>
        <time>2009-02-11T15:23:55Z</time>
      </trkpt>
      <trkpt lat="43.66218" lon="6.90616">
        <ele>317</ele>
        <time>2009-02-11T15:23:59Z</time>
      </trkpt>
      <trkpt lat="43.66217" lon="6.90613">
        <ele>317</ele>
        <time>2009-02-11T15:24:02Z</time>
      </trkpt>
      <trkpt lat="43.6621" lon="6.90616">
        <ele>315</ele>
        <time>2009-02-11T15:24:06Z</time>
      </trkpt>
      <trkpt lat="43.6621" lon="6.90608">
        <ele>316</ele>
        <time>2009-02-11T15:24:10Z</time>
      </trkpt>
      <trkpt lat="43.66219" lon="6.90591">
        <ele>319</ele>
        <time>2009-02-11T15:24:14Z</time>
      </trkpt>
      <trkpt lat="43.66216" lon="6.90585">
        <ele>318</ele>
        <time>2009-02-11T15:24:17Z</time>
      </trkpt>
      <trkpt lat="43.66213" lon="6.90589">
        <ele>318</ele>
        <time>2009-02-11T15:24:18Z</time>
      </trkpt>
      <trkpt lat="43.66191" lon="6.90617">
        <ele>312</ele>
        <time>2009-02-11T15:24:24Z</time>
      </trkpt>
      <trkpt lat="43.66183" lon="6.90627">
        <ele>311</ele>
        <time>2009-02-11T15:24:26Z</time>
      </trkpt>
      <trkpt lat="43.66164" lon="6.90672">
        <ele>310</ele>
        <time>2009-02-11T15:24:32Z</time>
      </trkpt>
      <trkpt lat="43.66158" lon="6.90718">
        <ele>312</ele>
        <time>2009-02-11T15:24:36Z</time>
      </trkpt>
      <trkpt lat="43.66159" lon="6.90746">
        <ele>314</ele>
        <time>2009-02-11T15:24:38Z</time>
      </trkpt>
      <trkpt lat="43.66142" lon="6.90785">
        <ele>316</ele>
        <time>2009-02-11T15:24:42Z</time>
      </trkpt>
      <trkpt lat="43.66109" lon="6.9081">
        <ele>312</ele>
        <time>2009-02-11T15:24:46Z</time>
      </trkpt>
      <trkpt lat="43.66066" lon="6.90826">
        <ele>304</ele>
        <time>2009-02-11T15:24:52Z</time>
      </trkpt>
      <trkpt lat="43.66061" lon="6.90828">
        <ele>303</ele>
        <time>2009-02-11T15:24:53Z</time>
      </trkpt>
      <trkpt lat="43.66047" lon="6.90827">
        <ele>299</ele>
        <time>2009-02-11T15:24:57Z</time>
      </trkpt>
      <trkpt lat="43.66047" lon="6.90824">
        <ele>299</ele>
        <time>2009-02-11T15:25:06Z</time>
      </trkpt>
      <trkpt lat="43.66047" lon="6.90825">
        <ele>299</ele>
        <time>2009-02-11T15:25:34Z</time>
      </trkpt>
      <trkpt lat="43.66034" lon="6.90826">
        <ele>297</ele>
        <time>2009-02-11T15:25:40Z</time>
      </trkpt>
      <trkpt lat="43.66022" lon="6.90833">
        <ele>297</ele>
        <time>2009-02-11T15:25:44Z</time>
      </trkpt>
      <trkpt lat="43.66009" lon="6.90854">
        <ele>301</ele>
        <time>2009-02-11T15:25:50Z</time>
      </trkpt>
      <trkpt lat="43.65989" lon="6.90882">
        <ele>303</ele>
        <time>2009-02-11T15:25:58Z</time>
      </trkpt>
      <trkpt lat="43.65966" lon="6.90913">
        <ele>309</ele>
        <time>2009-02-11T15:26:08Z</time>
      </trkpt>
      <trkpt lat="43.65953" lon="6.90929">
        <ele>312</ele>
        <time>2009-02-11T15:26:14Z</time>
      </trkpt>
      <trkpt lat="43.65934" lon="6.90945">
        <ele>314</ele>
        <time>2009-02-11T15:26:22Z</time>
      </trkpt>
      <trkpt lat="43.65925" lon="6.90961">
        <ele>316</ele>
        <time>2009-02-11T15:26:29Z</time>
      </trkpt>
      <trkpt lat="43.65915" lon="6.90982">
        <ele>320</ele>
        <time>2009-02-11T15:26:38Z</time>
      </trkpt>
      <trkpt lat="43.65901" lon="6.90993">
        <ele>321</ele>
        <time>2009-02-11T15:26:45Z</time>
      </trkpt>
      <trkpt lat="43.65889" lon="6.91009">
        <ele>325</ele>
        <time>2009-02-11T15:26:53Z</time>
      </trkpt>
      <trkpt lat="43.6588" lon="6.91035">
        <ele>328</ele>
        <time>2009-02-11T15:27:03Z</time>
      </trkpt>
      <trkpt lat="43.65869" lon="6.91053">
        <ele>330</ele>
        <time>2009-02-11T15:27:09Z</time>
      </trkpt>
      <trkpt lat="43.65852" lon="6.91067">
        <ele>331</ele>
        <time>2009-02-11T15:27:13Z</time>
      </trkpt>
      <trkpt lat="43.65847" lon="6.91068">
        <ele>330</ele>
        <time>2009-02-11T15:27:14Z</time>
      </trkpt>
      <trkpt lat="43.65833" lon="6.91067">
        <ele>328</ele>
        <time>2009-02-11T15:27:16Z</time>
      </trkpt>
      <trkpt lat="43.65791" lon="6.91078">
        <ele>327</ele>
        <time>2009-02-11T15:27:21Z</time>
      </trkpt>
      <trkpt lat="43.6577" lon="6.91093">
        <ele>329</ele>
        <time>2009-02-11T15:27:24Z</time>
      </trkpt>
      <trkpt lat="43.6575" lon="6.911">
        <ele>328</ele>
        <time>2009-02-11T15:27:27Z</time>
      </trkpt>
      <trkpt lat="43.65733" lon="6.91103">
        <ele>327</ele>
        <time>2009-02-11T15:27:30Z</time>
      </trkpt>
      <trkpt lat="43.65716" lon="6.91116">
        <ele>328</ele>
        <time>2009-02-11T15:27:34Z</time>
      </trkpt>
      <trkpt lat="43.65693" lon="6.91161">
        <ele>332</ele>
        <time>2009-02-11T15:27:43Z</time>
      </trkpt>
      <trkpt lat="43.65682" lon="6.91182">
        <ele>333</ele>
        <time>2009-02-11T15:27:47Z</time>
      </trkpt>
      <trkpt lat="43.6567" lon="6.91224">
        <ele>337</ele>
        <time>2009-02-11T15:27:54Z</time>
      </trkpt>
      <trkpt lat="43.65659" lon="6.91266">
        <ele>341</ele>
        <time>2009-02-11T15:28:01Z</time>
      </trkpt>
      <trkpt lat="43.65657" lon="6.91271">
        <ele>341</ele>
        <time>2009-02-11T15:28:02Z</time>
      </trkpt>
      <trkpt lat="43.65633" lon="6.91308">
        <ele>341</ele>
        <time>2009-02-11T15:28:11Z</time>
      </trkpt>
      <trkpt lat="43.6562" lon="6.91337">
        <ele>342</ele>
        <time>2009-02-11T15:28:18Z</time>
      </trkpt>
      <trkpt lat="43.65619" lon="6.91355">
        <ele>342</ele>
        <time>2009-02-11T15:28:23Z</time>
      </trkpt>
      <trkpt lat="43.65615" lon="6.91385">
        <ele>344</ele>
        <time>2009-02-11T15:28:31Z</time>
      </trkpt>
      <trkpt lat="43.6561" lon="6.91421">
        <ele>345</ele>
        <time>2009-02-11T15:28:40Z</time>
      </trkpt>
      <trkpt lat="43.65601" lon="6.91443">
        <ele>346</ele>
        <time>2009-02-11T15:28:46Z</time>
      </trkpt>
      <trkpt lat="43.65586" lon="6.91465">
        <ele>346</ele>
        <time>2009-02-11T15:28:53Z</time>
      </trkpt>
      <trkpt lat="43.6557" lon="6.91492">
        <ele>347</ele>
        <time>2009-02-11T15:29:01Z</time>
      </trkpt>
      <trkpt lat="43.6556" lon="6.91514">
        <ele>347</ele>
        <time>2009-02-11T15:29:07Z</time>
      </trkpt>
      <trkpt lat="43.65548" lon="6.91536">
        <ele>348</ele>
        <time>2009-02-11T15:29:15Z</time>
      </trkpt>
      <trkpt lat="43.65542" lon="6.91551">
        <ele>349</ele>
        <time>2009-02-11T15:29:21Z</time>
      </trkpt>
      <trkpt lat="43.6553" lon="6.91569">
        <ele>349</ele>
        <time>2009-02-11T15:29:29Z</time>
      </trkpt>
      <trkpt lat="43.65515" lon="6.91583">
        <ele>349</ele>
        <time>2009-02-11T15:29:37Z</time>
      </trkpt>
      <trkpt lat="43.65499" lon="6.9159">
        <ele>349</ele>
        <time>2009-02-11T15:29:45Z</time>
      </trkpt>
      <trkpt lat="43.65492" lon="6.91595">
        <ele>349</ele>
        <time>2009-02-11T15:29:50Z</time>
      </trkpt>
      <trkpt lat="43.65491" lon="6.91611">
        <ele>350</ele>
        <time>2009-02-11T15:29:57Z</time>
      </trkpt>
      <trkpt lat="43.65493" lon="6.91615">
        <ele>351</ele>
        <time>2009-02-11T15:29:59Z</time>
      </trkpt>
      <trkpt lat="43.65502" lon="6.91619">
        <ele>351</ele>
        <time>2009-02-11T15:30:04Z</time>
      </trkpt>
      <trkpt lat="43.65515" lon="6.91615">
        <ele>351</ele>
        <time>2009-02-11T15:30:11Z</time>
      </trkpt>
      <trkpt lat="43.65517" lon="6.91616">
        <ele>351</ele>
        <time>2009-02-11T15:30:18Z</time>
      </trkpt>
      <trkpt lat="43.65517" lon="6.91616">
        <ele>351</ele>
        <time>2009-02-11T15:30:26Z</time>
      </trkpt>
      <trkpt lat="43.65517" lon="6.91618">
        <ele>352</ele>
        <time>2009-02-11T15:30:33Z</time>
      </trkpt>
      <trkpt lat="43.65519" lon="6.91623">
        <ele>352</ele>
        <time>2009-02-11T15:30:41Z</time>
      </trkpt>
      <trkpt lat="43.65519" lon="6.91629">
        <ele>352</ele>
        <time>2009-02-11T15:30:48Z</time>
      </trkpt>
      <trkpt lat="43.6552" lon="6.91634">
        <ele>353</ele>
        <time>2009-02-11T15:30:55Z</time>
      </trkpt>
      <trkpt lat="43.65522" lon="6.91638">
        <ele>353</ele>
        <time>2009-02-11T15:31:02Z</time>
      </trkpt>
      <trkpt lat="43.65523" lon="6.91647">
        <ele>354</ele>
        <time>2009-02-11T15:31:07Z</time>
      </trkpt>
      <trkpt lat="43.65524" lon="6.9165">
        <ele>354</ele>
        <time>2009-02-11T15:31:09Z</time>
      </trkpt>
      <trkpt lat="43.65524" lon="6.91656">
        <ele>354</ele>
        <time>2009-02-11T15:31:14Z</time>
      </trkpt>
      <trkpt lat="43.65525" lon="6.9166">
        <ele>354</ele>
        <time>2009-02-11T15:31:21Z</time>
      </trkpt>
      <trkpt lat="43.65528" lon="6.91659">
        <ele>354</ele>
        <time>2009-02-11T15:31:33Z</time>
      </trkpt>
      <trkpt lat="43.65533" lon="6.91657">
        <ele>354</ele>
        <time>2009-02-11T15:31:37Z</time>
      </trkpt>
      <trkpt lat="43.65546" lon="6.91653">
        <ele>355</ele>
        <time>2009-02-11T15:31:44Z</time>
      </trkpt>
      <trkpt lat="43.65557" lon="6.9165">
        <ele>355</ele>
        <time>2009-02-11T15:31:50Z</time>
      </trkpt>
      <trkpt lat="43.6557" lon="6.91649">
        <ele>356</ele>
        <time>2009-02-11T15:31:57Z</time>
      </trkpt>
      <trkpt lat="43.65582" lon="6.91646">
        <ele>357</ele>
        <time>2009-02-11T15:32:04Z</time>
      </trkpt>
      <trkpt lat="43.65591" lon="6.91645">
        <ele>357</ele>
        <time>2009-02-11T15:32:10Z</time>
      </trkpt>
      <trkpt lat="43.65597" lon="6.91644">
        <ele>357</ele>
        <time>2009-02-11T15:32:16Z</time>
      </trkpt>
      <trkpt lat="43.65601" lon="6.91642">
        <ele>357</ele>
        <time>2009-02-11T15:32:22Z</time>
      </trkpt>
      <trkpt lat="43.65607" lon="6.91644">
        <ele>358</ele>
        <time>2009-02-11T15:32:27Z</time>
      </trkpt>
      <trkpt lat="43.65624" lon="6.91647">
        <ele>361</ele>
        <time>2009-02-11T15:32:37Z</time>
      </trkpt>
      <trkpt lat="43.65636" lon="6.91648">
        <ele>364</ele>
        <time>2009-02-11T15:32:44Z</time>
      </trkpt>
      <trkpt lat="43.65643" lon="6.91647">
        <ele>366</ele>
        <time>2009-02-11T15:32:49Z</time>
      </trkpt>
      <trkpt lat="43.6565" lon="6.9165">
        <ele>368</ele>
        <time>2009-02-11T15:32:55Z</time>
      </trkpt>
      <trkpt lat="43.65654" lon="6.91653">
        <ele>370</ele>
        <time>2009-02-11T15:33:00Z</time>
      </trkpt>
      <trkpt lat="43.6566" lon="6.91651">
        <ele>371</ele>
        <time>2009-02-11T15:33:06Z</time>
      </trkpt>
      <trkpt lat="43.65659" lon="6.91656">
        <ele>371</ele>
        <time>2009-02-11T15:33:15Z</time>
      </trkpt>
      <trkpt lat="43.65664" lon="6.91654">
        <ele>373</ele>
        <time>2009-02-11T15:33:22Z</time>
      </trkpt>
      <trkpt lat="43.65664" lon="6.91652">
        <ele>373</ele>
        <time>2009-02-11T15:33:26Z</time>
      </trkpt>
      <trkpt lat="43.65663" lon="6.9165">
        <ele>372</ele>
        <time>2009-02-11T15:33:46Z</time>
      </trkpt>
      <trkpt lat="43.65664" lon="6.91652">
        <ele>372</ele>
        <time>2009-02-11T15:34:02Z</time>
      </trkpt>
      <trkpt lat="43.65669" lon="6.91652">
        <ele>374</ele>
        <time>2009-02-11T15:34:07Z</time>
      </trkpt>
      <trkpt lat="43.65668" lon="6.9165">
        <ele>374</ele>
        <time>2009-02-11T15:34:14Z</time>
      </trkpt>
      <trkpt lat="43.65669" lon="6.9165">
        <ele>374</ele>
        <time>2009-02-11T15:34:16Z</time>
      </trkpt>
      <trkpt lat="43.65676" lon="6.9165">
        <ele>375</ele>
        <time>2009-02-11T15:34:21Z</time>
      </trkpt>
      <trkpt lat="43.65685" lon="6.91654">
        <ele>377</ele>
        <time>2009-02-11T15:34:32Z</time>
      </trkpt>
      <trkpt lat="43.65686" lon="6.91656">
        <ele>378</ele>
        <time>2009-02-11T15:34:37Z</time>
      </trkpt>
      <trkpt lat="43.65693" lon="6.91651">
        <ele>379</ele>
        <time>2009-02-11T15:34:45Z</time>
      </trkpt>
      <trkpt lat="43.65696" lon="6.9165">
        <ele>379</ele>
        <time>2009-02-11T15:34:48Z</time>
      </trkpt>
      <trkpt lat="43.65697" lon="6.91655">
        <ele>380</ele>
        <time>2009-02-11T15:34:56Z</time>
      </trkpt>
      <trkpt lat="43.65702" lon="6.91654">
        <ele>381</ele>
        <time>2009-02-11T15:35:02Z</time>
      </trkpt>
      <trkpt lat="43.65707" lon="6.91654">
        <ele>382</ele>
        <time>2009-02-11T15:35:09Z</time>
      </trkpt>
      <trkpt lat="43.65712" lon="6.91654">
        <ele>384</ele>
        <time>2009-02-11T15:35:16Z</time>
      </trkpt>
      <trkpt lat="43.65713" lon="6.91658">
        <ele>384</ele>
        <time>2009-02-11T15:35:21Z</time>
      </trkpt>
      <trkpt lat="43.65718" lon="6.91658">
        <ele>386</ele>
        <time>2009-02-11T15:35:28Z</time>
      </trkpt>
      <trkpt lat="43.65721" lon="6.91657">
        <ele>387</ele>
        <time>2009-02-11T15:35:33Z</time>
      </trkpt>
      <trkpt lat="43.65722" lon="6.91655">
        <ele>387</ele>
        <time>2009-02-11T15:35:38Z</time>
      </trkpt>
      <trkpt lat="43.65726" lon="6.91658">
        <ele>388</ele>
        <time>2009-02-11T15:35:47Z</time>
      </trkpt>
      <trkpt lat="43.65728" lon="6.91662">
        <ele>389</ele>
        <time>2009-02-11T15:35:52Z</time>
      </trkpt>
      <trkpt lat="43.65731" lon="6.91665">
        <ele>390</ele>
        <time>2009-02-11T15:35:57Z</time>
      </trkpt>
      <trkpt lat="43.65739" lon="6.91664">
        <ele>392</ele>
        <time>2009-02-11T15:36:05Z</time>
      </trkpt>
      <trkpt lat="43.65745" lon="6.91663">
        <ele>393</ele>
        <time>2009-02-11T15:36:12Z</time>
      </trkpt>
      <trkpt lat="43.65749" lon="6.91663">
        <ele>394</ele>
        <time>2009-02-11T15:36:18Z</time>
      </trkpt>
      <trkpt lat="43.6575" lon="6.91665">
        <ele>394</ele>
        <time>2009-02-11T15:36:20Z</time>
      </trkpt>
      <trkpt lat="43.65751" lon="6.91668">
        <ele>395</ele>
        <time>2009-02-11T15:36:26Z</time>
      </trkpt>
      <trkpt lat="43.65751" lon="6.91668">
        <ele>395</ele>
        <time>2009-02-11T15:36:32Z</time>
      </trkpt>
      <trkpt lat="43.65751" lon="6.91669">
        <ele>395</ele>
        <time>2009-02-11T15:36:33Z</time>
      </trkpt>
      <trkpt lat="43.6576" lon="6.91688">
        <ele>398</ele>
        <time>2009-02-11T15:36:41Z</time>
      </trkpt>
      <trkpt lat="43.6577" lon="6.91702">
        <ele>401</ele>
        <time>2009-02-11T15:36:47Z</time>
      </trkpt>
      <trkpt lat="43.65781" lon="6.91711">
        <ele>406</ele>
        <time>2009-02-11T15:36:52Z</time>
      </trkpt>
      <trkpt lat="43.65797" lon="6.91729">
        <ele>413</ele>
        <time>2009-02-11T15:37:00Z</time>
      </trkpt>
      <trkpt lat="43.65809" lon="6.91742">
        <ele>416</ele>
        <time>2009-02-11T15:37:06Z</time>
      </trkpt>
      <trkpt lat="43.65825" lon="6.9176">
        <ele>418</ele>
        <time>2009-02-11T15:37:14Z</time>
      </trkpt>
      <trkpt lat="43.6584" lon="6.9177">
        <ele>422</ele>
        <time>2009-02-11T15:37:21Z</time>
      </trkpt>
      <trkpt lat="43.6585" lon="6.91775">
        <ele>425</ele>
        <time>2009-02-11T15:37:26Z</time>
      </trkpt>
      <trkpt lat="43.65861" lon="6.91781">
        <ele>428</ele>
        <time>2009-02-11T15:37:32Z</time>
      </trkpt>
      <trkpt lat="43.65879" lon="6.9179">
        <ele>432</ele>
        <time>2009-02-11T15:37:40Z</time>
      </trkpt>
      <trkpt lat="43.65895" lon="6.91795">
        <ele>435</ele>
        <time>2009-02-11T15:37:47Z</time>
      </trkpt>
      <trkpt lat="43.65911" lon="6.91806">
        <ele>435</ele>
        <time>2009-02-11T15:37:55Z</time>
      </trkpt>
      <trkpt lat="43.65928" lon="6.91817">
        <ele>437</ele>
        <time>2009-02-11T15:38:03Z</time>
      </trkpt>
      <trkpt lat="43.65945" lon="6.91826">
        <ele>440</ele>
        <time>2009-02-11T15:38:11Z</time>
      </trkpt>
      <trkpt lat="43.65966" lon="6.91837">
        <ele>441</ele>
        <time>2009-02-11T15:38:21Z</time>
      </trkpt>
      <trkpt lat="43.65987" lon="6.91843">
        <ele>445</ele>
        <time>2009-02-11T15:38:30Z</time>
      </trkpt>
      <trkpt lat="43.66003" lon="6.91851">
        <ele>445</ele>
        <time>2009-02-11T15:38:38Z</time>
      </trkpt>
      <trkpt lat="43.66022" lon="6.91856">
        <ele>446</ele>
        <time>2009-02-11T15:38:47Z</time>
      </trkpt>
      <trkpt lat="43.66027" lon="6.91857">
        <ele>447</ele>
        <time>2009-02-11T15:38:49Z</time>
      </trkpt>
      <trkpt lat="43.66042" lon="6.91864">
        <ele>447</ele>
        <time>2009-02-11T15:38:56Z</time>
      </trkpt>
      <trkpt lat="43.66061" lon="6.91874">
        <ele>445</ele>
        <time>2009-02-11T15:39:05Z</time>
      </trkpt>
      <trkpt lat="43.6608" lon="6.91885">
        <ele>440</ele>
        <time>2009-02-11T15:39:14Z</time>
      </trkpt>
      <trkpt lat="43.66097" lon="6.9189">
        <ele>437</ele>
        <time>2009-02-11T15:39:22Z</time>
      </trkpt>
      <trkpt lat="43.66111" lon="6.91895">
        <ele>436</ele>
        <time>2009-02-11T15:39:29Z</time>
      </trkpt>
      <trkpt lat="43.66128" lon="6.91898">
        <ele>435</ele>
        <time>2009-02-11T15:39:36Z</time>
      </trkpt>
      <trkpt lat="43.66142" lon="6.91898">
        <ele>435</ele>
        <time>2009-02-11T15:39:43Z</time>
      </trkpt>
      <trkpt lat="43.66163" lon="6.91895">
        <ele>435</ele>
        <time>2009-02-11T15:39:52Z</time>
      </trkpt>
      <trkpt lat="43.66183" lon="6.9189">
        <ele>436</ele>
        <time>2009-02-11T15:40:00Z</time>
      </trkpt>
      <trkpt lat="43.66204" lon="6.91881">
        <ele>438</ele>
        <time>2009-02-11T15:40:09Z</time>
      </trkpt>
      <trkpt lat="43.66228" lon="6.91871">
        <ele>440</ele>
        <time>2009-02-11T15:40:19Z</time>
      </trkpt>
      <trkpt lat="43.66247" lon="6.91861">
        <ele>441</ele>
        <time>2009-02-11T15:40:27Z</time>
      </trkpt>
      <trkpt lat="43.66265" lon="6.9185">
        <ele>445</ele>
        <time>2009-02-11T15:40:35Z</time>
      </trkpt>
      <trkpt lat="43.66283" lon="6.91829">
        <ele>452</ele>
        <time>2009-02-11T15:40:45Z</time>
      </trkpt>
      <trkpt lat="43.66298" lon="6.918">
        <ele>459</ele>
        <time>2009-02-11T15:40:55Z</time>
      </trkpt>
      <trkpt lat="43.66308" lon="6.91775">
        <ele>469</ele>
        <time>2009-02-11T15:41:03Z</time>
      </trkpt>
      <trkpt lat="43.66322" lon="6.91738">
        <ele>483</ele>
        <time>2009-02-11T15:41:15Z</time>
      </trkpt>
      <trkpt lat="43.66332" lon="6.91704">
        <ele>493</ele>
        <time>2009-02-11T15:41:26Z</time>
      </trkpt>
      <trkpt lat="43.66345" lon="6.91673">
        <ele>501</ele>
        <time>2009-02-11T15:41:36Z</time>
      </trkpt>
      <trkpt lat="43.66351" lon="6.91643">
        <ele>503</ele>
        <time>2009-02-11T15:41:45Z</time>
      </trkpt>
      <trkpt lat="43.66356" lon="6.91612">
        <ele>504</ele>
        <time>2009-02-11T15:41:54Z</time>
      </trkpt>
      <trkpt lat="43.66358" lon="6.91611">
        <ele>504</ele>
        <time>2009-02-11T15:41:55Z</time>
      </trkpt>
      <trkpt lat="43.66368" lon="6.91619">
        <ele>504</ele>
        <time>2009-02-11T15:42:00Z</time>
      </trkpt>
      <trkpt lat="43.6638" lon="6.91669">
        <ele>503</ele>
        <time>2009-02-11T15:42:13Z</time>
      </trkpt>
      <trkpt lat="43.66387" lon="6.91704">
        <ele>502</ele>
        <time>2009-02-11T15:42:22Z</time>
      </trkpt>
      <trkpt lat="43.66394" lon="6.91739">
        <ele>498</ele>
        <time>2009-02-11T15:42:31Z</time>
      </trkpt>
      <trkpt lat="43.66404" lon="6.91787">
        <ele>493</ele>
        <time>2009-02-11T15:42:44Z</time>
      </trkpt>
      <trkpt lat="43.66415" lon="6.91823">
        <ele>492</ele>
        <time>2009-02-11T15:42:54Z</time>
      </trkpt>
      <trkpt lat="43.66426" lon="6.91853">
        <ele>493</ele>
        <time>2009-02-11T15:43:03Z</time>
      </trkpt>
      <trkpt lat="43.66432" lon="6.91869">
        <ele>494</ele>
        <time>2009-02-11T15:43:08Z</time>
      </trkpt>
      <trkpt lat="43.66444" lon="6.91899">
        <ele>500</ele>
        <time>2009-02-11T15:43:17Z</time>
      </trkpt>
      <trkpt lat="43.66453" lon="6.91927">
        <ele>500</ele>
        <time>2009-02-11T15:43:25Z</time>
      </trkpt>
      <trkpt lat="43.66456" lon="6.91957">
        <ele>496</ele>
        <time>2009-02-11T15:43:33Z</time>
      </trkpt>
      <trkpt lat="43.66459" lon="6.91996">
        <ele>492</ele>
        <time>2009-02-11T15:43:44Z</time>
      </trkpt>
      <trkpt lat="43.66462" lon="6.92032">
        <ele>487</ele>
        <time>2009-02-11T15:43:55Z</time>
      </trkpt>
      <trkpt lat="43.66465" lon="6.92059">
        <ele>482</ele>
        <time>2009-02-11T15:44:04Z</time>
      </trkpt>
      <trkpt lat="43.6647" lon="6.92086">
        <ele>478</ele>
        <time>2009-02-11T15:44:13Z</time>
      </trkpt>
      <trkpt lat="43.66479" lon="6.92102">
        <ele>481</ele>
        <time>2009-02-11T15:44:20Z</time>
      </trkpt>
      <trkpt lat="43.66496" lon="6.92119">
        <ele>494</ele>
        <time>2009-02-11T15:44:29Z</time>
      </trkpt>
      <trkpt lat="43.66509" lon="6.92127">
        <ele>499</ele>
        <time>2009-02-11T15:44:35Z</time>
      </trkpt>
      <trkpt lat="43.66526" lon="6.92137">
        <ele>505</ele>
        <time>2009-02-11T15:44:43Z</time>
      </trkpt>
      <trkpt lat="43.6654" lon="6.92148">
        <ele>506</ele>
        <time>2009-02-11T15:44:50Z</time>
      </trkpt>
      <trkpt lat="43.66553" lon="6.92158">
        <ele>507</ele>
        <time>2009-02-11T15:44:57Z</time>
      </trkpt>
      <trkpt lat="43.66568" lon="6.9217">
        <ele>507</ele>
        <time>2009-02-11T15:45:05Z</time>
      </trkpt>
      <trkpt lat="43.66579" lon="6.92181">
        <ele>507</ele>
        <time>2009-02-11T15:45:11Z</time>
      </trkpt>
      <trkpt lat="43.66593" lon="6.92199">
        <ele>507</ele>
        <time>2009-02-11T15:45:20Z</time>
      </trkpt>
      <trkpt lat="43.66603" lon="6.9221">
        <ele>507</ele>
        <time>2009-02-11T15:45:26Z</time>
      </trkpt>
      <trkpt lat="43.66616" lon="6.92225">
        <ele>507</ele>
        <time>2009-02-11T15:45:34Z</time>
      </trkpt>
      <trkpt lat="43.66628" lon="6.9224">
        <ele>507</ele>
        <time>2009-02-11T15:45:41Z</time>
      </trkpt>
      <trkpt lat="43.66643" lon="6.92261">
        <ele>507</ele>
        <time>2009-02-11T15:45:49Z</time>
      </trkpt>
      <trkpt lat="43.66656" lon="6.9228">
        <ele>507</ele>
        <time>2009-02-11T15:45:56Z</time>
      </trkpt>
      <trkpt lat="43.66668" lon="6.92299">
        <ele>507</ele>
        <time>2009-02-11T15:46:03Z</time>
      </trkpt>
      <trkpt lat="43.66685" lon="6.92326">
        <ele>507</ele>
        <time>2009-02-11T15:46:13Z</time>
      </trkpt>
      <trkpt lat="43.66694" lon="6.92344">
        <ele>506</ele>
        <time>2009-02-11T15:46:19Z</time>
      </trkpt>
      <trkpt lat="43.66705" lon="6.92366">
        <ele>505</ele>
        <time>2009-02-11T15:46:27Z</time>
      </trkpt>
      <trkpt lat="43.66714" lon="6.9238">
        <ele>507</ele>
        <time>2009-02-11T15:46:33Z</time>
      </trkpt>
      <trkpt lat="43.66724" lon="6.92397">
        <ele>508</ele>
        <time>2009-02-11T15:46:39Z</time>
      </trkpt>
      <trkpt lat="43.66735" lon="6.92412">
        <ele>510</ele>
        <time>2009-02-11T15:46:45Z</time>
      </trkpt>
      <trkpt lat="43.66747" lon="6.92432">
        <ele>513</ele>
        <time>2009-02-11T15:46:52Z</time>
      </trkpt>
      <trkpt lat="43.66748" lon="6.92436">
        <ele>513</ele>
        <time>2009-02-11T15:46:53Z</time>
      </trkpt>
      <trkpt lat="43.66758" lon="6.92458">
        <ele>514</ele>
        <time>2009-02-11T15:47:01Z</time>
      </trkpt>
      <trkpt lat="43.66773" lon="6.92479">
        <ele>516</ele>
        <time>2009-02-11T15:47:09Z</time>
      </trkpt>
      <trkpt lat="43.66784" lon="6.92498">
        <ele>516</ele>
        <time>2009-02-11T15:47:16Z</time>
      </trkpt>
      <trkpt lat="43.66797" lon="6.92516">
        <ele>519</ele>
        <time>2009-02-11T15:47:23Z</time>
      </trkpt>
      <trkpt lat="43.66809" lon="6.92533">
        <ele>522</ele>
        <time>2009-02-11T15:47:30Z</time>
      </trkpt>
      <trkpt lat="43.66827" lon="6.92553">
        <ele>527</ele>
        <time>2009-02-11T15:47:38Z</time>
      </trkpt>
      <trkpt lat="43.6684" lon="6.92554">
        <ele>531</ele>
        <time>2009-02-11T15:47:42Z</time>
      </trkpt>
      <trkpt lat="43.66848" lon="6.92537">
        <ele>536</ele>
        <time>2009-02-11T15:47:47Z</time>
      </trkpt>
      <trkpt lat="43.66846" lon="6.9252">
        <ele>537</ele>
        <time>2009-02-11T15:47:51Z</time>
      </trkpt>
      <trkpt lat="43.66842" lon="6.92492">
        <ele>539</ele>
        <time>2009-02-11T15:47:59Z</time>
      </trkpt>
      <trkpt lat="43.66832" lon="6.92466">
        <ele>539</ele>
        <time>2009-02-11T15:48:07Z</time>
      </trkpt>
      <trkpt lat="43.66822" lon="6.92436">
        <ele>537</ele>
        <time>2009-02-11T15:48:16Z</time>
      </trkpt>
      <trkpt lat="43.66816" lon="6.92407">
        <ele>537</ele>
        <time>2009-02-11T15:48:24Z</time>
      </trkpt>
      <trkpt lat="43.66814" lon="6.92382">
        <ele>540</ele>
        <time>2009-02-11T15:48:31Z</time>
      </trkpt>
      <trkpt lat="43.6681" lon="6.92354">
        <ele>540</ele>
        <time>2009-02-11T15:48:39Z</time>
      </trkpt>
      <trkpt lat="43.66805" lon="6.92322">
        <ele>541</ele>
        <time>2009-02-11T15:48:48Z</time>
      </trkpt>
      <trkpt lat="43.66795" lon="6.92286">
        <ele>542</ele>
        <time>2009-02-11T15:48:58Z</time>
      </trkpt>
      <trkpt lat="43.66783" lon="6.9225">
        <ele>542</ele>
        <time>2009-02-11T15:49:07Z</time>
      </trkpt>
      <trkpt lat="43.66769" lon="6.92212">
        <ele>543</ele>
        <time>2009-02-11T15:49:17Z</time>
      </trkpt>
      <trkpt lat="43.66756" lon="6.92176">
        <ele>543</ele>
        <time>2009-02-11T15:49:27Z</time>
      </trkpt>
      <trkpt lat="43.66753" lon="6.92166">
        <ele>544</ele>
        <time>2009-02-11T15:49:30Z</time>
      </trkpt>
      <trkpt lat="43.66758" lon="6.92161">
        <ele>545</ele>
        <time>2009-02-11T15:49:35Z</time>
      </trkpt>
      <trkpt lat="43.66775" lon="6.92191">
        <ele>545</ele>
        <time>2009-02-11T15:49:44Z</time>
      </trkpt>
      <trkpt lat="43.6678" lon="6.92202">
        <ele>546</ele>
        <time>2009-02-11T15:49:47Z</time>
      </trkpt>
    </trkseg>
  </trk>
</gpx>